[[{"header":{"parameterUnit":"m.s-1","parameterCategory":1,"la1":30.6,"la2":28.766,"lo1":-90.7593,"lo2":-88.6598,"dy":0.0162,"dx":0.0183,"nx":116,"ny":114,"refTime":"2023-05-06T00:00:00:Z","depth":0,"parameterNumber":2,"parameterNumberName":"U-component_of_WINDS"},"data":[0.0,0.0,0.0,0.0,0.0,0.0,0.0,0.0,0.0,0.0,0.0,0.0,0.0,0.0,0.0,0.0,0.0,0.0,0.0,0.0,0.0,0.0,0.0,0.0,0.0,0.0,0.0,0.0,0.0,0.0,0.0,0.0,0.0,0.0,0.0,0.0,0.0,0.0,0.0,0.0,0.0,0.0,0.0,0.0,0.0,0.0,0.0,0.0,0.0,0.0,0.0,0.0,0.0,0.0,0.0,0.0,0.0,0.0,0.0,0.0,0.0,0.0,0.0,0.0,0.0,0.0,0.0,0.0,0.0,0.0,0.0,0.0,0.0,0.0,0.0,0.0,0.0,0.0,0.0,0.0,0.0,0.0,0.0,0.0,0.0,0.0,0.0,0.0,0.0,0.0,0.0,0.0,0.0,0.0,0.0,0.0,0.0,0.0,0.0,0.0,0.0,0.0,0.0,0.0,0.0,0.0,0.0,0.0,0.0,0.0,0.0,0.0,0.0,0.0,0.0,0.0,0.0,0.0,0.0,0.0,0.0,0.0,0.0,0.0,0.0,0.0,0.0,0.0,0.0,0.0,0.0,0.0,0.0,0.0,0.0,0.0,0.0,0.0,0.0,0.0,0.0,0.0,0.0,0.0,0.0,0.0,0.0,0.0,0.0,0.0,0.0,0.0,0.0,0.0,0.0,0.0,0.0,0.0,0.0,0.0,0.0,0.0,0.0,0.0,0.0,0.0,0.0,0.0,0.0,0.0,0.0,0.0,0.0,0.0,0.0,0.0,0.0,0.0,0.0,0.0,0.0,0.0,0.0,0.0,0.0,0.0,0.0,0.0,0.0,0.0,0.0,0.0,0.0,0.0,0.0,0.0,0.0,0.0,0.0,0.0,0.0,0.0,0.0,0.0,0.0,0.0,0.0,0.0,0.0,0.0,0.0,0.0,0.0,0.0,0.0,0.0,0.0,0.0,0.0,0.0,0.0,0.0,0.0,0.0,0.0,0.0,0.0,0.0,0.0,0.0,0.0,0.0,0.0,0.0,0.0,0.0,0.0,0.0,0.0,0.0,0.0,0.0,0.0,0.0,0.0,0.0,0.0,0.0,0.0,0.0,0.0,0.0,0.0,0.0,0.0,0.0,0.0,0.0,0.0,0.0,0.0,0.0,0.0,0.0,0.0,0.0,0.0,0.0,0.0,0.0,0.0,0.0,0.0,0.0,0.0,0.0,0.0,0.0,0.0,0.0,0.0,0.0,0.0,0.0,0.0,0.0,0.0,0.0,0.0,0.0,0.0,0.0,0.0,0.0,0.0,0.0,0.0,0.0,0.0,0.0,0.0,0.0,0.0,0.0,0.0,0.0,0.0,0.0,0.0,0.0,0.0,0.0,0.0,0.0,0.0,0.0,0.0,0.0,0.0,0.0,0.0,0.0,0.0,0.0,0.0,0.0,0.0,0.0,0.0,0.0,0.0,0.0,0.0,0.0,0.0,0.0,0.0,0.0,0.0,0.0,0.0,0.0,0.0,0.0,0.0,0.0,0.0,0.0,0.0,0.0,0.0,0.0,0.0,0.0,0.0,0.0,0.0,0.0,0.0,0.0,0.0,0.0,0.0,0.0,0.0,0.0,0.0,0.0,0.0,0.0,0.0,0.0,0.0,0.0,0.0,0.0,0.0,0.0,0.0,0.0,0.0,0.0,0.0,0.0,0.0,0.0,0.0,0.0,0.0,0.0,0.0,0.0,0.0,0.0,0.0,0.0,0.0,0.0,0.0,0.0,0.0,0.0,0.0,0.0,0.0,0.0,0.0,0.0,0.0,0.0,0.0,0.0,0.0,0.0,0.0,0.0,0.0,0.0,0.0,0.0,0.0,0.0,0.0,0.0,0.0,0.0,0.0,0.0,0.0,0.0,0.0,0.0,0.0,0.0,0.0,0.0,0.0,0.0,0.0,0.0,0.0,0.0,0.0,0.0,0.0,0.0,0.0,0.0,0.0,0.0,0.0,0.0,0.0,0.0,0.0,0.0,0.0,0.0,0.0,0.0,0.0,0.0,0.0,0.0,0.0,0.0,0.0,0.0,0.0,0.0,0.0,0.0,0.0,0.0,0.0,0.0,0.0,0.0,0.0,0.0,0.0,0.0,0.0,0.0,0.0,0.0,0.0,0.0,0.0,0.0,0.0,0.0,0.0,0.0,0.0,0.0,0.0,0.0,0.0,0.0,0.0,0.0,0.0,0.0,0.0,0.0,0.0,0.0,0.0,0.0,0.0,0.0,0.0,0.0,0.0,0.0,0.0,0.0,0.0,0.0,0.0,0.0,0.0,0.0,0.0,0.0,0.0,0.0,0.0,0.0,0.0,0.0,0.0,0.0,0.0,0.0,0.0,0.0,0.0,0.0,0.0,0.0,0.0,0.0,0.0,0.0,0.0,0.0,0.0,0.0,0.0,0.0,0.0,0.0,0.0,0.0,0.0,0.0,0.0,0.0,0.0,0.0,0.0,0.0,0.0,0.0,0.0,0.0,0.0,0.0,0.0,0.0,0.0,0.0,0.0,0.0,0.0,0.0,0.0,0.0,0.0,0.0,0.0,0.0,0.0,0.0,0.0,0.0,0.0,0.0,0.0,0.0,0.0,0.0,0.0,0.0,0.0,0.0,0.0,0.0,0.0,0.0,0.0,0.0,0.0,0.0,0.0,0.0,0.0,0.0,0.0,0.0,0.0,0.0,0.0,0.0,0.0,0.0,0.0,0.0,0.0,0.0,0.0,0.0,0.0,0.0,0.0,0.0,0.0,0.0,0.0,0.0,0.0,0.0,0.0,0.0,0.0,0.0,0.0,0.0,0.0,0.0,0.0,0.0,0.0,0.0,0.0,0.0,0.0,0.0,0.0,0.0,0.0,0.0,0.0,0.0,0.0,0.0,0.0,0.0,0.0,0.0,0.0,0.0,0.0,0.0,0.0,0.0,0.0,0.0,0.0,0.0,0.0,0.0,0.0,0.0,0.0,0.0,0.0,0.0,0.0,0.0,0.0,0.0,0.0,0.0,0.0,0.0,0.0,0.0,0.0,0.0,0.0,0.0,0.0,0.0,0.0,0.0,0.0,0.0,0.0,0.0,0.0,0.0,0.0,0.0,0.0,0.0,0.0,0.0,0.0,0.0,0.0,0.0,0.0,0.0,0.0,0.0,0.0,0.0,0.0,0.0,0.0,0.0,0.0,0.0,0.0,0.0,0.0,0.0,0.0,0.0,0.0,0.0,0.0,0.0,0.0,0.0,0.0,0.0,0.0,0.0,0.0,0.0,0.0,0.0,0.0,0.0,0.0,0.0,0.0,0.0,0.0,0.0,0.0,0.0,0.0,0.0,0.0,0.0,0.0,0.0,0.0,0.0,0.0,0.0,0.0,0.0,0.0,0.0,0.0,0.0,0.0,0.0,0.0,0.0,0.0,0.0,0.0,0.0,0.0,0.0,0.0,0.0,0.0,0.0,0.0,0.0,0.0,0.0,0.0,0.0,0.0,0.0,0.0,0.0,0.0,0.0,0.0,0.0,0.0,0.0,0.0,0.0,0.0,0.0,0.0,0.0,0.0,0.0,0.0,0.0,0.0,0.0,0.0,0.0,0.0,0.0,0.0,0.0,0.0,0.0,0.0,0.0,0.0,0.0,0.0,0.0,0.0,0.0,0.0,0.0,0.0,0.0,0.0,0.0,0.0,0.0,0.0,0.0,0.0,0.0,0.0,0.0,0.0,0.0,0.0,0.0,0.0,0.0,0.0,0.0,0.0,0.0,0.0,0.0,0.0,0.0,0.0,0.0,0.0,0.0,0.0,0.0,0.0,0.0,0.0,0.0,0.0,0.0,0.0,0.0,0.0,0.0,0.0,0.0,0.0,0.0,0.0,0.0,0.0,0.0,0.0,0.0,0.0,0.0,0.0,0.0,0.0,0.0,0.0,0.0,0.0,0.0,0.0,0.0,0.0,0.0,0.0,0.0,0.0,0.0,0.0,0.0,0.0,0.0,0.0,0.0,0.0,0.0,0.0,0.0,0.0,0.0,0.0,0.0,0.0,0.0,0.0,0.0,0.0,0.0,0.0,0.0,0.0,0.0,0.0,0.0,0.0,0.0,0.0,0.0,0.0,0.0,0.0,0.0,0.0,0.0,0.0,0.0,0.0,0.0,0.0,0.0,0.0,0.0,0.0,0.0,0.0,0.0,0.0,0.0,0.0,0.0,0.0,0.0,0.0,0.0,0.0,0.0,0.0,0.0,0.0,0.0,0.0,0.0,0.0,0.0,0.0,0.0,0.0,0.0,0.0,0.0,0.0,0.0,0.0,0.0,0.0,0.0,0.0,0.0,0.0,0.0,0.0,0.0,0.0,0.0,0.0,0.0,0.0,0.0,0.0,0.0,0.0,0.0,0.0,0.0,0.0,0.0,0.0,0.0,0.0,0.0,0.0,0.0,0.0,0.0,0.0,0.0,0.0,0.0,0.0,0.0,0.0,0.0,0.0,0.0,0.0,0.0,0.0,0.0,0.0,0.0,0.0,0.0,0.0,0.0,0.0,0.0,0.0,0.0,0.0,0.0,0.0,0.0,0.0,0.0,0.0,0.0,0.0,0.0,0.0,0.0,0.0,0.0,0.0,0.0,0.0,0.0,0.0,0.0,0.0,0.0,0.0,0.0,0.0,0.0,0.0,0.0,0.0,0.0,0.0,0.0,0.0,0.0,0.0,0.0,0.0,0.0,0.0,0.0,0.0,0.0,0.0,0.0,0.0,0.0,0.0,0.0,0.0,0.0,0.0,0.0,0.0,0.0,0.0,0.0,0.0,0.0,0.0,0.0,0.0,0.0,0.0,0.0,0.0,0.0,0.0,0.0,0.0,0.0,0.0,0.0,0.0,0.0,0.0,0.0,0.0,0.0,0.0,0.0,0.0,0.0,0.0,0.0,0.0,0.0,0.0,0.0,0.0,0.0,0.0,0.0,0.0,0.0,0.0,0.0,0.0,0.0,0.0,0.0,0.0,0.0,0.0,0.0,0.0,0.0,0.0,0.0,0.0,0.0,0.0,0.0,0.0,0.0,0.0,0.0,0.0,0.0,0.0,0.0,0.0,0.0,0.0,0.0,0.0,0.0,0.0,0.0,0.0,0.0,0.0,0.0,0.0,0.0,0.0,0.0,0.0,0.0,0.0,0.0,0.0,0.0,0.0,0.0,0.0,0.0,0.0,0.0,0.0,0.0,0.0,0.0,0.0,0.0,0.0,0.0,0.0,0.0,0.0,0.0,0.0,0.0,0.0,0.0,0.0,0.0,0.0,0.0,0.0,0.0,0.0,0.0,0.0,0.0,0.0,0.0,0.0,0.0,0.0,0.0,0.0,0.0,0.0,0.0,0.0,0.0,0.0,0.0,0.0,0.0,0.0,0.0,0.0,0.0,0.0,0.0,0.0,0.0,0.0,0.0,0.0,0.0,0.0,0.0,0.0,0.0,0.0,0.0,0.0,0.0,0.0,0.0,0.0,0.0,0.0,0.0,0.0,0.0,0.0,0.0,0.0,0.0,0.0,0.0,0.0,0.0,0.0,0.0,0.0,0.0,0.0,0.0,0.0,0.0,0.0,0.0,0.0,0.0,0.0,0.0,0.0,0.0,0.0,0.0,0.0,0.0,0.0,0.0,0.0,0.0,0.0,0.0,0.0,0.0,0.0,0.0,0.0,0.0,0.0,0.0,0.0,0.0,0.0,0.0,0.0,0.0,0.0,0.0,0.0,0.0,0.0,0.0,0.0,0.0,0.0,0.0,0.0,0.0,0.0,0.0,0.0,0.0,0.0,0.0,0.0,0.0,0.0,0.0,0.0,0.0,0.0,0.0,0.0,0.0,0.0,0.0,0.0,0.0,0.0,0.0,0.0,0.0,0.0,0.0,0.0,0.0,0.0,0.0,0.0,0.0,0.0,0.0,0.0,0.0,0.0,0.0,0.0,0.0,0.0,0.0,0.0,0.0,0.0,0.0,0.0,0.0,0.0,0.0,0.0,0.0,0.0,0.0,0.0,0.0,0.0,0.0,0.0,0.0,0.0,0.0,0.0,0.0,0.0,0.0,0.0,0.0,0.0,0.0,-1.1983,0.0,0.0,0.0,0.0,0.0,0.0,0.0,0.0,0.0,0.0,0.0,0.0,0.0,0.0,0.0,0.0,0.0,0.0,0.0,0.0,0.0,0.0,0.0,0.0,0.0,0.0,0.0,0.0,0.0,0.0,0.0,0.0,0.0,0.0,0.0,0.0,0.0,0.0,0.0,-1.1343,-1.1989,-1.2655,-1.2494,-1.1885,-1.087,0.0,0.0,0.0,0.0,0.0,0.0,0.0,0.0,0.0,0.0,0.0,0.0,0.0,0.0,0.0,0.0,0.0,0.0,0.0,0.0,0.0,0.0,0.0,0.0,0.0,0.0,0.0,0.0,0.0,0.0,0.0,0.0,0.0,0.0,0.0,0.0,0.0,0.0,0.0,0.0,0.0,0.0,0.0,0.0,0.0,0.0,0.0,0.0,0.0,0.0,0.0,0.0,0.0,0.0,0.0,0.0,0.0,0.0,0.0,0.0,0.0,0.0,0.0,0.0,0.0,0.0,0.0,0.0,0.0,0.0,0.0,-1.2758,0.0,0.0,0.0,0.0,0.0,0.0,0.0,0.0,0.0,0.0,0.0,0.0,0.0,0.0,0.0,0.0,0.0,0.0,0.0,0.0,0.0,0.0,0.0,0.0,-0.7661,-0.7385,-0.7368,-0.7296,0.0,0.0,0.0,0.0,0.0,0.0,0.0,-1.0084,-1.0614,-1.1122,-1.2091,-1.3129,-1.4211,-1.4385,-1.342,-1.1523,-1.1265,0.0,0.0,0.0,0.0,0.0,0.0,0.0,0.0,0.0,0.0,0.0,0.0,0.0,0.0,0.0,0.0,0.0,0.0,0.0,0.0,0.0,0.0,0.0,0.0,0.0,0.0,0.0,0.0,0.0,0.0,0.0,0.0,0.0,0.0,0.0,0.0,0.0,0.0,0.0,0.0,0.0,0.0,0.0,0.0,0.0,0.0,0.0,0.0,0.0,0.0,0.0,0.0,0.0,0.0,0.0,0.0,0.0,0.0,0.0,0.0,0.0,0.0,0.0,-1.9091,-1.9324,-1.9209,-1.9209,-1.9094,-1.8755,-1.6418,-1.4958,-1.4218,0.0,0.0,0.0,0.0,0.0,0.0,0.0,0.0,0.0,0.0,0.0,0.0,0.0,0.0,0.0,0.0,0.0,0.0,0.0,0.0,0.0,0.0,-0.8419,-0.8365,-0.8092,-0.8068,-0.7957,-0.7702,0.0,0.0,0.0,0.0,0.0,-1.0075,-1.0942,-1.1868,-1.2789,-1.3904,-1.4614,-1.4946,-1.4825,-1.4514,-1.409,-1.3237,-1.2448,-1.1728,0.0,0.0,0.0,0.0,0.0,0.0,0.0,0.0,0.0,0.0,0.0,0.0,0.0,0.0,0.0,0.0,0.0,0.0,0.0,0.0,0.0,0.0,0.0,0.0,0.0,0.0,0.0,0.0,0.0,0.0,0.0,0.0,0.0,0.0,0.0,0.0,0.0,0.0,0.0,0.0,0.0,-0.9912,-1.0439,0.0,0.0,0.0,0.0,0.0,0.0,0.0,0.0,0.0,0.0,0.0,0.0,0.0,0.0,-1.9118,-1.9279,-1.9293,-1.9172,-1.9781,-2.006,-2.0037,-2.0037,-2.0013,-1.9937,-1.9001,0.0,-1.6726,-1.5653,0.0,0.0,0.0,0.0,0.0,0.0,0.0,0.0,0.0,0.0,0.0,0.0,0.0,0.0,0.0,0.0,0.0,0.0,0.0,0.0,0.0,-0.9747,-0.9851,-0.9783,-0.9678,-0.952,-0.9316,-0.9443,0.0,0.0,0.0,-1.0583,-1.1313,-1.2061,-1.3216,-1.4835,-1.5786,-1.6458,-1.6853,-1.6767,-1.6634,-1.6479,-1.6016,-1.4759,-1.2987,-1.2768,0.0,0.0,0.0,0.0,0.0,0.0,0.0,0.0,0.0,0.0,0.0,0.0,0.0,0.0,0.0,0.0,0.0,0.0,0.0,0.0,0.0,0.0,0.0,0.0,0.0,0.0,0.0,0.0,0.0,0.0,0.0,0.0,0.0,0.0,0.0,0.0,0.0,0.0,0.0,-1.1137,-1.2047,-1.2705,-1.2932,-1.3157,0.0,0.0,0.0,0.0,0.0,0.0,0.0,0.0,0.0,-1.8853,-1.9857,-2.0447,-2.058,-2.1232,-2.1545,-2.1495,-2.1765,-2.1886,-2.1886,-2.1886,-2.1847,-2.177,-2.1452,-2.0926,-2.0124,-1.8078,-1.6942,-1.6455,0.0,0.0,0.0,0.0,-1.5412,-1.5412,0.0,0.0,0.0,0.0,0.0,0.0,0.0,0.0,0.0,0.0,0.0,0.0,-1.0631,-1.1115,-1.1402,-1.148,-1.1435,-1.127,-1.0964,-1.0971,-1.097,-1.0916,-1.1269,-1.1825,-1.2543,-1.3505,-1.4857,-1.6655,-1.7362,-1.7944,-1.8505,-1.8463,-1.8476,-1.8479,-1.8228,-1.6767,-1.4528,-1.4347,-1.3643,-1.2621,0.0,0.0,0.0,0.0,0.0,0.0,0.0,0.0,0.0,0.0,0.0,0.0,0.0,0.0,0.0,0.0,0.0,0.0,0.0,0.0,0.0,0.0,0.0,0.0,0.0,0.0,0.0,0.0,0.0,0.0,0.0,0.0,0.0,0.0,0.0,0.0,0.0,-1.3056,-1.3927,-1.4647,-1.499,-1.5273,0.0,0.0,0.0,0.0,0.0,0.0,-1.8652,-1.9267,-1.9883,-2.0507,-2.1534,-2.2008,-2.186,-2.2754,-2.3215,-2.3215,-2.3364,-2.3432,-2.3432,-2.3432,-2.3379,-2.3258,-2.311,-2.2897,-2.2485,-2.0274,-1.8909,-1.8175,-1.7945,-1.7451,-1.6882,-1.6882,-1.6882,-1.6895,0.0,0.0,0.0,0.0,0.0,0.0,0.0,0.0,0.0,0.0,0.0,-1.0775,-1.1368,-1.2204,-1.2738,-1.2813,-1.3127,-1.2998,-1.2158,-1.2222,-1.2076,-1.1575,-1.1812,-1.2456,-1.3522,-1.5429,-1.692,-1.7903,-1.8271,-1.8743,-1.9344,-1.9207,-1.9393,-1.9781,-1.9212,-1.8061,-1.6497,-1.5868,-1.5126,-1.4334,-1.3869,0.0,0.0,0.0,0.0,0.0,0.0,0.0,0.0,0.0,0.0,0.0,0.0,0.0,0.0,0.0,0.0,0.0,0.0,0.0,0.0,0.0,0.0,0.0,0.0,0.0,0.0,0.0,0.0,0.0,0.0,0.0,0.0,0.0,0.0,0.0,0.0,0.0,0.0,-1.5316,-1.588,0.0,0.0,0.0,0.0,-1.8628,-1.9322,-2.0048,-2.0794,-2.1425,-2.1963,-2.2446,-2.3077,-2.3303,-2.312,-2.3188,-2.3215,-2.3215,-2.3784,-2.4042,-2.4042,-2.4042,-2.4055,-2.4014,-2.3445,-2.303,-2.2711,-2.1812,-2.1015,-2.028,-1.9627,-1.9014,-1.8488,-1.8488,-1.8488,-1.8441,0.0,0.0,0.0,0.0,0.0,0.0,0.0,0.0,-0.8008,-0.8998,-1.0344,-1.1554,-1.2451,-1.3305,-1.4019,-1.4542,-1.4594,-1.4455,-1.4158,-1.4087,-1.3996,-1.3805,-1.3951,-1.4597,-1.5754,-1.752,-1.8743,-1.9435,-2.026,-2.0853,-2.1186,-2.1007,-2.1039,-2.117,-2.069,-2.0151,-1.9557,-1.7895,-1.6696,-1.5879,-1.5403,-1.4629,0.0,0.0,0.0,0.0,0.0,0.0,0.0,0.0,0.0,0.0,0.0,0.0,0.0,0.0,0.0,0.0,0.0,0.0,0.0,0.0,0.0,0.0,0.0,0.0,0.0,0.0,0.0,0.0,0.0,0.0,0.0,0.0,0.0,0.0,0.0,0.0,0.0,-1.7923,-1.8315,0.0,0.0,-1.9127,-1.9628,-2.0172,-2.0831,-2.1509,-2.2237,-2.2737,-2.3078,-2.3234,-2.3749,-2.3945,-2.3784,-2.415,-2.4353,-2.4353,-2.4598,-2.4693,-2.4693,-2.4693,-2.4637,-2.454,-2.4324,-2.4035,-2.3728,-2.3461,-2.2651,-2.1588,-2.1328,-2.1043,-2.0784,-2.0784,-2.0784,-2.0758,0.0,0.0,0.0,0.0,0.0,0.0,0.0,0.0,-0.7544,-0.8758,-1.0317,-1.1769,-1.2881,-1.3997,-1.4946,-1.5596,-1.5812,-1.5788,-1.5587,-1.5546,-1.5492,-1.5348,-1.5927,-1.672,-1.7634,-1.9144,-2.0174,-2.0654,-2.1516,-2.2053,-2.2313,-2.2208,-2.2192,-2.224,-2.1838,-2.1656,-2.1523,-1.9897,-1.8575,-1.7564,-1.7052,-1.6245,-1.5271,0.0,0.0,0.0,0.0,0.0,0.0,0.0,0.0,0.0,0.0,0.0,0.0,0.0,0.0,0.0,0.0,0.0,0.0,0.0,0.0,0.0,0.0,0.0,0.0,0.0,0.0,0.0,0.0,0.0,0.0,0.0,0.0,0.0,0.0,0.0,-1.8652,-1.9612,-2.0165,-2.0515,-2.0605,-2.1001,-2.1453,-2.1953,-2.2404,-2.2916,-2.3579,-2.3868,-2.4043,-2.4144,-2.4641,-2.4859,-2.472,-2.5246,-2.5515,-2.5515,-2.5457,-2.5428,-2.5428,-2.5428,-2.5399,-2.5282,-2.5081,-2.4813,-2.4481,-2.4297,-2.3629,-2.2657,-2.2519,-2.2269,-2.1977,-2.1977,-2.1977,-2.195,0.0,0.0,0.0,0.0,0.0,0.0,0.0,-0.5459,-0.6712,-0.8012,-0.9678,-1.1291,-1.2636,-1.4197,-1.5402,-1.5943,-1.6747,-1.6949,-1.6373,-1.6541,-1.6506,-1.6117,-1.7602,-1.8627,-1.8962,-2.0323,-2.1231,-2.1649,-2.1834,-2.2171,-2.265,-2.2626,-2.2772,-2.3001,-2.2553,-2.2331,-2.2299,-2.1854,-2.0816,-1.945,-1.8835,-1.7843,-1.6698,0.0,0.0,0.0,0.0,0.0,0.0,0.0,0.0,0.0,0.0,0.0,0.0,0.0,0.0,0.0,0.0,0.0,0.0,0.0,0.0,0.0,0.0,0.0,0.0,0.0,0.0,0.0,0.0,0.0,0.0,0.0,0.0,0.0,-1.7555,-1.8975,-2.0053,-2.0277,-2.1337,-2.2076,-2.2076,-2.3188,-2.3914,-2.3928,-2.4084,-2.4364,-2.485,-2.4865,-2.4982,-2.5243,-2.5817,-2.606,-2.5914,-2.6304,-2.6478,-2.6478,-2.6356,-2.6294,-2.6294,-2.6294,-2.6294,-2.6268,-2.5678,-2.5203,-2.4853,-2.4331,-2.392,-2.3577,-2.3157,-2.2588,-2.1946,-2.1946,-2.1946,-2.1918,0.0,0.0,0.0,0.0,0.0,0.0,0.0,-0.4688,-0.5986,-0.7166,-0.9084,-1.0907,-1.2336,-1.3735,-1.4942,-1.5931,-1.6749,-1.7249,-1.7367,-1.7859,-1.8195,-1.8363,-1.9374,-2.0023,-2.0188,-2.119,-2.2001,-2.2557,-2.2806,-2.3123,-2.3537,-2.3245,-2.3327,-2.3715,-2.3432,-2.3302,-2.3291,-2.316,-2.2513,-2.1426,-2.0424,-1.9464,-1.8593,0.0,0.0,0.0,0.0,0.0,0.0,0.0,0.0,0.0,0.0,0.0,0.0,0.0,0.0,0.0,0.0,0.0,0.0,0.0,0.0,0.0,0.0,0.0,0.0,0.0,0.0,0.0,0.0,0.0,0.0,0.0,0.0,-1.9609,-1.9601,-2.0795,-2.1852,-2.2376,-2.3249,-2.3769,-2.3671,-2.3981,-2.4326,-2.4673,-2.5002,-2.5451,-2.6078,-2.6282,-2.644,-2.6487,-2.6413,-2.6388,-2.6327,-2.6337,-2.6356,-2.6356,-2.6325,-2.6294,-2.6294,-2.6294,-2.6184,-2.5936,-2.5778,-2.5248,-2.454,-2.4386,-2.397,-2.3437,-2.3449,-2.3295,-2.3138,-2.3138,-2.308,-2.2976,0.0,0.0,0.0,0.0,0.0,0.0,0.0,-0.3698,-0.4891,-0.613,-0.8091,-0.9927,-1.1451,-1.2883,-1.4178,-1.5321,-1.6293,-1.7027,-1.7531,-1.8419,-1.9131,-1.9515,-2.0421,-2.0984,-2.1106,-2.1962,-2.2648,-2.3048,-2.3227,-2.3409,-2.3629,-2.3409,-2.3451,-2.3733,-2.3618,-2.3649,-2.3727,-2.3727,-2.3296,-2.2563,-2.1893,-2.1072,-2.0147,-1.9547,-1.8688,-1.7791,-1.7124,-1.6233,-1.5235,-1.4327,0.0,0.0,0.0,0.0,0.0,0.0,0.0,0.0,0.0,0.0,0.0,0.0,0.0,0.0,0.0,0.0,0.0,0.0,0.0,0.0,0.0,0.0,0.0,0.0,-1.9822,-2.0863,-2.1394,-2.2311,-2.3097,-2.3621,-2.433,-2.4753,-2.4677,-2.4841,-2.5172,-2.5629,-2.5897,-2.623,-2.6753,-2.6875,-2.6873,-2.6799,-2.6795,-2.6805,-2.6805,-2.6794,-2.6818,-2.6818,-2.6658,-2.6594,-2.6594,-2.6594,-2.6479,0.0,-2.5962,-2.5473,-2.4887,-2.4564,-2.4054,0.0,0.0,0.0,0.0,0.0,-2.333,-2.3271,0.0,0.0,0.0,0.0,0.0,0.0,0.0,-0.2598,-0.3618,-0.4894,-0.675,-0.8494,-1.0036,-1.1615,-1.3056,-1.4181,-1.5384,-1.6435,-1.7279,-1.8606,-1.9544,-2.0002,-2.1041,-2.1723,-2.1849,-2.2674,-2.32,-2.3386,-2.3294,-2.3298,-2.3298,-2.3261,-2.3301,-2.3386,-2.344,-2.3542,-2.3788,-2.3788,-2.3501,-2.3066,-2.3013,-2.2376,-2.1298,-2.0764,-2.0077,-1.9356,-1.8834,-1.7884,-1.684,-1.6252,0.0,0.0,0.0,0.0,0.0,0.0,0.0,0.0,0.0,0.0,0.0,0.0,0.0,0.0,0.0,0.0,0.0,0.0,0.0,0.0,0.0,0.0,0.0,0.0,-2.0566,-2.1585,-2.2884,-2.3547,-2.4014,-2.4264,-2.4906,-2.5315,-2.5263,-2.5721,-2.6148,-2.6565,-2.6675,-2.685,-2.7062,0.0,0.0,0.0,0.0,-2.7243,-2.7243,-2.7387,-2.7436,-2.7436,-2.7146,-2.699,-2.6977,-2.6977,-2.6956,-2.6884,-2.624,-2.5774,-2.5494,-2.4834,-2.4159,-2.3503,-2.3376,-2.321,-2.3047,-2.3047,-2.3047,-2.3047,0.0,0.0,0.0,0.0,0.0,0.0,0.0,-0.1746,-0.2646,-0.3557,-0.5137,-0.67,-0.8079,-0.9767,-1.1188,-1.2182,-1.3755,-1.5627,-1.7843,-1.9133,-2.0062,-2.0695,-2.1896,-2.2657,-2.2839,-2.3307,-2.3667,-2.3857,-2.331,-2.315,-2.3298,-2.2964,-2.3026,-2.3397,-2.3627,-2.3652,-2.3587,-2.3748,-2.3382,-2.2751,-2.2613,-2.2259,-2.184,-2.1564,-2.1218,-2.0751,-1.9752,-1.923,-1.8785,-1.7355,-1.65,-1.5897,-1.509,-1.443,0.0,0.0,0.0,0.0,0.0,0.0,0.0,0.0,0.0,0.0,0.0,0.0,0.0,0.0,0.0,0.0,0.0,0.0,0.0,-2.0665,-2.1865,-2.2778,-2.3332,-2.4202,-2.4778,-2.4854,-2.5584,-2.5994,-2.5779,-2.63,-2.6581,-2.645,-2.7184,-2.7622,-2.7577,-2.7836,0.0,-2.7798,-2.7545,-2.7433,-2.7433,-2.7217,-2.7113,-2.7113,0.0,0.0,-2.676,-2.676,-2.6624,-2.6336,-2.6189,-2.5788,-2.5188,-2.5056,-2.4407,-2.3471,-2.3022,-2.28,-2.2769,-2.2769,-2.2769,-2.2769,0.0,0.0,0.0,0.0,0.0,0.0,0.0,-0.0906,-0.1635,-0.2455,-0.3756,-0.5061,-0.6329,-0.7799,-0.9169,-1.0294,-1.253,-1.4866,-1.7255,-1.8434,-1.9579,-2.0702,-2.1988,-2.2793,-2.3076,-2.3502,-2.3733,-2.3848,-2.3279,-2.3001,-2.3001,-2.2777,-2.281,-2.297,-2.3095,-2.3127,-2.3073,-2.3154,-2.2835,-2.2313,-2.232,-2.2136,-2.1903,-2.2115,-2.191,-2.1439,-2.0968,-2.0418,-1.9784,-1.8648,-1.7936,-1.7374,-1.6367,-1.5705,-1.5194,0.0,0.0,0.0,0.0,0.0,0.0,0.0,0.0,0.0,0.0,0.0,0.0,0.0,0.0,-1.7269,0.0,0.0,-2.0033,-2.1416,-2.2264,-2.2987,-2.3699,-2.4363,-2.4855,-2.5066,-2.5589,-2.5951,-2.612,-2.6426,-2.6728,-2.7023,-2.752,-2.7841,-2.7884,-2.7893,-2.7855,-2.7802,-2.7436,-2.7201,-2.7087,-2.6816,-2.6692,-2.6589,-2.6499,-2.6396,-2.6314,-2.6198,-2.606,-2.5886,-2.5699,-2.5401,-2.5042,-2.4788,-2.4377,-2.3841,-2.3118,-2.28,-2.272,-2.272,-2.2647,-2.2555,0.0,0.0,0.0,0.0,0.0,0.0,0.0,-0.0202,-0.0713,-0.143,-0.2424,-0.3454,-0.4498,-0.5731,-0.7103,-0.8661,-1.1249,-1.3677,-1.577,-1.7101,-1.8554,-2.0188,-2.1586,-2.2538,-2.296,-2.3425,-2.3618,-2.3579,-2.3166,-2.2852,-2.2628,-2.2553,-2.2463,-2.2366,-2.2381,-2.239,-2.2371,-2.2463,-2.2211,-2.1829,-2.1976,-2.1916,-2.1807,-2.2327,-2.2243,-2.1854,-2.1904,-2.13,-2.0347,-1.9725,-1.9142,-1.8511,-1.7441,-1.6846,-1.6386,-1.5894,-1.55,0.0,0.0,0.0,0.0,0.0,0.0,0.0,0.0,0.0,-1.6792,-1.7651,-1.8137,-1.8778,-1.9859,-2.0294,-2.0828,-2.1975,-2.2414,-2.2916,-2.3771,-2.4173,-2.4536,-2.4892,-2.5229,-2.5617,-2.6193,-2.6344,-2.6761,-2.753,-2.7719,-2.783,-2.7987,-2.7669,-2.7456,-2.7356,-2.7032,-2.6794,-2.6611,-2.6393,-2.622,-2.6094,-2.5933,-2.5793,-2.5723,-2.5571,-2.5465,-2.5371,-2.5028,-2.4909,-2.4921,-2.4553,-2.4362,-2.4206,-2.3365,-2.2894,-2.2702,-2.2592,-2.242,-2.2266,0.0,0.0,0.0,0.0,0.0,0.0,0.0,0.0,-0.0059,-0.0503,-0.1097,-0.1727,-0.2455,-0.3579,-0.5172,-0.7496,-0.9511,-1.1422,-1.3205,-1.5311,-1.7276,-1.8943,-2.0722,-2.1968,-2.253,-2.3154,-2.3348,-2.3154,-2.2864,-2.2628,-2.244,-2.2063,-2.1904,-2.1862,-2.1934,-2.1859,-2.166,-2.187,-2.18,-2.1511,-2.1359,-2.1399,-2.154,-2.1807,-2.2069,-2.2264,-2.1886,-2.1371,-2.0801,-2.0162,-1.9393,-1.8659,-1.8331,-1.7895,-1.7513,-1.7461,0.0,-1.7346,-1.6912,-1.6798,-1.6901,-1.7367,-1.7491,-1.7532,0.0,0.0,-1.7951,-1.8479,-1.8761,-1.9276,-2.0391,-2.0877,-2.1374,-2.2238,-2.2749,-2.3062,-2.3185,-2.3658,-2.3995,-2.4037,-2.4649,-2.5207,-2.5641,-2.6166,-2.6697,-2.7223,-2.7758,-2.7901,-2.759,-2.7523,-2.7289,-2.6782,-2.6564,-2.6393,-2.6267,-2.6072,-2.5863,-2.5676,-2.5641,-2.5453,-2.5087,-2.5087,-2.4886,-2.4634,-2.4562,-2.467,-2.4814,-2.4767,-2.4566,-2.4242,-2.3479,-2.298,-2.2631,-2.2166,-2.1987,-2.1925,0.0,0.0,0.0,0.0,0.0,0.0,0.0,0.0,0.0,0.0382,0.0059,-0.0363,-0.0968,-0.2148,-0.3667,-0.5528,-0.7195,-0.9108,-1.1427,-1.3404,-1.5575,-1.8018,-1.9808,-2.1243,-2.2313,-2.2793,-2.3076,-2.3115,-2.2713,-2.2365,-2.2035,-2.1883,-2.1617,-2.1254,-2.1202,-2.1007,-2.081,-2.0771,-2.0761,-2.0791,-2.0839,-2.1041,-2.1328,-2.1254,-2.1404,-2.1633,-2.1691,-2.1403,0.0,-2.027,-1.9603,-1.9035,-1.8949,-1.8614,-1.8291,-1.8375,-1.8227,0.0,-1.7805,0.0,0.0,0.0,-1.887,-1.904,-1.9777,-2.0005,-2.0215,-2.0643,-2.086,-2.1118,-2.1594,-2.1792,-2.202,0.0,-2.2561,-2.2744,-2.2969,-2.3228,-2.3577,-2.4029,-2.4416,-2.4938,-2.5638,-2.5946,-2.6411,-2.7216,-2.7505,-2.7516,-2.7214,-2.6985,-2.6769,-2.653,-2.6267,-2.599,-2.5664,-2.5594,-2.5407,-2.5135,-2.5028,-2.4873,-2.4683,-2.4455,-2.4213,-2.397,-2.397,-2.408,-2.4309,-2.4418,-2.4247,-2.3885,-2.3403,-2.2942,-2.2533,-2.1969,-2.1706,-2.1588,0.0,0.0,0.0,0.0,0.0,0.0,0.0,0.0,0.0,0.0,0.0986,0.0762,0.0303,-0.0762,-0.1999,-0.3331,-0.4875,-0.6796,-0.9259,-1.1387,-1.3748,-1.643,-1.8296,-1.985,-2.1149,-2.1681,-2.1998,-2.215,-2.1918,-2.1601,-2.12,-2.1124,-2.0861,-2.0377,-2.0177,-1.9985,-1.9832,-1.963,-1.9716,-1.9956,-2.01,-2.0415,-2.0803,-2.0629,-2.0718,-2.0964,-2.1245,-2.1068,-2.06,-2.0149,-1.9695,-1.9318,-1.9318,-1.912,-1.8955,-1.9062,-1.8977,-1.887,-1.8933,0.0,0.0,-2.0061,-2.0266,-2.054,-2.1361,-2.1675,-2.1871,-2.2182,-2.2377,-2.2525,-2.261,-2.265,-2.2728,-2.2773,-2.2839,-2.2921,-2.317,-2.3313,-2.3586,-2.4155,-2.4287,-2.469,-2.5518,-2.5761,-2.6239,-2.7136,-2.7214,-2.7146,-2.6943,-2.6611,-2.6358,-2.6255,-2.5921,-2.5571,-2.5241,-2.5182,-2.4981,-2.4646,-2.4502,-2.4345,-2.4236,-2.3897,-2.3677,-2.353,-2.353,-2.3641,-2.3824,-2.4043,-2.3915,-2.356,-2.3199,-2.2809,-2.2339,-2.1716,-2.1423,-2.1336,0.0,0.0,0.0,0.0,0.0,0.0,0.0,0.0,0.0,0.0,0.0,0.0,0.0,0.0817,0.0031,-0.0929,-0.2663,-0.4484,-0.6321,-0.9263,-1.1851,-1.3839,-1.5955,-1.7587,-1.8591,-1.9389,-1.9763,-1.97,-2.0067,-2.0067,-1.968,-1.9472,-1.9243,-1.9041,-1.8867,-1.8757,-1.8757,-1.872,-1.884,-1.9043,-1.9043,-1.9419,-1.9928,-1.9917,-2.0139,-2.0405,-2.0441,-2.0197,-1.9813,-1.9837,-1.9594,-1.9318,-1.9318,-1.944,0.0,-1.9584,-2.0036,-2.0559,0.0,0.0,-2.1782,-2.1815,-2.1965,-2.2114,-2.2182,-2.2182,-2.2217,-2.2366,-2.2537,-2.2775,-2.3124,-2.3325,-2.3525,-2.3725,-2.3878,-2.3964,-2.3964,-2.4083,-2.4181,-2.4194,-2.4194,-2.4448,0.0,-2.5719,-2.6358,-2.6973,-2.7024,-2.6909,-2.6726,-2.6496,-2.6255,-2.5945,-2.5535,-2.5241,-2.5111,-2.4921,-2.461,-2.4236,-2.42,-2.4007,-2.3641,-2.3409,-2.3298,-2.3298,-2.3298,-2.3409,-2.3629,-2.3824,-2.3699,-2.3351,-2.2903,-2.2509,-2.2099,-2.1257,-2.1031,-2.119,0.0,0.0,0.0,0.0,0.0,0.0,0.0,0.0,0.0,0.0,0.0,0.0,0.0,0.0,0.0,0.0,-0.1009,-0.275,-0.4773,-0.7198,-0.9652,-1.2046,-1.3971,-1.578,-1.7388,-1.8128,-1.8709,-1.9076,-1.9221,-1.9149,-1.8866,-1.8792,-1.8645,-1.8471,-1.8258,-1.8212,-1.8304,-1.8165,-1.8286,-1.8627,-1.8738,-1.9068,-1.9486,-1.9449,-1.9576,-1.977,0.0,-1.9668,-1.9751,-1.944,-1.93,-1.9308,-1.945,-1.9648,-1.9899,-2.0489,-2.1128,-2.1685,-2.173,0.0,-2.2191,-2.2505,-2.2618,-2.2778,-2.3223,-2.3327,-2.3362,-2.3541,-2.3755,-2.3863,-2.3756,-2.3891,-2.3988,-2.3821,-2.3827,-2.386,-2.386,-2.398,-2.4201,-2.4566,-2.4716,0.0,0.0,0.0,0.0,-2.622,-2.6258,-2.6258,-2.6176,-2.599,-2.5816,-2.5688,-2.5359,-2.5087,-2.4885,-2.4706,-2.4381,-2.4007,-2.3593,-2.3261,-2.3001,-2.2777,-2.2703,-2.2703,-2.2852,-2.3001,-2.3202,-2.3089,-2.2844,-2.2478,-2.2015,-2.1573,-2.1153,-2.0886,-2.0722,-2.0658,0.0,0.0,0.0,0.0,0.0,0.0,0.0,0.0,0.0,0.0,0.0,0.0,0.0,0.0,0.0,0.0,0.0,-0.1129,-0.3065,-0.5302,-0.7572,-0.9885,-1.185,-1.3603,-1.5271,-1.6014,-1.667,-1.7272,-1.7387,-1.7396,-1.7255,-1.7255,-1.7158,-1.6955,-1.6902,-1.6893,-1.6981,-1.699,-1.725,-1.7664,-1.7958,-1.8373,-1.8834,-1.8909,-1.9075,0.0,-1.9145,-1.9432,-1.9854,-1.9552,-1.9559,-1.9725,-2.0096,-2.0385,-2.0741,-2.1374,-2.1979,-2.244,-2.244,-2.2634,-2.2883,-2.3187,-2.3302,-2.3419,-2.3674,-2.3709,-2.3724,-2.3659,-2.3862,-2.4026,-2.4002,-2.4255,-2.446,-2.4452,-2.4495,-2.4541,-2.4461,-2.4517,-2.4672,-2.4943,-2.5095,0.0,0.0,0.0,0.0,-2.5851,-2.591,-2.591,-2.591,-2.5723,-2.5606,-2.5606,-2.5194,-2.4921,-2.479,-2.4454,-2.408,-2.3677,-2.315,-2.2777,-2.259,-2.2478,-2.2365,-2.2289,-2.2515,-2.2665,-2.2771,-2.2586,-2.2245,-2.1862,-2.1531,-2.1116,-2.0701,-2.0637,-2.0464,-2.0291,0.0,0.0,0.0,0.0,0.0,0.0,0.0,0.0,0.0,0.0,0.0,0.0,0.0,0.0,0.0,0.0,0.0,0.0,-0.1222,-0.3535,-0.565,-0.738,-0.95,-1.1153,-1.2256,-1.3122,-1.3835,-1.441,-1.4746,-1.4917,-1.4917,-1.4917,-1.4828,-1.4682,-1.4854,-1.4961,-1.5018,-1.5334,-1.5769,-1.6281,-1.6684,-1.7288,-1.7949,-1.8297,-1.8576,-1.8777,-1.8998,-1.9534,-2.0102,-2.0102,-2.0226,-2.0469,-2.1126,-2.1603,-2.2008,-2.2192,-2.2587,-2.2958,-2.2958,-2.3462,-2.3934,-2.3934,-2.4032,-2.4028,-2.3522,-2.3384,-2.3235,-2.2777,-2.2979,-2.3356,0.0,0.0,-2.4973,-2.5484,-2.5746,-2.5828,-2.5641,-2.5618,-2.5535,0.0,0.0,0.0,0.0,0.0,0.0,-2.5879,0.0,-2.5875,-2.5875,-2.5688,-2.5571,-2.5571,-2.5064,-2.479,-2.479,-2.42,-2.3677,-2.3298,-2.2889,-2.259,-2.2402,-2.2365,-2.2252,-2.2101,-2.2289,-2.2365,-2.2371,-2.2273,-2.1928,-2.147,-2.1375,-2.1061,-2.0637,-2.0443,-2.0259,-2.0063,0.0,0.0,0.0,0.0,0.0,0.0,0.0,0.0,0.0,0.0,0.0,0.0,0.0,0.0,0.0,0.0,0.0,0.0,-0.003,-0.1962,-0.381,-0.5451,-0.7337,-0.9009,-1.0425,-1.1414,-1.2314,-1.3176,-1.3477,-1.3709,-1.3809,-1.3949,-1.4057,-1.4123,-1.4156,-1.4387,-1.478,-1.4878,-1.5225,-1.5738,-1.609,-1.6406,-1.6737,-1.7524,-1.7938,-1.8208,-1.8685,-1.9399,-2.0102,-2.0102,0.0,0.0,0.0,-2.2243,-2.2886,-2.2921,-2.3497,-2.4077,-2.3921,-2.4097,-2.4309,-2.4164,-2.3877,-2.3568,-2.3442,-2.3144,-2.2834,-2.2708,-2.2979,-2.325,0.0,0.0,0.0,-2.4998,-2.5501,0.0,-2.584,-2.5688,0.0,-2.5535,0.0,-2.5829,-2.5635,-2.5991,0.0,0.0,-2.5637,-2.53,-2.53,-2.5265,-2.523,-2.523,-2.4814,-2.4574,-2.4574,-2.397,-2.3556,-2.3298,-2.274,-2.244,-2.2402,-2.2111,-2.1921,-2.1883,-2.2111,-2.2176,-2.2113,-2.1566,-2.1338,-2.1285,-2.0575,-2.0205,-2.0107,-2.0042,-1.99,-1.9704,0.0,0.0,0.0,0.0,0.0,0.0,0.0,0.0,0.0,0.0,0.0,0.0,0.0,0.0,0.0,0.0,0.0,0.0,0.0,-0.0809,-0.2366,-0.386,-0.5536,-0.7066,-0.8398,-0.9419,-1.0349,-1.1227,-1.1536,-1.1859,-1.2117,-1.2305,-1.2461,-1.2585,-1.2764,-1.3011,-1.3319,-1.3774,-1.4257,0.0,0.0,-1.586,-1.6284,-1.6973,-1.7501,-1.796,-1.8387,-1.9391,-2.0599,0.0,0.0,-2.2383,-2.2573,-2.3108,-2.3657,-2.3728,0.0,-2.461,-2.449,-2.449,-2.4407,-2.4057,-2.3685,-2.3293,-2.2846,-2.2525,-2.2283,-2.2098,-2.2238,0.0,0.0,0.0,0.0,0.0,0.0,0.0,-2.605,-2.6072,-2.6029,0.0,-2.6251,0.0,-2.6058,-2.6292,-2.6344,0.0,-2.5765,-2.5513,-2.5288,-2.5276,-2.5182,-2.4957,-2.467,-2.4381,-2.4116,-2.3787,-2.3446,-2.315,-2.2665,-2.2402,-2.2402,-2.1997,-2.1807,-2.1807,0.0,-2.1959,-2.1924,-2.1176,-2.0938,-2.0948,-2.0111,-1.9769,-1.9769,-1.9769,-1.9605,-1.9374,0.0,0.0,0.0,0.0,0.0,0.0,0.0,0.0,0.0,0.0,0.0,0.0,0.0,0.0,0.0,0.0,0.0,0.0,0.0,0.0,-0.1257,-0.2565,-0.4054,-0.5355,-0.6424,-0.7431,-0.8334,-0.9084,-0.9485,-0.9897,-1.0344,-1.0516,-1.0687,-1.0851,-1.1213,-1.1431,-1.1567,-1.2434,-1.3112,-1.3677,-1.4529,-1.5294,-1.5955,0.0,-1.7117,-1.7805,-1.8257,-1.9544,-2.1222,0.0,-2.3206,-2.3372,-2.3593,-2.3934,-2.4273,-2.449,-2.4682,-2.4825,-2.479,-2.4682,-2.4398,-2.3851,-2.3479,-2.3029,-2.2079,-2.1758,-2.1529,-2.1115,0.0,-2.1466,-2.2136,0.0,-2.4185,-2.4869,0.0,-2.6333,-2.6357,-2.6569,-2.6698,-2.6542,-2.6856,-2.688,-2.6488,-2.6509,-2.6364,-2.5988,-2.6248,-2.6171,-2.5597,-2.5562,-2.5339,-2.4799,-2.4536,-2.4152,-2.3556,-2.3567,-2.3372,-2.2964,-2.259,-2.2402,-2.2327,-2.1959,-2.1807,-2.1807,0.0,0.0,-2.1735,-2.1047,-2.0722,-2.0621,-1.994,-1.9592,-1.9539,-1.9539,-1.9308,-1.9008,0.0,0.0,0.0,0.0,0.0,0.0,0.0,0.0,0.0,0.0,0.0518,0.0,0.0,0.0,0.0,0.0,0.0,0.0,0.0,0.0,0.0,-0.159,-0.2898,-0.4098,-0.5115,-0.6169,-0.7123,-0.7968,-0.8633,-0.9166,-0.9528,-0.994,-1.0257,-1.048,-1.0673,-1.1043,-1.1523,-1.17,-1.2104,-1.2705,-1.3469,-1.3985,-1.4414,-1.5556,0.0,0.0,-1.8916,-2.0146,-2.1133,-2.1952,-2.2809,-2.3593,-2.397,-2.4273,-2.4502,-2.4682,-2.4885,-2.5016,-2.4861,-2.4754,-2.4589,-2.3898,-2.3133,-2.2423,-2.1844,-2.0952,0.0,0.0,0.0,-2.0665,-2.0943,-2.221,0.0,-2.4316,0.0,0.0,0.0,0.0,-2.705,0.0,0.0,0.0,0.0,0.0,0.0,0.0,0.0,0.0,-2.5942,-2.5922,-2.5538,-2.4757,-2.426,-2.3787,-2.3372,-2.3335,-2.315,-2.274,-2.2515,-2.2327,-2.2138,-2.1921,-2.1807,-2.1807,0.0,0.0,-2.1766,-2.1254,-2.0907,-2.0652,-2.0128,-1.9619,-1.9208,-1.9208,-1.8942,-1.8617,0.0,0.0,0.0,0.0,0.0,0.0,0.0,0.0,0.0,0.0,-0.0891,-0.0235,0.0,0.0,0.0,0.0,0.0,0.0,0.0,0.0,0.0,0.0,-0.2181,-0.3257,-0.4195,-0.5222,0.0,0.0,0.0,-0.8037,-0.8484,0.0,-0.9301,-0.9577,-0.9926,-1.0245,-1.0551,-1.1028,-1.1518,-1.1996,-1.2649,-1.3323,-1.3985,0.0,0.0,0.0,0.0,-1.997,-2.0778,-2.1815,-2.265,-2.3329,-2.3854,-2.4309,-2.4718,-2.4885,-2.5087,-2.5182,-2.5087,-2.4921,-2.4601,-2.3722,-2.296,-2.2139,-2.1065,0.0,0.0,0.0,-1.9545,-1.9848,-2.0427,0.0,0.0,0.0,0.0,0.0,0.0,0.0,0.0,0.0,0.0,0.0,0.0,0.0,0.0,0.0,0.0,0.0,-2.609,-2.5675,-2.5195,-2.4506,-2.4221,-2.3787,-2.315,-2.315,-2.2927,-2.2553,-2.2327,-2.2176,-2.2101,-2.1883,-2.1807,-2.1807,-2.1807,0.0,-2.1766,-2.13,-2.0943,-2.0674,-2.0003,-1.9497,-1.9134,-1.8866,-1.8549,-1.8245,0.0,0.0,0.0,0.0,0.0,0.0,0.0,-0.0496,-0.1374,-0.1891,-0.2143,-0.1845,-0.0737,0.007,0.0,0.0,0.0,0.0,0.0,0.0,0.0,0.0,0.0,0.0,0.0,0.0,0.0,0.0,0.0,0.0,0.0,0.0,0.0,0.0,0.0,-0.9484,-0.9655,-1.039,-1.0931,0.0,0.0,-1.2743,0.0,0.0,0.0,0.0,0.0,0.0,-2.0355,-2.1501,-2.2218,-2.2751,-2.3507,-2.4217,-2.4825,-2.5052,-2.5182,-2.5312,-2.5312,-2.4969,-2.439,-2.3473,-2.2625,-2.1609,-2.021,-1.9545,0.0,0.0,-1.8743,-1.9067,-1.9966,0.0,-2.2119,0.0,0.0,0.0,0.0,0.0,0.0,0.0,0.0,0.0,0.0,0.0,0.0,0.0,0.0,0.0,-2.629,-2.5565,-2.4954,-2.4397,-2.4247,-2.3758,-2.2927,-2.2889,-2.2703,-2.2327,-2.2138,-2.1987,-2.1949,-2.1769,-2.1655,-2.1655,-2.1655,0.0,0.0,-2.1264,-2.0984,-2.0673,-1.988,-1.9374,-1.9024,-1.854,-1.8178,-1.7906,0.0,0.0,0.0,0.0,0.0,0.0,0.0,-0.0668,-0.1725,-0.2422,-0.2853,-0.2981,-0.267,-0.1282,0.0,0.0,0.0,0.0,0.0,0.0,0.0,0.0,0.0,0.0,0.0,0.0,0.0,0.0,0.0,0.0,0.0,0.0,0.0,0.0,0.0,0.0,0.0,-0.9695,0.0,0.0,0.0,0.0,0.0,0.0,0.0,0.0,0.0,0.0,0.0,0.0,0.0,-2.191,-2.2952,-2.3964,-2.4825,-2.5052,0.0,0.0,-2.5312,-2.4683,-2.392,-2.3198,-2.1852,-2.0474,-1.973,0.0,0.0,-1.764,-1.7875,-1.835,-1.9153,-2.0125,-2.1475,0.0,0.0,-2.4991,0.0,0.0,0.0,0.0,0.0,0.0,0.0,0.0,0.0,0.0,0.0,0.0,0.0,-2.6145,-2.544,-2.4792,-2.4106,-2.3417,-2.274,-2.2553,-2.2327,-2.2138,-2.1921,-2.1731,-2.154,-2.1359,-2.1244,-2.1244,0.0,0.0,0.0,-2.1203,-2.0941,-2.0491,-2.0054,-1.9352,-1.8619,-1.8198,-1.7837,-1.7539,0.0,0.0,0.0,0.0,0.0,0.0,0.0,-0.0718,-0.1893,-0.2844,-0.3317,-0.3562,-0.3562,-0.2663,-0.168,0.0,0.0,0.0,0.0,0.0,0.0,0.0,0.0,0.0,0.0,0.0,0.0,0.0,0.0,0.0,0.0,0.0,0.0,0.0,0.0,0.0,0.0,0.0,0.0,0.0,0.0,0.0,0.0,0.0,0.0,0.0,0.0,0.0,0.0,0.0,0.0,0.0,-2.2167,-2.2947,0.0,0.0,-2.5147,-2.5182,-2.5182,-2.4578,-2.3815,-2.3004,-2.1652,-2.0221,-1.9126,0.0,-1.7296,-1.7011,-1.713,-1.751,-1.8328,-1.9313,-2.0549,-2.2321,-2.3502,0.0,0.0,0.0,0.0,0.0,0.0,0.0,0.0,0.0,0.0,0.0,0.0,0.0,0.0,-2.6052,-2.5423,-2.4839,-2.4133,-2.3424,-2.2762,-2.2286,-2.1959,-2.1731,-2.154,-2.1397,-2.132,-2.1244,-2.1205,-2.1205,0.0,0.0,0.0,-2.1205,-2.1028,-2.0665,-2.0106,-1.9487,-1.8769,-1.8229,-1.7738,-1.7314,0.0,0.0,0.0,0.0,0.0,0.0,0.0425,-0.081,-0.1992,-0.2982,-0.3521,-0.3862,-0.3994,-0.3514,-0.2764,-0.1716,0.0,0.0,0.0,0.0,0.0,0.0,0.0,0.0,0.0,0.0,0.0,-0.5732,0.0,0.0,0.0,0.0,0.0,0.0,0.0,0.0,0.0,0.0,0.0,0.0,0.0,0.0,0.0,0.0,0.0,0.0,0.0,0.0,0.0,0.0,0.0,0.0,0.0,-2.1844,-2.2457,0.0,-2.4518,-2.4553,-2.4553,-2.3989,-2.3199,-2.2318,-2.1003,-1.9579,0.0,0.0,-1.6853,-1.653,-1.6581,-1.6928,-1.7803,-1.8755,-1.9927,-2.1448,-2.3063,-2.4394,-2.5202,0.0,0.0,0.0,0.0,0.0,0.0,0.0,0.0,0.0,0.0,0.0,0.0,-2.5884,-2.528,-2.4826,-2.423,-2.3543,-2.2736,-2.217,-2.175,-2.1397,-2.1215,-2.1099,-2.1099,-2.1051,-2.1002,-2.1002,0.0,0.0,0.0,-2.1002,-2.0896,-2.0663,-2.006,-1.9398,-1.8773,-1.8201,-1.76,-1.7028,0.0,0.0,0.0,0.0,0.0,0.0,0.0,-0.0971,-0.1993,-0.2798,-0.3435,-0.3842,-0.3998,-0.3649,-0.3257,-0.2905,0.0,0.0,0.0,0.0,0.0,0.0,0.0,0.0,0.0,0.0,-0.5399,-0.6,-0.6273,-0.6652,0.0,0.0,0.0,0.0,0.0,0.0,0.0,0.0,0.0,0.0,0.0,0.0,0.0,0.0,0.0,0.0,0.0,0.0,0.0,0.0,0.0,0.0,0.0,-2.0905,-2.1195,-2.2615,-2.3149,-2.3329,-2.3329,-2.2663,-2.1801,-2.0931,-1.9616,-1.8255,0.0,0.0,-1.6124,-1.6114,-1.6278,-1.6691,-1.7639,-1.8567,-1.9723,-2.1249,-2.2955,0.0,0.0,0.0,0.0,0.0,0.0,0.0,0.0,0.0,0.0,0.0,0.0,0.0,0.0,-2.5706,-2.5061,-2.4785,-2.4396,-2.3626,-2.2501,-2.2294,-2.1883,-2.1205,-2.0984,-2.0906,-2.0906,-2.0693,-2.0605,0.0,0.0,0.0,0.0,-2.0605,-2.0498,-2.0265,-1.9793,-1.9098,-1.8359,-1.7959,-1.7283,-1.6603,0.0,0.0,0.0,0.0,0.0,0.0,0.0,-0.1226,-0.2184,-0.2942,-0.3483,-0.3852,-0.3976,-0.3799,-0.3519,-0.3132,0.0,0.0,0.0,0.0,0.0,0.0,0.0,0.0,0.0,0.0,-0.6164,-0.6485,-0.6761,-0.695,-0.7112,-0.7139,0.0,0.0,0.0,0.0,0.0,0.0,0.0,0.0,0.0,0.0,0.0,0.0,0.0,0.0,0.0,0.0,0.0,0.0,0.0,0.0,0.0,0.0,0.0,-2.1215,-2.2112,0.0,-2.2889,-2.244,-2.1724,-2.0629,-1.9428,-1.8244,-1.7308,0.0,-1.5774,-1.6053,-1.6002,-1.6154,-1.6985,-1.817,-1.9329,-2.0139,-2.2202,0.0,0.0,0.0,0.0,0.0,0.0,0.0,0.0,0.0,0.0,0.0,0.0,0.0,0.0,-2.5706,-2.5168,-2.5061,-2.4179,-2.3556,-2.3186,-2.2513,-2.194,-2.1421,-2.1184,-2.0948,-2.0693,-2.0644,0.0,0.0,0.0,0.0,0.0,-2.0605,-2.0489,-2.0255,-1.9916,-1.941,-1.8722,-1.8184,-1.7669,-1.7195,0.0,0.0,0.0,0.0,0.0,0.0,0.0,-0.1507,-0.225,-0.2925,-0.3342,-0.3647,-0.3816,-0.3802,-0.367,-0.342,0.0,0.0,0.0,0.0,0.0,0.0,0.0,0.0,0.0,-0.636,-0.6864,-0.7079,-0.7192,-0.7246,-0.7246,-0.7139,-0.6934,-0.6643,-0.6728,0.0,0.0,0.0,0.0,0.0,0.0,0.0,-1.1724,0.0,0.0,0.0,0.0,0.0,0.0,0.0,0.0,0.0,0.0,0.0,0.0,0.0,-2.1149,-2.1944,-2.1944,-2.1568,-2.096,-1.9819,-1.8828,0.0,0.0,-1.6218,-1.5815,-1.6063,-1.5984,-1.605,-1.668,-1.7966,-1.9089,-1.9536,-2.1799,0.0,0.0,0.0,0.0,0.0,0.0,0.0,0.0,0.0,0.0,0.0,0.0,0.0,0.0,0.0,-2.52,-2.52,-2.426,-2.3654,-2.3407,-2.2758,-2.2193,-2.1637,-2.1349,-2.1094,-2.081,-2.0683,0.0,0.0,0.0,0.0,0.0,-2.0498,-2.0411,-2.0264,-2.0108,-1.9608,-1.8936,-1.8581,-1.7981,-1.736,0.0,0.0,0.0,0.0,0.0,0.0,0.0,0.0,0.0,0.0,-0.3106,-0.3328,-0.3578,-0.3682,-0.3722,0.0,0.0,0.0,0.0,0.0,0.0,0.0,0.0,0.0,-0.6693,-0.7167,-0.753,-0.7797,-0.7649,-0.7574,-0.7547,-0.7273,-0.6855,-0.638,-0.6242,-0.6267,-0.6442,-0.7404,-0.8171,-0.8804,-0.9477,-1.0252,0.0,0.0,0.0,0.0,0.0,0.0,0.0,0.0,0.0,0.0,0.0,0.0,0.0,0.0,0.0,0.0,0.0,-2.032,0.0,0.0,0.0,0.0,0.0,-1.6093,0.0,-1.6075,-1.6093,-1.6226,-1.6765,-1.79,-1.8953,-1.9501,0.0,0.0,0.0,0.0,0.0,0.0,0.0,0.0,0.0,0.0,0.0,0.0,0.0,0.0,0.0,0.0,-2.52,-2.52,-2.4529,-2.3874,-2.3247,-2.3036,-2.2606,-2.1924,-2.1514,-2.1249,-2.1181,-2.0801,0.0,0.0,0.0,0.0,0.0,-2.0303,-2.0303,-2.0303,-2.0303,-1.9782,-1.904,-1.9012,-1.8303,-1.7307,0.0,0.0,0.0,0.0,0.0,0.0,0.0,0.0,0.0,0.0,0.0,-0.3553,-0.366,-0.3884,0.0,0.0,0.0,0.0,0.0,0.0,0.0,0.0,0.0,0.0,-0.7646,-0.8177,-0.8534,-0.8692,-0.856,-0.8388,-0.8182,-0.7649,-0.7014,-0.6324,-0.6118,-0.6118,-0.6293,-0.6829,-0.7561,-0.8401,-0.8949,-0.9845,0.0,0.0,0.0,0.0,-1.4262,-1.4704,0.0,0.0,0.0,0.0,0.0,0.0,0.0,0.0,-2.0508,-2.0701,-2.0701,0.0,-1.9711,-1.8868,-1.8078,-1.7302,0.0,-1.5982,-1.5733,-1.6042,-1.5848,-1.5986,-1.7132,-1.8005,-1.9019,-2.0364,0.0,0.0,0.0,0.0,0.0,0.0,0.0,0.0,0.0,0.0,0.0,0.0,0.0,0.0,0.0,0.0,-2.52,-2.52,-2.4348,-2.3833,-2.3647,-2.3258,-2.2826,-2.2363,-2.2266,-2.1773,-2.097,-2.0864,0.0,0.0,0.0,0.0,-2.0303,-2.0303,-2.0303,-2.0303,-2.0303,-2.0041,-1.9635,-1.9325,-1.8929,-1.8526,0.0,0.0,0.0,0.0,0.0,0.0,0.0,0.0,0.0,0.0,0.0,0.0,0.0,0.0,0.0,0.0,0.0,0.0,0.0,0.0,0.0,0.0,0.0,-0.8017,-0.8797,-0.9396,-0.9773,-0.9932,-0.9919,-0.9648,-0.9119,-0.8465,-0.7561,-0.6514,-0.5934,-0.5791,-0.6005,-0.6442,-0.7104,-0.7949,-0.8633,0.0,0.0,0.0,0.0,0.0,-1.4277,-1.4764,0.0,-1.5137,-1.6127,-1.7367,0.0,0.0,0.0,0.0,-2.0582,-2.0914,-2.0914,-2.0509,-1.9803,-1.8929,-1.8197,-1.7546,-1.6753,-1.6336,-1.6165,-1.6386,-1.6425,-1.6665,-1.749,-1.8599,0.0,0.0,0.0,0.0,0.0,0.0,0.0,0.0,0.0,0.0,0.0,0.0,0.0,0.0,0.0,0.0,0.0,0.0,-2.5158,-2.5073,-2.4219,-2.3797,-2.3797,-2.3319,-2.2984,-2.275,-2.2607,-2.2023,-2.1159,-2.0966,0.0,0.0,0.0,0.0,-2.0147,-2.0264,-2.0342,-2.0459,-2.0459,-2.0294,-2.0079,-1.985,-1.9496,-1.9098,0.0,0.0,0.0,0.0,0.0,0.0,0.0,0.0,0.0,0.0,0.0,0.0,0.0,0.0,0.0,0.0,0.0,0.0,0.0,0.0,0.0,0.0,0.0,-0.907,-1.0055,-1.0679,-1.1067,-1.1285,-1.1384,-1.1042,-1.0265,-0.9501,-0.8302,-0.6784,-0.5817,-0.5535,-0.5772,-0.6195,-0.6796,-0.7542,-0.8382,0.0,0.0,0.0,0.0,0.0,0.0,0.0,0.0,-1.5469,-1.6407,-1.7471,-1.7885,0.0,0.0,0.0,0.0,0.0,-2.1265,-2.0848,-2.0174,-1.9221,-1.8555,-1.7966,-1.7259,-1.7077,-1.7049,-1.702,-1.7318,-1.7726,-1.8105,-1.9403,0.0,0.0,0.0,0.0,0.0,0.0,0.0,0.0,0.0,0.0,0.0,0.0,0.0,0.0,0.0,0.0,0.0,0.0,0.0,-2.4861,-2.4176,-2.3797,-2.3754,-2.3319,-2.3091,-2.3091,-2.274,-2.2207,-2.1495,-2.114,-2.0516,0.0,0.0,0.0,-1.9981,-2.0225,-2.0459,-2.0644,-2.0683,-2.0576,-2.042,-2.0381,-2.0004,-1.9459,0.0,0.0,0.0,0.0,0.0,0.0,0.0,0.0,0.0,0.0,0.0,0.0,0.0,0.0,0.0,0.0,0.0,0.0,0.0,0.0,0.0,-0.8997,-0.9391,-1.0153,-1.1371,-1.1631,-1.2023,-1.2615,-1.2531,-1.2144,-1.1487,-1.0584,-0.9017,-0.6934,-0.6155,-0.5852,-0.5963,-0.6139,-0.6655,-0.7396,-0.815,0.0,0.0,0.0,0.0,0.0,0.0,0.0,0.0,-1.6158,-1.7072,-1.8039,-1.8752,0.0,0.0,0.0,0.0,0.0,-2.1592,-2.1545,-2.1265,-2.0362,-1.9486,-1.8766,-1.849,-1.8319,-1.8188,-1.8007,0.0,0.0,0.0,-2.0051,0.0,0.0,0.0,0.0,0.0,0.0,0.0,0.0,0.0,0.0,0.0,0.0,0.0,0.0,0.0,0.0,0.0,0.0,0.0,-2.4583,-2.4057,-2.3711,-2.3547,-2.3232,-2.3091,-2.3091,-2.3033,-2.2499,-2.1556,-2.1479,-2.0824,0.0,0.0,-2.0029,-2.0264,-2.0459,-2.0654,-2.0858,-2.1051,-2.1089,-2.1051,-2.0858,-2.0653,-2.0353,0.0,0.0,0.0,0.0,0.0,0.0,0.0,0.0,0.0,0.0,0.0,0.0,0.0,0.0,0.0,0.0,0.0,0.0,0.0,0.0,-0.9012,-0.9613,-1.0406,-1.1284,-1.2228,-1.2662,-1.3248,-1.4032,-1.4045,-1.3725,-1.3049,-1.1177,-0.9477,-0.7975,-0.6962,-0.6535,-0.6601,-0.6545,-0.6911,-0.7584,0.0,0.0,0.0,0.0,0.0,0.0,0.0,0.0,0.0,0.0,-1.7657,-1.8418,-1.9348,0.0,0.0,0.0,0.0,0.0,-2.1937,-2.198,-2.1949,-2.1828,-2.0765,-1.9655,-1.9246,-1.8999,-1.8945,-1.9118,0.0,0.0,0.0,0.0,0.0,0.0,0.0,0.0,0.0,0.0,0.0,0.0,0.0,0.0,0.0,0.0,0.0,0.0,0.0,0.0,0.0,0.0,0.0,0.0,-2.398,-2.3711,-2.3503,-2.3232,-2.3091,-2.3091,-2.3091,-2.2557,-2.1556,-2.1556,-2.0931,-1.9902,0.0,-2.0264,-2.0489,-2.0693,-2.0896,-2.1061,-2.1167,-2.1205,-2.1177,-2.0984,-2.078,-2.0566,0.0,0.0,0.0,0.0,0.0,0.0,0.0,0.0,0.0,0.0,0.0,0.0,0.0,0.0,0.0,0.0,0.0,0.0,0.0,0.0,-0.9529,-0.9947,-1.1107,-1.2128,-1.2932,-1.3558,-1.4321,-1.5267,-1.5388,-1.5042,-1.4214,-1.1881,-1.0282,-0.9261,-0.8074,-0.7477,-0.7391,-0.7188,-0.7405,-0.791,0.0,0.0,0.0,0.0,0.0,0.0,0.0,0.0,0.0,0.0,0.0,0.0,0.0,0.0,0.0,-2.1463,-2.1851,-2.2247,-2.2247,-2.2375,-2.2599,-2.2979,-2.1946,-2.0792,-2.0404,-2.0151,-2.0141,-2.0493,0.0,0.0,0.0,0.0,0.0,0.0,0.0,0.0,0.0,0.0,0.0,0.0,0.0,0.0,0.0,0.0,0.0,0.0,0.0,0.0,0.0,0.0,0.0,0.0,-2.3851,-2.3624,-2.3416,-2.3188,-2.3091,-2.3091,-2.3091,-2.2557,-2.1598,-2.1649,-2.1103,-2.0147,-2.0342,-2.0537,-2.076,-2.1012,-2.1205,-2.1359,-2.1436,-2.1436,-2.132,-2.1167,-2.0935,-2.0654,0.0,0.0,0.0,0.0,0.0,0.0,0.0,0.0,0.0,0.0,0.0,0.0,0.0,0.0,0.0,0.0,0.0,0.0,0.0,0.0,-0.9704,-1.0165,-1.1267,-1.2459,-1.3681,-1.4138,-1.4914,-1.6005,-1.6161,-1.5585,-1.4363,-1.3158,-1.1889,-1.0543,-0.9576,-0.8829,-0.8289,-0.8086,-0.8151,-0.8395,-0.8949,0.0,0.0,0.0,0.0,0.0,0.0,0.0,0.0,0.0,0.0,0.0,0.0,0.0,-2.1698,-2.1831,-2.2111,-2.2389,-2.2389,-2.2891,-2.3376,-2.3211,-2.2759,-2.2409,-2.2676,-2.2601,-2.2411,-2.2332,0.0,0.0,0.0,0.0,0.0,0.0,0.0,0.0,0.0,0.0,0.0,0.0,0.0,0.0,0.0,0.0,0.0,0.0,0.0,0.0,0.0,0.0,0.0,0.0,0.0,-2.3406,-2.3135,-2.3101,-2.3091,-2.3091,-2.3091,-2.2652,-2.1885,-2.1885,-2.1497,-2.0829,-2.0829,-2.0984,-2.1205,-2.1578,-2.1731,-2.1807,-2.2176,-2.2111,-2.1769,-2.1731,-2.1349,-2.0867,0.0,0.0,0.0,0.0,0.0,0.0,0.0,0.0,0.0,0.0,0.0,0.0,0.0,0.0,0.0,0.0,0.0,0.0,0.0,-0.9157,-0.9873,-1.0296,-1.1429,-1.251,-1.3574,-1.4294,-1.527,-1.6552,-1.6581,-1.6164,-1.5318,-1.4289,-1.3268,-1.2259,-1.1193,-1.0511,-1.0117,-0.9601,-0.9497,-0.9639,-0.9694,-1.0028,0.0,0.0,0.0,0.0,0.0,0.0,0.0,0.0,-1.9059,-1.9388,-2.0868,-2.1517,-2.173,-2.1874,-2.2142,-2.2462,-2.279,-2.3096,-2.3445,-2.4037,-2.3974,-2.3671,-2.3384,-2.3193,-2.3117,-2.3213,-2.3443,0.0,0.0,0.0,0.0,0.0,0.0,0.0,0.0,0.0,0.0,0.0,0.0,0.0,0.0,0.0,0.0,0.0,0.0,0.0,0.0,0.0,0.0,0.0,0.0,-2.3363,-2.3091,-2.3091,-2.3091,-2.3091,-2.2838,-2.2484,-2.2081,-2.1795,-2.1431,-2.1089,-2.1205,-2.1397,-2.1578,-2.1883,-2.2073,-2.2176,-2.2327,-2.2327,-2.2138,-2.1883,-2.1655,-2.1436,0.0,0.0,0.0,0.0,0.0,0.0,0.0,0.0,0.0,0.0,0.0,0.0,0.0,0.0,0.0,0.0,0.0,0.0,-0.8394,-0.9191,-0.9846,-1.0313,-1.1351,-1.2404,-1.3419,-1.4204,-1.5251,-1.6584,-1.6761,-1.6627,-1.6161,-1.5287,-1.4506,-1.3771,-1.2731,-1.2083,-1.1743,-1.1135,-1.0931,-1.097,-1.0814,-1.1009,0.0,0.0,0.0,0.0,0.0,0.0,0.0,0.0,-1.8967,-1.9355,-2.0672,-2.1283,-2.1592,-2.1781,-2.208,-2.2449,-2.2982,-2.3344,-2.375,-2.4584,-2.4955,-2.4962,-2.4441,-2.4163,-2.4096,-2.4459,-2.4711,-2.5084,-2.5835,0.0,0.0,0.0,0.0,0.0,0.0,0.0,0.0,0.0,0.0,0.0,0.0,0.0,0.0,0.0,0.0,0.0,0.0,0.0,0.0,0.0,0.0,-2.3276,-2.3091,-2.3091,-2.3091,-2.3091,-2.2621,-2.2325,-2.2185,-2.1708,-2.146,-2.1397,-2.154,-2.1731,-2.1987,-2.2289,-2.2553,-2.2777,-2.2777,-2.2703,-2.2553,-2.2289,-2.2025,-2.1769,0.0,0.0,0.0,0.0,0.0,0.0,0.0,0.0,0.0,0.0,0.0,0.0,0.0,0.0,0.0,0.0,0.0,0.0,-0.8373,-0.8954,-0.9564,-1.0151,-1.1034,-1.207,-1.3263,-1.3887,-1.4821,-1.6105,-1.6701,-1.6937,-1.679,-1.62,-1.5557,-1.4887,-1.4072,-1.3467,-1.2977,-1.2519,-1.2317,-1.2325,-1.2314,-1.2472,-1.2758,0.0,0.0,0.0,0.0,0.0,0.0,0.0,-1.8431,-1.9156,-2.0087,-2.0745,-2.1253,-2.1592,-2.1949,-2.2306,-2.2847,-2.3636,-2.4357,-2.4728,-2.5618,-2.6336,-2.6142,-2.5788,-2.5646,-2.62,-2.5973,-2.5876,-2.6421,0.0,0.0,0.0,0.0,0.0,0.0,0.0,0.0,0.0,0.0,0.0,0.0,0.0,0.0,0.0,0.0,0.0,0.0,0.0,0.0,0.0,0.0,0.0,-2.3091,-2.3091,-2.3091,-2.3081,-2.2495,-2.2205,-2.2185,-2.1699,-2.1607,-2.1807,-2.1807,-2.2025,-2.244,-2.2852,-2.3224,-2.3593,-2.3593,-2.3372,-2.3001,-2.3001,-2.2515,-2.1807,0.0,0.0,0.0,0.0,0.0,0.0,0.0,0.0,0.0,0.0,0.0,0.0,0.0,0.0,0.0,0.0,0.0,0.0,-0.7899,-0.8464,-0.9003,-0.9399,-1.0536,-1.1477,-1.2172,-1.4008,-1.5421,-1.6321,-1.6917,-1.7117,-1.6927,-1.6655,-1.6299,-1.5863,-1.5444,-1.5051,-1.464,-1.4148,-1.3793,-1.356,-1.3305,-1.3277,-1.3377,0.0,0.0,0.0,0.0,0.0,0.0,0.0,0.0,0.0,-1.9145,-1.9862,-2.0393,-2.0599,-2.1132,-2.1851,-2.2756,-2.3276,0.0,-2.5004,0.0,0.0,0.0,-2.6543,-2.6337,0.0,-2.6429,-2.6393,-2.6909,0.0,0.0,0.0,0.0,0.0,0.0,0.0,0.0,0.0,0.0,0.0,0.0,0.0,0.0,0.0,0.0,0.0,0.0,0.0,0.0,0.0,0.0,0.0,-2.3091,-2.3091,-2.3091,-2.3081,-2.2495,-2.2287,-2.2421,-2.1935,-2.1817,-2.2035,-2.2327,-2.259,-2.2852,-2.3261,-2.3482,-2.3593,-2.3593,-2.353,-2.3372,-2.3113,-2.2852,-2.259,0.0,0.0,0.0,0.0,0.0,0.0,0.0,0.0,0.0,0.0,-0.7205,-0.7002,0.0,0.0,0.0,0.0,0.0,0.0,0.0,-0.7866,-0.8344,-0.8757,-0.9964,-1.108,-1.212,-1.4074,-1.5384,-1.6003,-1.6885,-1.7267,-1.7217,-1.7244,-1.7198,-1.7055,-1.6974,-1.6782,-1.6535,-1.6046,-1.5565,-1.5071,-1.483,-1.4543,-1.4344,0.0,0.0,0.0,0.0,0.0,0.0,0.0,0.0,0.0,-1.8146,-1.8791,-1.9384,-1.9716,-2.0296,-2.1112,-2.2363,-2.2889,0.0,-2.4996,-2.5608,-2.6068,-2.7046,0.0,0.0,0.0,0.0,0.0,0.0,0.0,0.0,0.0,0.0,0.0,0.0,0.0,0.0,0.0,0.0,0.0,0.0,0.0,0.0,0.0,0.0,0.0,0.0,0.0,0.0,0.0,0.0,0.0,-2.3091,-2.3091,-2.3091,-2.3081,-2.2569,-2.2359,-2.2493,-2.2027,-2.1959,-2.2252,-2.2628,-2.2964,-2.3261,-2.3482,-2.3677,-2.3824,-2.3824,-2.3787,-2.3677,-2.3446,-2.3224,-2.2964,0.0,0.0,0.0,0.0,0.0,0.0,0.0,0.0,0.0,0.0,-0.6963,-0.6692,0.0,0.0,0.0,0.0,0.0,0.0,0.0,0.0,-0.761,-0.8143,-0.9349,-1.0844,-1.2686,-1.4062,-1.4976,-1.5392,-1.6651,-1.7373,-1.7573,-1.7873,-1.8104,-1.8298,-1.849,-1.8505,-1.8334,-1.8026,-1.745,-1.6758,-1.6558,-1.6089,-1.5498,-1.543,0.0,0.0,0.0,0.0,0.0,0.0,0.0,0.0,-1.7091,-1.7564,-1.8213,-1.8857,-1.9438,-2.018,-2.1677,-2.248,0.0,-2.4786,-2.5759,0.0,-2.7313,-2.7482,0.0,0.0,0.0,0.0,0.0,0.0,0.0,0.0,0.0,0.0,0.0,0.0,0.0,0.0,0.0,0.0,0.0,0.0,0.0,0.0,0.0,0.0,0.0,0.0,0.0,0.0,0.0,0.0,-2.3144,-2.3135,-2.3135,0.0,-2.2777,-2.2583,-2.2553,-2.2048,-2.2035,-2.244,-2.2852,-2.3261,-2.3593,-2.3641,-2.3861,-2.42,-2.42,-2.408,-2.3934,-2.3897,-2.3519,-2.3038,0.0,0.0,0.0,0.0,0.0,0.0,0.0,0.0,0.0,0.0,0.0,0.0,0.0,0.0,0.0,0.0,0.0,0.0,0.0,0.0,-0.67,-0.717,-0.8953,-1.0652,-1.223,-1.3717,-1.4767,-1.5325,-1.6503,-1.7414,-1.8054,-1.8125,-1.8448,-1.9004,-1.9015,-1.8969,-1.8838,-1.8778,-1.844,-1.7879,-1.732,-1.6786,-1.6267,-1.5625,-1.5371,0.0,0.0,0.0,0.0,0.0,0.0,0.0,-1.5723,-1.6178,-1.6748,-1.7606,-1.827,-1.9104,-2.0812,-2.1583,0.0,0.0,-2.5854,-2.6874,-2.7214,-2.726,0.0,0.0,0.0,0.0,0.0,0.0,0.0,0.0,0.0,0.0,0.0,0.0,0.0,0.0,0.0,0.0,0.0,0.0,0.0,0.0,0.0,0.0,0.0,0.0,0.0,0.0,0.0,-2.358,-2.3416,-2.358,-2.358,0.0,-2.334,-2.3296,-2.3256,-2.2426,-2.2252,-2.2665,-2.3075,-2.3372,-2.3593,-2.3787,-2.397,-2.42,-2.42,-2.4164,-2.4127,-2.397,-2.3714,-2.342,0.0,0.0,0.0,0.0,0.0,0.0,0.0,0.0,0.0,0.0,0.0,0.0,0.0,0.0,0.0,0.0,0.0,0.0,0.0,0.0,-0.6328,-0.7384,-0.8746,-1.0182,-1.1726,-1.3309,-1.4466,-1.5195,-1.6684,-1.7744,-1.8457,-1.8762,-1.9322,-2.0021,-2.0274,-2.0285,-2.014,-2.009,-1.9689,-1.9056,-1.852,-1.7818,-1.7042,-1.6277,-1.5732,-1.5335,-1.4918,0.0,0.0,0.0,0.0,0.0,0.0,0.0,-1.5232,-1.6119,-1.6941,-1.7914,-1.9346,0.0,0.0,-2.4194,0.0,-2.6474,-2.6835,-2.6891,0.0,0.0,0.0,0.0,0.0,0.0,0.0,0.0,0.0,0.0,0.0,0.0,0.0,0.0,0.0,0.0,0.0,0.0,0.0,0.0,0.0,0.0,0.0,0.0,0.0,0.0,-2.3884,-2.3754,-2.3624,-2.3754,-2.3754,-2.3624,-2.3568,-2.3452,-2.334,-2.272,-2.2666,-2.3037,-2.3025,-2.3187,-2.3482,-2.3666,-2.3861,-2.408,-2.4164,-2.42,-2.42,-2.408,-2.3934,-2.3703,0.0,0.0,0.0,0.0,0.0,0.0,0.0,0.0,0.0,0.0,0.0,0.0,0.0,0.0,0.0,0.0,0.0,0.0,0.0,0.0,0.0,-0.7841,-0.8537,-0.9652,-1.1233,-1.2881,-1.4181,-1.5107,-1.6959,-1.8242,-1.8983,-1.9598,-2.0284,-2.1101,-2.1561,-2.1675,-2.1526,-2.138,-2.0885,-2.0197,-1.9702,-1.8888,-1.7812,-1.6921,-1.6155,-1.5498,-1.4676,-1.4008,-1.3531,-1.3338,0.0,0.0,0.0,0.0,-1.3753,-1.4693,-1.5648,-1.6661,-1.7878,0.0,-2.1559,-2.4084,-2.5214,0.0,-2.6449,0.0,0.0,0.0,0.0,0.0,0.0,0.0,0.0,0.0,0.0,0.0,0.0,0.0,0.0,0.0,0.0,0.0,0.0,0.0,0.0,0.0,0.0,0.0,0.0,0.0,-2.4368,-2.4368,-2.4143,-2.4013,-2.4013,-2.4013,-2.397,-2.3927,-2.3734,-2.3576,-2.3401,-2.3095,-2.316,-2.3406,-2.2999,-2.3009,-2.3382,-2.3479,-2.3677,-2.3934,-2.408,-2.4164,-2.42,-2.42,-2.408,-2.3861,0.0,0.0,0.0,0.0,0.0,0.0,0.0,0.0,0.0,0.0,0.0,0.0,0.0,0.0,0.0,0.0,0.0,0.0,0.0,0.0,0.0,-0.7447,-0.8132,-0.9182,-1.0678,-1.252,-1.3995,-1.5107,-1.72,-1.8844,-2.0006,-2.0397,-2.0984,-2.1799,-2.2025,-2.2135,-2.2092,-2.1894,-2.1596,-2.1135,-2.0274,-1.948,-1.867,-1.7043,-1.6085,-1.5468,-1.4294,-1.3478,-1.2859,-1.2438,-1.197,0.0,0.0,0.0,-1.2546,-1.3601,-1.4533,-1.5546,-1.7035,0.0,-2.1935,0.0,-2.4774,-2.5499,0.0,0.0,0.0,0.0,0.0,0.0,0.0,0.0,0.0,0.0,0.0,0.0,0.0,0.0,0.0,0.0,0.0,0.0,0.0,0.0,0.0,0.0,0.0,0.0,0.0,-2.5338,-2.5073,-2.5073,-2.5031,-2.4946,-2.4733,-2.4733,-2.4658,-2.4411,-2.4392,-2.433,-2.4301,-2.394,-2.3678,-2.3471,-2.3377,-2.3443,-2.364,-2.3438,-2.3567,-2.3897,-2.3934,-2.4043,-2.42,-2.42,-2.408,-2.3861,0.0,0.0,0.0,0.0,0.0,0.0,0.0,0.0,0.0,0.0,0.0,0.0,0.0,0.0,0.0,0.0,0.0,0.0,0.0,0.0,0.0,-0.7248,-0.792,-0.8909,-1.0228,-1.2192,-1.3868,-1.5275,-1.7496,-1.9433,-2.1126,-2.1913,-2.244,-2.28,-2.3198,-2.3364,-2.3364,-2.3192,-2.2819,-2.2234,-2.1522,-2.0653,-1.9629,-1.8134,-1.6913,-1.5829,-1.4586,-1.3451,-1.2427,-1.1768,-1.1213,-1.0788,-1.0823,0.0,0.0,0.0,-1.313,-1.4337,-1.6668,-1.8948,-2.1015,0.0,-2.376,-2.481,0.0,0.0,0.0,0.0,0.0,0.0,0.0,0.0,0.0,0.0,0.0,0.0,0.0,0.0,0.0,0.0,0.0,0.0,0.0,0.0,0.0,0.0,0.0,0.0,-2.6152,-2.5797,-2.5477,-2.52,-2.52,-2.5158,-2.5073,-2.5073,-2.4988,-2.4914,-2.4914,-2.4828,-2.4733,-2.4545,-2.4242,-2.3864,-2.3316,-2.3232,-2.3497,-2.3235,-2.3372,-2.374,-2.3861,-2.408,-2.4345,-2.4236,-2.4236,-2.42,0.0,0.0,0.0,0.0,0.0,0.0,0.0,0.0,0.0,0.0,0.0,0.0,0.0,0.0,0.0,0.0,0.0,0.0,0.0,0.0,0.0,-0.7249,-0.7835,-0.8712,-0.9884,-1.1871,-1.3708,-1.5345,-1.7712,-1.9874,-2.1886,-2.3184,-2.3894,-2.4131,-2.4424,-2.4549,-2.4549,-2.4373,-2.3945,-2.3365,-2.2778,-2.1843,-2.0661,-1.9318,-1.7916,-1.6482,-1.5029,-1.3617,-1.2314,-1.1461,-1.0694,-1.0077,-0.9975,-1.0037,0.0,0.0,0.0,0.0,0.0,0.0,-1.9705,-2.1357,-2.2692,-2.3802,0.0,0.0,0.0,0.0,0.0,0.0,0.0,0.0,0.0,0.0,0.0,0.0,0.0,0.0,0.0,0.0,0.0,0.0,0.0,0.0,0.0,0.0,0.0,0.0,-2.6563,-2.6249,-2.5873,-2.5391,-2.538,-2.538,-2.538,-2.5327,-2.5285,-2.52,-2.52,-2.5115,-2.4988,-2.4988,-2.4703,-2.424,-2.3379,-2.3179,-2.3477,-2.3064,-2.3187,-2.3593,-2.3787,-2.408,-2.4418,-2.4309,-2.4345,-2.4381,0.0,0.0,0.0,0.0,0.0,0.0,0.0,0.0,0.0,0.0,0.0,0.0,-0.9323,-0.9714,-1.0006,-1.0328,0.0,0.0,0.0,0.0,0.0,-0.7498,-0.7812,0.0,-0.9607,-1.1585,-1.3479,-1.52,-1.7759,-2.0015,-2.2042,-2.3735,-2.4988,-2.5742,-2.5396,-2.5243,-2.5231,-2.4898,-2.4661,-2.4454,-2.3743,-2.2838,-2.1747,-2.0282,-1.8854,-1.7382,-1.5529,-1.4026,-1.2738,-1.1728,-1.0552,-0.9515,-0.9322,-0.9301,-0.9472,0.0,0.0,0.0,0.0,-1.7135,0.0,-2.0715,-2.1675,0.0,0.0,0.0,0.0,0.0,0.0,0.0,0.0,0.0,0.0,0.0,0.0,0.0,0.0,0.0,0.0,0.0,0.0,0.0,0.0,0.0,0.0,0.0,0.0,0.0,-2.726,-2.6824,-2.6355,-2.5875,-2.5853,-2.5853,-2.5853,-2.5686,-2.5464,-2.52,-2.52,-2.52,-2.52,-2.52,-2.4914,-2.4468,-2.3766,-2.3585,-2.3711,-2.3015,-2.3075,-2.3593,-2.3593,-2.3861,-2.4236,-2.4418,-2.4381,-2.42,0.0,0.0,0.0,0.0,0.0,0.0,0.0,0.0,0.0,0.0,0.0,0.0,0.0,-1.0651,-1.1117,-1.131,-1.1056,0.0,0.0,0.0,0.0,-0.8104,-0.8356,-0.8911,-0.9767,-1.1499,-1.3568,-1.5899,-1.7894,-2.0284,-2.3054,-2.4221,-2.5428,-2.6603,-2.6465,-2.6396,-2.6363,-2.6263,-2.5861,-2.5269,-2.4734,-2.3805,-2.2643,-2.1565,0.0,0.0,0.0,0.0,0.0,-1.2472,-1.1338,-1.0263,-0.9506,-0.919,-0.925,-1.0001,-1.1458,0.0,0.0,0.0,0.0,-1.8769,-2.0303,0.0,0.0,0.0,0.0,0.0,0.0,0.0,0.0,0.0,0.0,0.0,0.0,0.0,0.0,0.0,0.0,0.0,0.0,0.0,0.0,0.0,0.0,0.0,0.0,0.0,-2.7337,-2.6987,-2.66,-2.6126,-2.6271,-2.6271,-2.6104,-2.6032,-2.5853,-2.5633,-2.5633,-2.5591,-2.5464,-2.5464,-2.5092,-2.4468,-2.3909,-2.3658,-2.3513,-2.2934,-2.3075,-2.3593,-2.3593,-2.3934,-2.4381,-2.4345,-2.4345,-2.4381,0.0,0.0,0.0,0.0,0.0,0.0,0.0,0.0,0.0,0.0,0.0,0.0,0.0,0.0,-1.2298,-1.2751,-1.2433,-1.1764,-1.0739,-1.0221,-0.9581,-0.8805,-0.8991,-0.9407,-1.005,-1.1648,-1.3687,-1.6116,-1.7905,-2.0415,-2.3504,-2.4471,-2.5641,-2.7024,-2.734,-2.7464,-2.7464,-2.7396,0.0,-2.6658,0.0,0.0,-2.3936,0.0,0.0,0.0,0.0,0.0,0.0,0.0,0.0,-1.0992,-0.9983,-0.9451,-0.9271,-0.9818,-1.0946,0.0,-1.3219,0.0,0.0,0.0,0.0,0.0,0.0,0.0,0.0,0.0,0.0,0.0,0.0,0.0,0.0,0.0,0.0,0.0,0.0,0.0,0.0,0.0,0.0,0.0,0.0,0.0,0.0,0.0,0.0,0.0,-2.7184,-2.7017,-2.6716,-2.6335,-2.652,-2.652,-2.6365,-2.624,-2.6146,-2.5979,-2.5937,-2.5822,-2.5686,-2.5686,-2.5267,-2.4489,-2.4167,-2.3788,-2.3343,-2.2897,-2.3001,-2.3519,-2.3556,-2.3897,-2.4309,-2.4309,-2.4345,-2.4381,0.0,0.0,0.0,0.0,0.0,0.0,0.0,0.0,0.0,-0.9373,0.0,0.0,0.0,0.0,0.0,-1.4614,-1.4395,-1.3607,-1.215,-1.1536,-1.0732,-0.9596,0.0,0.0,0.0,-1.199,-1.3818,-1.5802,-1.7835,-2.0364,-2.3325,-2.4406,-2.5641,-2.7037,-2.7967,-2.8386,-2.8399,0.0,-2.8366,-2.8602,0.0,-2.6685,-2.5616,0.0,0.0,0.0,-1.9393,-1.7818,0.0,0.0,0.0,0.0,0.0,-0.9979,-0.9488,-0.9513,-1.0258,0.0,0.0,0.0,0.0,0.0,0.0,0.0,0.0,0.0,0.0,0.0,0.0,0.0,0.0,0.0,0.0,0.0,0.0,0.0,0.0,0.0,0.0,0.0,0.0,0.0,0.0,0.0,0.0,0.0,0.0,-2.7173,-2.6917,-2.6915,-2.6821,-2.6614,-2.6603,-2.6603,-2.6603,-2.6354,-2.6199,-2.6199,-2.599,-2.5895,-2.5895,-2.5895,-2.5382,-2.4486,-2.4486,-2.4074,-2.336,-2.2897,-2.2927,-2.3335,-2.3519,-2.3714,-2.3956,-2.4332,-2.438,-2.4246,0.0,0.0,0.0,0.0,0.0,0.0,0.0,0.0,-1.0683,0.0,0.0,0.0,-1.3324,-1.4011,-1.4611,-1.5033,-1.4625,-1.4016,-1.3208,-1.2552,-1.1768,-1.0783,-1.0585,-1.0695,-1.1101,-1.2568,-1.4317,-1.6391,-1.8311,-2.0628,-2.3325,-2.423,-2.5496,-2.7037,-2.7829,-2.8495,-2.9039,-2.8827,0.0,-2.8641,-2.8079,-2.7444,0.0,0.0,0.0,0.0,0.0,-1.9429,0.0,0.0,-1.4494,-1.2633,0.0,0.0,-0.9528,-0.9615,-0.9933,0.0,-1.148,0.0,0.0,0.0,0.0,0.0,0.0,0.0,0.0,0.0,0.0,0.0,0.0,0.0,0.0,0.0,0.0,0.0,0.0,0.0,0.0,0.0,0.0,0.0,0.0,0.0,0.0,0.0,-2.7118,-2.6984,-2.6895,-2.69,-2.6945,-2.7026,-2.7015,-2.6974,-2.6809,-2.6603,-2.6396,-2.6199,-2.599,-2.5895,-2.5895,-2.5895,-2.5382,-2.4486,-2.4486,-2.3956,-2.3112,-2.2981,-2.3075,-2.3298,-2.3372,-2.3705,-2.4217,-2.4292,-2.4544,-2.4799,0.0,0.0,0.0,0.0,0.0,0.0,0.0,0.0,-1.2548,0.0,0.0,0.0,-1.4824,-1.5575,-1.6008,-1.6156,-1.5713,-1.5081,-1.4251,-1.3685,-1.2942,-1.1952,-1.1826,-1.1963,-1.2344,-1.3582,-1.5101,-1.6924,-1.8818,-2.0967,-2.3325,-2.4418,-2.5644,-2.6914,-2.7914,-2.8595,-2.9051,0.0,0.0,0.0,-2.8795,0.0,0.0,-2.6523,-2.537,0.0,0.0,0.0,-1.9078,-1.748,-1.5423,0.0,0.0,0.0,0.0,0.0,0.0,0.0,0.0,0.0,0.0,0.0,0.0,0.0,0.0,-1.7253,0.0,0.0,0.0,0.0,0.0,0.0,0.0,0.0,0.0,0.0,0.0,0.0,0.0,0.0,0.0,0.0,0.0,0.0,0.0,0.0,-2.6592,-2.6554,-2.6765,-2.6926,-2.7067,-2.719,-2.719,-2.7149,-2.7026,-2.6727,-2.652,-2.6354,-2.6074,-2.5895,-2.5895,-2.5895,-2.548,-2.477,-2.477,-2.4334,-2.3624,-2.3624,-2.3569,-2.3468,-2.378,-2.411,-2.4481,-2.4558,-2.4775,-2.501,0.0,0.0,0.0,0.0,0.0,0.0,0.0,0.0,0.0,0.0,-1.4979,-1.556,-1.6561,-1.7205,-1.7559,-1.7559,-1.7183,-1.6441,-1.5297,-1.4889,-1.4281,-1.3271,-1.3289,-1.3512,-1.389,-1.4856,-1.6081,-1.757,-1.9425,-2.136,-2.3431,-2.474,-2.587,-2.6819,0.0,0.0,0.0,0.0,0.0,-3.0279,-2.9542,-2.8887,0.0,0.0,-2.6283,0.0,-2.3768,-2.236,-2.0739,-1.8373,-1.5981,0.0,0.0,0.0,0.0,0.0,-0.9486,0.0,0.0,0.0,0.0,0.0,0.0,0.0,-1.4608,-1.5617,-1.6562,0.0,0.0,0.0,0.0,0.0,0.0,0.0,0.0,0.0,0.0,0.0,0.0,0.0,0.0,0.0,0.0,0.0,-2.5819,-2.5819,-2.5915,-2.6188,-2.6603,-2.6974,-2.719,-2.719,-2.719,-2.719,-2.719,-2.6809,-2.6603,-2.6592,-2.6104,-2.5895,-2.5895,-2.5895,-2.5633,-2.5215,-2.5175,-2.4912,-2.4447,-2.4512,-2.4189,-2.3814,-2.4414,-2.4651,-2.4695,-2.4903,-2.4965,-2.5009,0.0,0.0,0.0,0.0,0.0,0.0,0.0,0.0,-1.7334,-1.7153,-1.7483,-1.7905,-1.8291,-1.8018,-1.7858,-1.798,-1.7512,-1.7029,-1.6558,-1.623,-1.5815,-1.5343,-1.4863,-1.4823,-1.5213,-1.5848,-1.6997,-1.8701,-2.0181,-2.1936,-2.3895,-2.4767,-2.589,-2.7213,0.0,0.0,0.0,0.0,0.0,-3.0139,-2.9807,0.0,-2.8883,-2.8151,-2.7296,-2.6306,-2.5115,-2.3743,-2.1929,0.0,-1.6649,-1.5137,0.0,0.0,0.0,0.0,0.0,0.0,0.0,0.0,0.0,0.0,0.0,0.0,-1.3268,-1.4032,-1.468,0.0,0.0,0.0,0.0,0.0,0.0,0.0,0.0,0.0,0.0,0.0,0.0,0.0,0.0,0.0,0.0,0.0,-2.5153,-2.5317,-2.6049,-2.6561,-2.6809,-2.7067,-2.719,-2.719,-2.719,-2.719,-2.719,-2.6809,-2.6603,-2.6592,-2.6104,-2.5895,-2.5895,-2.5895,-2.5633,-2.5175,-2.499,-2.4608,-2.418,-2.4405,-2.4317,-2.4047,-2.4173,-2.4374,-2.4545,-2.4585,-2.4863,-2.5163,0.0,0.0,0.0,0.0,0.0,0.0,0.0,0.0,-1.9225,-1.9418,-1.9793,-1.9987,-1.9847,-1.987,-1.9883,-1.9844,-1.9187,-1.8644,-1.8234,-1.774,-1.724,-1.6776,-1.665,-1.6749,-1.7051,-1.7691,-1.8666,-1.992,-2.131,-2.2673,-2.4013,-2.5026,-2.6109,0.0,0.0,0.0,0.0,0.0,-3.0098,-3.0325,-2.9943,0.0,-2.9067,-2.8602,-2.7804,-2.6839,-2.6085,-2.4365,-2.2168,-2.0009,-1.8165,0.0,0.0,-1.3467,-1.2397,0.0,-1.0254,-0.973,0.0,0.0,0.0,-1.0073,0.0,0.0,0.0,-1.236,-1.302,0.0,0.0,0.0,0.0,0.0,0.0,0.0,0.0,0.0,0.0,0.0,0.0,0.0,0.0,0.0,0.0,0.0,-2.4613,-2.4836,-2.5599,-2.6151,-2.6355,-2.6808,-2.7108,-2.719,-2.719,-2.7149,-2.7067,-2.6768,-2.652,-2.6396,-2.5948,-2.5728,-2.5728,-2.5591,-2.5419,-2.5182,-2.5057,-2.4887,-2.4653,-2.4681,-2.4524,-2.4313,-2.455,-2.4658,-2.4703,-2.4703,-2.4746,-2.485,0.0,0.0,0.0,0.0,0.0,0.0,0.0,0.0,-2.1352,-2.1917,-2.2105,-2.1997,-2.1649,-2.196,-2.2145,-2.1928,-2.1228,-2.059,0.0,0.0,0.0,-1.8382,-1.8592,-1.8816,-1.8944,-1.9588,-2.0319,-2.1076,-2.2382,-2.3407,0.0,0.0,0.0,0.0,0.0,0.0,0.0,0.0,0.0,-3.0733,0.0,-2.9818,-2.941,-2.9239,-2.8483,-2.7453,-2.6788,-2.492,-2.2562,-2.1553,0.0,-1.7897,-1.6191,-1.4792,0.0,0.0,0.0,0.0,0.0,0.0,0.0,0.0,0.0,-0.9766,0.0,0.0,0.0,-1.2095,0.0,0.0,0.0,0.0,0.0,0.0,0.0,0.0,0.0,0.0,0.0,0.0,0.0,0.0,0.0,0.0,-2.4061,-2.4425,-2.5025,-2.548,-2.5742,-2.6407,-2.6871,-2.7138,-2.719,-2.7097,-2.6891,-2.6685,-2.6479,-2.6199,-2.577,-2.5601,-2.5601,-2.5338,-2.52,-2.52,-2.5115,-2.5073,-2.5031,-2.4775,-2.4572,-2.4411,-2.4828,-2.4861,-2.469,-2.4647,-2.4466,-2.4284,-1.8743,-1.9505,0.0,0.0,0.0,0.0,0.0,0.0,-2.473,-2.5214,-2.4637,-2.4157,-2.4118,0.0,0.0,0.0,0.0,0.0,-2.1997,0.0,0.0,0.0,0.0,0.0,-2.0532,-2.0643,-2.1144,-2.2121,0.0,0.0,0.0,0.0,0.0,0.0,-2.8226,0.0,0.0,0.0,-3.0821,0.0,-3.1235,-3.0979,0.0,-3.0593,-2.9994,-2.8925,-2.7408,-2.5876,-2.4325,0.0,-2.1293,-1.9897,0.0,-1.5983,0.0,0.0,0.0,0.0,0.0,0.0,0.0,0.0,-0.9368,0.0,0.0,0.0,-1.0117,-1.0414,0.0,0.0,0.0,0.0,0.0,0.0,0.0,0.0,0.0,0.0,0.0,0.0,0.0,0.0,0.0,0.0,0.0,-2.4191,-2.4616,-2.5074,-2.5518,-2.5988,-2.6467,-2.6921,-2.7108,-2.7097,-2.6891,-2.6685,-2.6479,-2.6199,-2.577,-2.5601,-2.5601,-2.5338,-2.52,-2.52,-2.4743,-2.4583,-2.454,-2.41,-2.3927,-2.3927,-2.4196,-2.4143,-2.3874,-2.3711,-2.3634,-2.358,-1.8677,-1.9616,0.0,0.0,0.0,0.0,0.0,0.0,-2.6381,-2.6349,-2.6516,-2.6508,0.0,0.0,0.0,0.0,0.0,-2.4768,0.0,0.0,0.0,0.0,0.0,0.0,0.0,-2.2205,-2.2513,-2.2878,-2.3471,0.0,0.0,0.0,0.0,0.0,-2.872,0.0,-3.0633,0.0,0.0,0.0,0.0,0.0,0.0,-3.1023,-3.0224,-2.9261,-2.8004,-2.6757,-2.5489,0.0,-2.2634,0.0,0.0,0.0,0.0,0.0,0.0,0.0,0.0,0.0,0.0,0.0,0.0,0.0,0.0,0.0,-0.9411,0.0,0.0,0.0,0.0,0.0,0.0,0.0,0.0,0.0,0.0,0.0,0.0,0.0,0.0,0.0,0.0,0.0,0.0,0.0,0.0,-2.3908,-2.4497,-2.5071,-2.5649,-2.6235,-2.6339,-2.6434,-2.6479,-2.6396,-2.6188,-2.5853,-2.5506,-2.5295,-2.5168,-2.4914,-2.4743,-2.4615,-2.4411,-2.4239,-2.4057,-2.3764,-2.3634,-2.3624,-2.358,-2.3493,-2.3406,-2.3319,-2.3013,-2.2662,-1.8754,0.0,0.0,0.0,0.0,0.0,0.0,0.0,0.0,0.0,0.0,0.0,-2.8263,-2.8778,0.0,0.0,0.0,-2.7118,0.0,0.0,-2.5015,0.0,0.0,0.0,0.0,0.0,0.0,-2.3771,-2.4194,-2.4872,0.0,0.0,0.0,0.0,0.0,-3.0017,-3.0859,0.0,0.0,-3.2466,-3.2616,-3.2717,-3.272,-3.1412,-3.0392,-2.9519,-2.8773,-2.7804,-2.6696,-2.5661,-2.413,0.0,-2.1291,0.0,0.0,0.0,0.0,0.0,-1.3047,0.0,0.0,0.0,0.0,0.0,0.0,0.0,0.0,0.0,0.0,0.0,0.0,0.0,0.0,0.0,0.0,0.0,0.0,0.0,0.0,0.0,0.0,0.0,0.0,0.0,0.0,0.0,-2.204,-2.2772,-2.3504,-2.4178,-2.482,-2.5478,-2.5581,-2.5679,-2.5831,-2.5923,-2.5782,-2.5355,-2.5274,-2.5073,-2.4903,-2.4615,-2.4411,-2.4292,-2.4196,-2.4067,-2.3894,-2.3667,-2.359,-2.3547,-2.3319,-2.3144,-2.3091,-2.296,-2.2618,-2.2141,-1.9043,-2.0222,0.0,0.0,0.0,0.0,0.0,0.0,0.0,0.0,0.0,0.0,0.0,0.0,0.0,0.0,0.0,-2.9508,-2.9029,0.0,-2.7561,0.0,0.0,0.0,0.0,0.0,-2.4781,-2.5027,-2.5465,-2.585,0.0,0.0,0.0,0.0,0.0,-3.0509,-3.1399,-3.1951,-3.2516,-3.3136,-3.3633,-3.3874,-3.3747,0.0,-3.0805,-3.0138,-2.9864,0.0,0.0,-2.6738,-2.5902,0.0,0.0,0.0,0.0,0.0,0.0,0.0,0.0,0.0,0.0,-1.2007,0.0,0.0,0.0,0.0,-0.9349,0.0,0.0,0.0,0.0,0.0,0.0,0.0,0.0,0.0,0.0,0.0,0.0,0.0,0.0,0.0,0.0,0.0,0.0,-2.0435,-2.1151,-2.1919,-2.2799,-2.3455,-2.4156,-2.4808,-2.5016,-2.5027,-2.4853,-2.5289,-2.5308,-2.4848,-2.5102,-2.5073,-2.4903,-2.4615,-2.4497,-2.4497,-2.4282,-2.4206,-2.4163,-2.3884,-2.3797,-2.3754,-2.358,-2.3319,-2.3047,-2.2564,-2.2397,-2.2309,0.0,0.0,0.0,0.0,0.0,0.0,0.0,-3.0368,0.0,0.0,0.0,0.0,0.0,0.0,-3.1981,0.0,0.0,-3.0785,-3.0346,-2.9591,0.0,0.0,0.0,-2.6313,0.0,0.0,-2.488,-2.4651,-2.5083,0.0,0.0,0.0,0.0,0.0,0.0,-3.1055,0.0,0.0,0.0,0.0,0.0,-3.4123,-3.3915,0.0,0.0,-3.1374,-3.0775,-2.9964,0.0,-2.8019,-2.6877,-2.5703,-2.4791,-2.3369,-2.181,-2.0644,-1.9392,0.0,0.0,0.0,-1.4588,-1.3857,0.0,0.0,0.0,0.0,0.0,0.0,0.0,0.0,0.0,0.0,0.0,0.0,0.0,0.0,0.0,0.0,0.0,0.0,0.0,0.0,0.0,0.0,0.0,-1.8976,-1.986,-2.077,0.0,-2.2168,-2.287,-2.3824,-2.3934,-2.4176,-2.4583,-2.4759,-2.4748,-2.4602,-2.4679,-2.4703,-2.4615,-2.454,-2.4411,-2.4282,-2.4249,-2.411,-2.3937,-2.3841,-2.3797,-2.3797,-2.3711,-2.3624,-2.3493,-2.2706,-2.222,-2.1857,-1.9984,0.0,0.0,0.0,0.0,0.0,0.0,0.0,0.0,0.0,-3.3047,0.0,-3.3158,0.0,-3.3154,0.0,-3.2455,-3.1945,-3.1459,-3.0748,0.0,-2.9334,-2.8259,0.0,0.0,0.0,0.0,-2.4927,0.0,-2.6046,0.0,0.0,0.0,0.0,0.0,0.0,0.0,0.0,-3.401,0.0,0.0,-3.4555,0.0,0.0,-3.324,-3.2293,0.0,-3.0794,-3.004,-2.9009,-2.8002,-2.698,-2.6234,-2.4986,-2.3637,-2.248,-2.1331,-2.0169,-1.9003,-1.7806,0.0,-1.5808,-1.4914,0.0,-1.3257,0.0,0.0,0.0,0.0,0.0,0.0,0.0,0.0,0.0,0.0,0.0,0.0,-1.0352,0.0,0.0,0.0,0.0,0.0,0.0,-1.6967,-1.7915,-1.8744,-1.9643,0.0,0.0,-2.1903,-2.2773,-2.2966,-2.3279,-2.3768,-2.3941,-2.4057,-2.4163,-2.4291,-2.4441,-2.4497,-2.4497,-2.4411,-2.4292,-2.4292,-2.4196,-2.4057,-2.4057,-2.4057,-2.4057,-2.397,-2.3937,-2.3851,-2.2969,-2.2349,-2.1844,0.0,0.0,0.0,0.0,-2.7401,0.0,0.0,0.0,-3.36,0.0,-3.3918,-3.4118,-3.4118,-3.3722,-3.3479,-3.3479,-3.3303,0.0,-3.2518,-3.181,0.0,0.0,-2.9111,-2.8014,-2.708,0.0,0.0,0.0,0.0,0.0,0.0,0.0,0.0,0.0,-3.1122,0.0,-3.3156,-3.3709,-3.4274,-3.4806,-3.4823,-3.5166,-3.5512,-3.503,-3.4055,-3.2875,-3.2076,-3.1633,-3.1182,-2.976,-2.926,-2.8923,-2.7259,-2.6214,-2.5462,-2.4575,-2.3085,-2.166,-2.1225,-2.0187,-1.8954,-1.7832,0.0,0.0,0.0,0.0,-1.306,0.0,0.0,0.0,0.0,0.0,0.0,0.0,0.0,0.0,0.0,0.0,0.0,0.0,0.0,0.0,0.0,-1.5062,-1.5729,-1.7184,-1.7772,-1.8554,0.0,0.0,-2.1267,-2.1653,-2.2099,-2.2344,-2.2402,-2.2849,-2.32,-2.3475,-2.3948,-2.4284,-2.4466,-2.4487,-2.4497,-2.4497,-2.4497,-2.4497,-2.4497,-2.4497,-2.4497,-2.4497,-2.4292,-2.4217,-2.4151,-2.3392,-2.2815,-2.2272,-2.2621,-2.4785,-2.714,0.0,-3.0294,-3.136,0.0,0.0,0.0,0.0,-3.4277,-3.4314,-3.4314,-3.4281,-3.4293,-3.4293,-3.4281,0.0,0.0,0.0,0.0,-3.1653,-3.0281,-2.906,-2.8077,-2.7403,0.0,-2.6736,0.0,0.0,-2.8395,0.0,0.0,0.0,0.0,0.0,-3.3721,-3.4274,-3.5064,-3.5956,-3.5789,-3.5641,0.0,0.0,-3.4655,-3.3909,-3.3148,-3.2324,-3.1505,-3.079,-2.9931,-2.9136,-2.8687,-2.7522,-2.6257,-2.5704,-2.4602,-2.3428,-2.3003,-2.1924,-2.084,-2.022,-1.9335,-1.8207,0.0,0.0,0.0,0.0,0.0,0.0,0.0,0.0,0.0,0.0,0.0,0.0,0.0,0.0,0.0,0.0,0.0,0.0,0.0,-1.4642,-1.5278,-1.567,-1.6854,-1.7862,0.0,0.0,0.0,-2.1298,-2.1434,-2.1802,-2.2402,-2.253,-2.2713,-2.2993,-2.3465,-2.3804,-2.4053,-2.4342,-2.4497,-2.4497,-2.4497,-2.4497,-2.4497,-2.4497,-2.4497,-2.4497,-2.4454,-2.44,-2.4344,-2.3801,-2.3298,-2.2823,-2.4113,0.0,0.0,-3.1326,0.0,0.0,-3.3197,0.0,0.0,-3.4711,-3.4789,0.0,-3.5014,-3.4981,-3.4924,-3.4849,-3.4774,0.0,0.0,0.0,0.0,-3.2666,-3.1483,-3.0308,-2.9139,-2.8442,0.0,-2.7304,0.0,0.0,-2.8896,0.0,0.0,0.0,0.0,-3.3021,0.0,-3.5102,-3.5759,-3.6193,-3.5955,0.0,0.0,-3.5126,-3.4775,-3.4348,-3.382,-3.2887,-3.1786,-3.1217,-3.0388,-2.9589,-2.9283,-2.852,-2.7577,-2.6707,-2.581,-2.499,-2.4313,-2.3443,-2.2569,-2.1935,-2.1123,-2.0166,-1.8867,-1.7961,-1.7042,0.0,0.0,0.0,0.0,0.0,0.0,0.0,0.0,0.0,0.0,0.0,0.0,0.0,0.0,0.0,0.0,-1.4053,-1.4695,-1.5053,-1.6055,-1.6994,0.0,0.0,0.0,-2.0309,-2.0718,-2.1158,-2.163,-2.178,-2.2035,-2.2422,-2.2836,-2.3299,-2.3762,-2.4163,-2.4421,-2.4497,-2.4411,-2.4378,-2.4368,-2.4239,-2.4186,-2.4186,-2.4186,-2.4365,-2.4571,-2.4199,-2.3828,-2.3521,0.0,0.0,0.0,0.0,0.0,0.0,0.0,-3.4283,0.0,-3.5338,0.0,-3.5513,-3.5758,-3.564,-3.5411,-3.5212,0.0,-3.4961,-3.479,-3.4514,-3.4142,-3.3592,-3.2759,-3.1669,-3.0285,-2.9733,0.0,0.0,0.0,0.0,0.0,0.0,0.0,0.0,0.0,0.0,0.0,-3.5931,-3.6181,0.0,-3.5668,-3.5416,-3.5175,-3.4872,-3.458,-3.4347,-3.4113,-3.3235,-3.2087,-3.1366,-3.0767,-3.0193,-2.9521,-2.9238,-2.8867,-2.7498,-2.6747,-2.6135,-2.527,-2.4711,-2.4126,-2.3284,-2.2583,-2.1869,-2.1002,-1.961,-1.8321,-1.7699,-1.6526,-1.5253,0.0,0.0,0.0,0.0,0.0,0.0,0.0,0.0,0.0,0.0,0.0,0.0,0.0,0.0,-1.4121,-1.49,-1.5355,0.0,0.0,0.0,0.0,-1.9109,-1.9965,0.0,-2.0599,0.0,-2.1406,-2.1788,-2.2231,-2.2756,-2.3368,-2.3868,-2.4188,-2.4411,-2.4196,-2.4163,-2.412,-2.3884,-2.3754,-2.3711,-2.3667,-2.4073,-2.4654,-2.4414,-2.4314,-2.4257,0.0,0.0,0.0,0.0,0.0,-3.492,-3.4863,-3.5386,-3.5848,-3.5953,-3.5966,-3.5931,-3.5797,-3.5987,-3.6044,-3.5783,-3.6373,0.0,0.0,0.0,0.0,-3.5003,-3.3983,-3.2805,-3.1513,-3.1183,-3.0616,0.0,0.0,0.0,0.0,0.0,0.0,0.0,0.0,0.0,-3.5395,-3.5871,0.0,-3.5968,-3.5476,-3.5223,-3.5126,-3.4677,-3.4347,-3.4113,-3.3878,-3.3322,-3.2657,-3.1895,-3.1295,-3.0744,-3.0011,-2.9342,-2.8712,-2.7822,-2.7095,-2.644,-2.5864,-2.5374,-2.4941,-2.4611,-2.3824,-2.2937,-2.2117,-2.1271,-2.0339,-1.9198,-1.8091,-1.7048,-1.6065,0.0,0.0,0.0,0.0,0.0,0.0,0.0,0.0,0.0,0.0,0.0,0.0,0.0,0.0,0.0,0.0,0.0,0.0,0.0,0.0,0.0,-1.9259,0.0,0.0,0.0,-2.1245,-2.1326,-2.1778,-2.2221,-2.2695,-2.3148,-2.3594,-2.3927,-2.3884,-2.3884,-2.3841,-2.3634,-2.3406,-2.3232,-2.3057,-2.3438,-2.4137,-2.3905,-2.4117,-2.4377,0.0,0.0,0.0,0.0,0.0,0.0,0.0,-3.6946,0.0,-3.6328,-3.6211,-3.6354,-3.6685,-3.69,-3.6993,-3.7001,-3.736,-3.7613,-3.7613,-3.722,-3.6813,-3.6309,-3.5136,0.0,-3.3238,-3.2645,-3.206,-3.1434,0.0,0.0,0.0,0.0,0.0,0.0,0.0,-3.4616,0.0,0.0,0.0,-3.5572,-3.532,-3.5017,-3.4775,-3.4482,-3.42,-3.3878,-3.358,-3.322,-3.2787,-3.1885,-3.1232,-3.0672,-2.9941,-2.9431,-2.9003,-2.8288,-2.7635,-2.7031,-2.6409,-2.5917,-2.5491,-2.5158,-2.4704,-2.4082,-2.3039,-2.2413,-2.1708,-2.0545,-1.9354,-1.8125,-1.663,-1.5023,0.0,0.0,0.0,0.0,0.0,0.0,0.0,0.0,0.0,0.0,0.0,0.0,0.0,0.0,0.0,0.0,0.0,0.0,0.0,0.0,0.0,0.0,0.0,0.0,0.0,-2.0537,-2.1016,-2.1567,-2.2195,-2.2505,-2.3034,-2.3624,-2.3406,-2.3276,-2.3232,-2.2925,-2.2618,-2.2372,-2.2499,-2.2905,-2.3411,-2.3399,-2.3669,-2.4084,0.0,-3.2747,0.0,0.0,-3.5801,0.0,-3.7154,-3.7947,-3.8049,-3.6993,-3.6814,-3.7066,-3.7721,-3.7714,-3.7745,-3.7878,-3.7966,-3.7979,-3.7979,-3.7592,-3.7352,-3.7302,-3.6162,-3.5294,-3.4851,-3.4108,-3.3431,0.0,0.0,0.0,0.0,0.0,0.0,0.0,0.0,0.0,0.0,0.0,-3.5368,-3.5175,-3.5078,-3.4787,-3.4384,-3.4286,-3.4014,-3.358,-3.3331,-3.3031,-3.2694,-3.1702,-3.1047,-3.0586,-2.981,-2.9529,-2.9258,-2.853,-2.7966,-2.7459,-2.6801,-2.6278,-2.5808,-2.5426,-2.5292,-2.4938,-2.4017,-2.3323,-2.2596,-2.1633,-2.0257,-1.871,-1.6947,-1.572,0.0,0.0,0.0,0.0,0.0,0.0,0.0,0.0,0.0,0.0,0.0,0.0,0.0,0.0,0.0,0.0,0.0,0.0,0.0,0.0,0.0,-1.8239,-1.8719,0.0,-1.9496,0.0,-2.0282,-2.0902,-2.1773,-2.1903,-2.2465,-2.3242,-2.2882,-2.2662,-2.2539,-2.2097,-2.1785,-2.1589,-2.1989,-2.2389,-2.2781,-2.2949,-2.3301,-2.3763,0.0,0.0,0.0,0.0,0.0,0.0,0.0,-3.7294,-3.763,-3.8462,-3.8546,-3.8475,-3.8333,-3.8087,-3.7853,-3.768,-3.7876,-3.8007,-3.8007,-3.7956,-3.7802,-3.7597,-3.6972,-3.6404,-3.5848,-3.5286,-3.4665,0.0,0.0,0.0,0.0,0.0,0.0,0.0,0.0,0.0,0.0,-3.532,-3.5223,-3.5175,-3.4677,-3.4433,-3.4335,-3.3915,-3.358,-3.3281,-3.3031,-3.2768,-3.2415,-3.1589,-3.1165,-3.0818,-3.0111,-2.9551,-2.8982,-2.8269,-2.7697,-2.7217,-2.6715,-2.6278,-2.5884,-2.5841,-2.5491,-2.5193,-2.5054,-2.4007,-2.2913,-2.2397,-2.0535,-1.875,-1.7823,-1.6839,-1.598,0.0,0.0,0.0,0.0,0.0,0.0,0.0,0.0,0.0,0.0,0.0,0.0,0.0,0.0,0.0,0.0,0.0,0.0,-1.6915,0.0,-1.8104,-1.8682,-1.9118,0.0,-1.9902,-1.994,-2.0415,-2.1265,-2.1303,-2.1717,-2.2485,-2.2441,-2.222,-2.1785,-2.1571,-2.1293,-2.1122,-2.1486,-2.1924,-2.2316,-2.2611,-2.3231,-2.3828,0.0,0.0,0.0,0.0,0.0,0.0,0.0,-3.7518,-3.8209,-3.8943,-3.834,-3.7904,-3.8128,-3.8064,-3.81,-3.828,-3.8398,-3.8469,-3.8469,-3.8197,-3.7936,-3.7831,-3.7024,-3.6438,-3.623,-3.5711,-3.5306,0.0,0.0,0.0,0.0,0.0,0.0,0.0,0.0,-3.4776,-3.5126,-3.503,-3.4884,-3.4677,-3.4482,-3.4237,-3.3965,-3.3779,-3.3431,-3.3031,-3.2768,-3.2443,-3.205,-3.1122,-3.0789,-3.0596,-2.97,-2.9067,-2.8585,-2.8147,-2.7678,-2.7205,-2.6732,-2.6259,-2.5862,-2.5761,-2.5587,-2.5359,-2.5014,-2.4535,-2.3841,-2.2822,-2.1203,-1.9591,-1.8395,-1.7533,-1.6794,0.0,0.0,0.0,0.0,0.0,0.0,0.0,0.0,0.0,0.0,0.0,0.0,0.0,0.0,0.0,0.0,0.0,0.0,-1.649,0.0,-1.767,-1.8165,-1.8665,-1.9149,-1.9539,-1.9539,-2.0056,-2.1024,-2.0848,-2.1133,-2.1785,-2.1785,-2.1517,-2.106,-2.0835,-2.0702,-2.0715,-2.096,-2.1287,-2.1686,-2.224,-2.2647,-2.297,-3.498,0.0,-3.5323,0.0,-3.6473,-3.7015,-3.7121,-3.7905,-3.8599,-3.9026,-3.8205,-3.791,-3.8653,-3.8533,-3.8587,-3.8953,-3.8842,-3.8715,-3.8558,-3.8161,-3.7875,-3.772,-3.7015,0.0,-3.6614,-3.6121,-3.585,-3.585,-3.5321,0.0,0.0,0.0,0.0,0.0,-3.476,-3.4859,-3.5045,-3.4878,-3.4708,-3.4499,-3.4308,-3.4014,-3.3679,-3.353,-3.3181,-3.2718,-3.2443,-3.2088,-3.1655,-3.077,-3.0394,-3.0111,-2.9257,-2.8677,-2.8243,-2.8045,-2.7679,-2.7176,-2.6753,-2.6275,-2.5839,-2.5551,-2.5475,-2.5378,-2.4982,-2.4759,-2.4232,-2.2914,-2.165,-2.0399,-1.9107,-1.8292,-1.7618,-1.6843,0.0,0.0,0.0,0.0,0.0,0.0,0.0,-1.4161,-1.3879,0.0,0.0,0.0,0.0,0.0,0.0,0.0,0.0,0.0,0.0,0.0,0.0,-1.8237,-1.8722,-1.9112,-1.9221,-1.9729,-2.0572,-2.0632,-2.0885,-2.1293,-2.1203,-2.1024,-2.0654,-2.0337,-2.0293,-2.0495,-2.0672,-2.0891,-2.1304,-2.2022,-2.2352,-2.2526,-3.4549,-3.4865,-3.5347,-3.6162,-3.6942,-3.7554,-3.7829,-3.8354,-3.8706,-3.8706,-3.8695,-3.9118,-4.0263,-3.9824,-3.9482,-3.9494,-3.9018,-3.8471,-3.7931,-3.7895,-3.766,0.0,0.0,-3.7066,-3.7066,-3.6638,-3.6391,-3.6391,0.0,0.0,-3.5564,0.0,-3.5552,-3.5615,-3.5615,-3.5615,-3.558,-3.5027,-3.4804,-3.4757,-3.4027,-3.3729,-3.363,-3.3081,-3.2718,-3.2443,-3.2128,-3.1669,-3.1154,-3.0669,-2.9995,-2.9327,-2.8849,-2.837,-2.7998,-2.7998,-2.7679,-2.7176,-2.6753,-2.6275,-2.5796,-2.5317,-2.52,-2.52,-2.5189,-2.4682,-2.3814,-2.2489,-2.1681,-2.0948,-2.0151,-1.9264,-1.8504,-1.7892,0.0,0.0,0.0,0.0,0.0,0.0,-1.4675,-1.4675,-1.4699,0.0,0.0,0.0,0.0,0.0,0.0,0.0,0.0,-1.607,-1.6607,0.0,-1.7521,-1.7902,-1.8293,-1.87,-1.9023,-1.9421,-1.9837,-2.0633,-2.0988,-2.0997,-2.0781,-2.0699,-2.0654,-2.011,-2.0155,-2.0495,-2.0672,-2.0891,-2.1304,-2.2022,-2.2501,-2.2848,-3.5143,-3.5489,-3.5869,-3.6138,-3.6635,-3.702,-3.7144,-3.7463,-3.7919,-3.847,-3.8756,-3.9239,-4.0152,-3.9457,-3.893,0.0,-3.883,-3.8648,0.0,-3.8057,-3.759,-3.7038,-3.6672,-3.6291,-3.5961,-3.5802,-3.5734,-3.5734,0.0,0.0,0.0,-3.4418,-3.4512,-3.4721,-3.4878,-3.5086,-3.5258,-3.4938,-3.4703,-3.4466,-3.3927,-3.3481,-3.3131,-3.293,-3.2617,-3.2128,-3.1823,-3.1527,-3.0998,-2.9881,-2.932,-2.8919,-2.7814,-2.7567,-2.7726,-2.7584,-2.7442,-2.7176,-2.6706,-2.6247,-2.5821,-2.5535,-2.5231,-2.4988,-2.4988,-2.4483,-2.3795,-2.3042,-2.2261,-2.1439,-2.0565,-1.9716,-1.8957,-1.8486,-1.7999,0.0,0.0,0.0,0.0,0.0,-1.5043,-1.4949,0.0,-1.4577,0.0,0.0,0.0,0.0,0.0,0.0,0.0,0.0,-1.6689,0.0,-1.7278,-1.8091,-1.8567,-1.87,-1.9032,-1.9554,-2.0218,-2.0766,-2.0907,-2.0781,-2.0744,-2.0609,-2.04,-2.0151,-2.0243,-2.0568,-2.0492,-2.0698,-2.11,-2.18,-2.2183,-2.236,-3.5635,-3.5868,-3.6067,-3.6181,-3.664,-3.6974,-3.709,-3.7432,-3.7901,-3.843,-3.8651,-3.8952,-3.9498,-3.8978,0.0,-3.9078,-3.8883,-3.8688,-3.8502,-3.8022,-3.7497,-3.694,-3.6579,-3.6117,-3.5692,0.0,0.0,-3.5423,-3.5043,-3.473,-3.4439,-3.4439,-3.4547,-3.4708,-3.4921,-3.507,-3.5195,-3.4878,-3.4504,-3.4194,-3.3701,-3.319,-3.2718,-3.2617,-3.2342,-3.1975,-3.1567,-3.1281,-3.0854,-2.9671,-2.9032,-2.8512,-2.7506,-2.7157,-2.7156,-2.7023,-2.7023,-2.6873,-2.6412,-2.6085,-2.5762,-2.5279,-2.4952,-2.4693,-2.4518,-2.4227,-2.3832,-2.3237,-2.263,-2.2029,-2.1222,-2.0399,-1.9657,-1.9231,-1.8704,-1.8089,-1.734,0.0,0.0,0.0,0.0,0.0,0.0,-1.5078,0.0,0.0,0.0,0.0,0.0,0.0,0.0,-1.5994,-1.6704,0.0,-1.7306,-1.8048,-1.8521,-1.867,-1.9153,-1.973,-2.0385,-2.0622,-2.069,-2.0564,-2.0564,-2.0473,-2.0272,-2.0137,-2.0314,-2.0588,-2.0456,-2.0607,-2.1004,-2.1756,-2.2011,-2.2115,-3.6023,-3.6056,0.0,0.0,-3.6872,0.0,-3.7535,-3.8007,-3.832,-3.838,-3.838,-3.838,-3.838,-3.838,-3.8738,-3.9626,0.0,0.0,0.0,-3.7781,-3.7381,-3.682,-3.6809,-3.6574,-3.6072,-3.6027,-3.5781,-3.5257,-3.5257,-3.5257,-3.5257,-3.5257,-3.5312,-3.5312,-3.5312,-3.5368,-3.5334,-3.4808,-3.4316,-3.3846,-3.3395,-3.2891,-3.2443,-3.2128,-3.1964,-3.1913,-3.1373,-3.1034,-3.0701,-2.9907,-2.902,-2.8115,-2.7676,-2.7092,-2.6496,-2.6496,-2.6496,-2.6406,-2.5983,-2.5805,-2.5575,-2.4766,-2.4515,-2.4354,-2.3898,-2.398,-2.3955,-2.3115,-2.2931,-2.2698,-2.2043,-2.1236,-2.0481,-2.0074,-1.9318,-1.8565,-1.7939,0.0,0.0,0.0,0.0,0.0,0.0,-1.6079,-1.5767,0.0,0.0,0.0,0.0,0.0,-1.5651,-1.6364,-1.6747,-1.7124,-1.7505,-1.7869,-1.828,-1.8674,-1.9349,-1.9896,-2.0292,-2.0292,-2.0292,-2.0292,-2.0292,-2.0292,-2.0272,-2.0162,-2.0338,-2.0588,-2.048,-2.0631,-2.1004,-2.1756,-2.2011,-2.2115,0.0,0.0,-3.6581,-3.664,-3.7024,-3.7391,-3.7451,-3.755,-3.7747,-3.7998,-3.801,-3.813,-3.838,-3.838,-3.85,-3.8738,-3.8608,-3.8444,-3.8331,-3.8011,-3.7599,-3.7111,-3.6865,-3.6399,-3.5675,-3.5294,-3.4756,-3.4019,-3.4019,-3.4019,-3.4019,-3.4019,-3.4132,-3.4423,-3.4646,-3.4869,-3.5058,-3.4754,-3.4316,-3.3846,-3.3395,-3.2788,-3.2128,-3.2015,-3.1874,-3.1618,-3.1075,-3.0827,-3.066,-2.9713,-2.8879,-2.8065,-2.7489,-2.681,-2.6245,-2.6448,-2.6496,-2.6476,-2.6365,-2.6084,-2.5702,-2.5158,-2.4504,-2.3928,-2.3817,-2.3841,-2.3767,-2.3418,-2.3087,-2.2745,-2.2223,-2.1543,-2.0857,-2.0248,-1.9857,-1.9304,-1.8382,-1.8062,0.0,0.0,-1.6946,-1.6744,-1.679,-1.6546,-1.6383,0.0,0.0,0.0,0.0,-1.6448,-1.6428,-1.6345,-1.6987,-1.742,-1.7505,-1.8126,-1.8793,-1.9426,-1.9614,-1.9896,-2.0292,-2.0292,-2.0292,-2.0292,-2.0292,-2.0292,-2.0298,-2.0445,-2.0521,-2.0613,-2.0752,-2.0845,-2.1004,-2.1756,-2.2011,-2.2115,-3.6383,-3.6709,-3.7014,-3.7014,-3.721,-3.7374,-3.7374,-3.7264,-3.7214,-3.7396,-3.7456,-3.7528,-3.7709,-3.7829,-3.7938,-3.7938,-3.807,-3.819,-3.819,-3.7878,-3.7577,-3.7301,-3.6954,-3.6497,-3.5822,-3.5435,-3.4799,-3.3898,-3.3742,-3.3625,-3.3625,-3.3625,-3.3681,-3.3861,-3.4019,-3.4188,-3.4345,-3.4173,-3.389,-3.342,-3.2927,-3.233,-3.1769,-3.1552,-3.1373,-3.1178,-3.0765,-3.0609,-3.0526,-2.986,-2.9055,-2.8269,-2.7895,-2.7073,-2.6271,-2.6418,-2.6328,-2.612,-2.612,-2.5942,-2.5605,-2.5007,-2.4376,-2.3863,-2.3533,-2.358,-2.358,-2.3363,-2.3132,-2.2899,-2.2553,-2.194,-2.1315,-2.0871,-2.0444,-1.9898,-1.906,-1.878,0.0,-1.7817,-1.7432,-1.7167,-1.7167,-1.6898,-1.6683,-1.6598,0.0,0.0,-1.6598,-1.6958,-1.7072,-1.6858,-1.7252,-1.7668,-1.8012,-1.8733,-1.9281,-1.97,-1.987,-2.0095,-2.0292,-2.0292,-2.0246,-2.0119,-2.0297,-2.0327,-2.0231,-2.0554,-2.0712,-2.072,-2.0862,-2.0925,-2.1004,-2.1756,-2.2011,-2.2115,-3.6861,-3.7154,-3.7325,-3.7374,-3.7374,-3.7374,-3.7314,-3.7093,-3.6861,-3.6861,-3.68,-3.68,-3.68,-3.7082,-3.7264,-3.7264,-3.7506,-3.7698,-3.7818,-3.7566,-3.7374,-3.7374,-3.7093,-3.6667,-3.6258,-3.5738,-3.5011,-3.4164,-3.3688,-3.3455,-3.3455,-3.3455,-3.3512,-3.3523,-3.3523,-3.3568,-3.3625,-3.3625,-3.3348,-3.288,-3.2402,-3.1923,-3.1455,-3.1008,-3.0786,-3.0776,-3.0505,-3.0391,-3.0339,-3.0036,-2.932,-2.8488,-2.8426,-2.7518,-2.6484,-2.6434,-2.6122,-2.5723,-2.5655,-2.5596,-2.5363,-2.4614,-2.4281,-2.3984,-2.334,-2.333,-2.3398,-2.311,-2.3013,-2.2925,-2.2715,-2.2244,-2.1772,-2.1472,-2.0952,-2.0382,-1.9765,0.0,-1.9191,-1.8652,-1.808,-1.7737,-1.7686,-1.7355,-1.7064,-1.6813,-1.6966,-1.7005,0.0,-1.7303,-1.7617,-1.7668,-1.7677,-1.8037,-1.8751,-1.9375,-1.9725,-1.9785,-2.0146,-2.0292,-2.0292,-2.0306,-2.0195,-1.9991,-2.0377,-2.0387,-2.0192,-2.0639,-2.0824,-2.0806,-2.0891,-2.0925,-2.1004,-2.1756,-2.2011,-2.2115,-3.68,-3.6921,-3.7093,-3.7325,-3.7374,-3.7325,-3.7032,-3.6921,-3.68,-3.6484,-3.6484,-3.6484,-3.6484,-3.6545,-3.6545,-3.6545,-3.6606,-3.6839,-3.7445,-3.7435,-3.7374,-3.7374,-3.7093,-3.6707,-3.6377,-3.505,-3.4094,-3.3553,-3.3059,-3.2841,-3.2841,-3.2841,-3.3022,-3.325,-3.325,-3.3409,-3.3625,-3.3625,-3.3348,-3.288,-3.2402,-3.1923,-3.1455,-3.1008,-3.0786,-3.0776,-3.0505,-3.0391,-3.0339,-2.9816,-2.9164,-2.8488,-2.8209,-2.7562,-2.6863,-2.665,-2.6259,-2.5844,-2.5488,-2.5131,-2.4832,-2.4697,-2.4509,-2.4255,-2.3779,-2.3547,-2.3316,-2.2915,-2.2662,-2.2441,-2.223,-2.2129,-2.1838,-2.125,-2.1053,-2.0793,-2.0199,0.0,-1.9611,-1.9372,-1.9108,-1.8818,-1.8442,-1.8357,-1.8194,-1.7806,-1.782,-1.7829,-1.778,-1.788,-1.8091,-1.84,-1.8408,-1.8785,-1.9512,-1.964,-1.9853,-2.0206,-2.0266,-2.0292,-2.03,-2.0403,-2.0462,-2.0394,-2.0508,-2.0561,-2.0546,-2.0744,-2.0824,-2.0806,-2.0891,-2.0925,-2.1004,-2.1756,-2.2011,-2.2115,-3.63,-3.6678,-3.6921,-3.7093,-3.7264,-3.7264,-3.6921,-3.6739,-3.6484,-3.6178,-3.6106,-3.6106,-3.6106,-3.629,-3.6423,-3.6423,-3.6423,-3.6545,-3.6839,-3.7032,-3.7154,-3.7154,-3.6789,-3.6361,-3.586,-3.4719,-3.3958,-3.381,-3.3058,-3.2669,-3.2669,-3.2669,-3.2784,-3.2908,-3.2908,-3.2898,-3.2877,-3.2877,-3.2649,-3.2297,-3.1777,-3.1422,-3.1129,-3.0639,-3.0422,-3.036,-3.0245,-3.0088,-2.9921,-2.9659,-2.9159,-2.8588,-2.8473,-2.78,-2.7085,-2.6981,-2.6366,-2.5622,-2.5203,-2.4945,-2.4745,-2.4526,-2.4412,-2.4247,-2.3835,-2.3647,-2.3498,-2.3307,-2.2979,-2.2674,-2.2468,-2.2246,-2.1943,-2.1519,-2.1324,0.0,0.0,-2.0129,-1.9791,-1.9402,-1.9256,-1.9144,-1.8922,-1.8905,-1.8836,-1.8656,-1.8648,-1.8648,-1.8648,-1.8648,-1.8725,-1.8896,-1.9102,-1.9341,-1.9691,-1.9896,-2.0121,-2.0292,-2.0292,-2.0403,-2.0617,-2.0517,-2.0523,-2.0629,-2.0703,-2.0655,-2.0523,-2.0744,-2.0846,-2.0862,-2.0912,-2.0925,-2.098,-2.1497,-2.1798,-2.2083,-3.6017,-3.647,-3.6867,-3.6882,-3.7093,-3.7143,-3.685,-3.6545,-3.6239,-3.586,-3.5798,-3.5798,-3.5798,-3.5983,-3.6178,-3.6178,-3.6178,-3.6178,-3.63,-3.6545,-3.6678,-3.68,-3.6484,-3.5983,-3.5418,-3.4527,-3.4132,-3.4132,-3.3172,-3.2669,-3.2669,-3.2612,-3.2612,-3.2612,-3.2555,-3.2373,-3.219,-3.219,-3.2018,-3.1747,-3.1305,-3.0964,-3.074,-3.0303,-2.9962,-2.9784,-2.9784,-2.9669,-2.9448,-2.9396,-2.9089,-2.8684,-2.8568,-2.795,-2.7362,-2.7204,-2.6409,-2.5524,-2.5026,-2.4935,-2.4831,-2.4475,-2.4371,-2.4306,-2.3947,-2.3815,-2.3739,-2.3645,-2.3251,-2.2924,-2.275,-2.25,-2.2168,-2.1851,0.0,0.0,0.0,-2.036,-2.0026,-1.9513,-1.9479,-1.9401,-1.9316,-1.9307,-1.9264,-1.9222,-1.9213,-1.9213,-1.9213,-1.9213,-1.9256,-1.9299,-1.959,-1.9734,-1.9828,-2.0155,-2.0292,-2.0292,-2.0386,-2.0583,-2.0883,-2.0732,-2.0729,-2.0809,-2.0833,-2.0728,-2.0535,-2.0813,-2.0925,-2.0925,-2.0925,-2.0925,-2.0921,-2.1304,-2.1628,-2.1913,-3.6509,-3.6572,-3.6685,-3.6875,-3.6921,-3.68,-3.6484,-3.6423,-3.6178,-3.5552,-3.5428,-3.5428,-3.5428,-3.5479,-3.549,-3.549,-3.549,-3.5613,-3.5921,-3.5983,-3.6106,-3.6423,-3.6116,-3.5798,-3.5428,-3.4527,-3.4132,-3.4132,-3.3172,-3.2669,-3.2669,-3.243,-3.2315,-3.2305,-3.2018,-3.1845,-3.1845,-3.1845,-3.1845,-3.1747,-3.1305,-3.0862,-3.0475,-3.0031,-2.9524,-2.9185,-2.9185,-2.9132,-2.9079,-2.8834,-2.8737,-2.8621,-2.813,-2.7887,-2.7751,-2.7159,-2.6528,-2.5807,-2.5043,-2.4965,-2.4995,-2.4594,-2.4688,-2.4731,-2.4325,-2.4039,-2.3783,-2.342,-2.3121,-2.2905,-2.2914,-2.2887,-2.2647,-2.2079,0.0,0.0,-2.0798,-2.0656,-2.0557,-2.026,-2.0206,-2.0078,-1.9691,-1.9657,-1.9512,-1.9204,-1.9213,-1.9213,-1.9213,-1.9213,-1.9333,-1.9648,-1.9683,-1.9862,-2.0249,-2.0275,-2.0292,-2.0292,-2.066,-2.0848,-2.0908,-2.1069,-2.1147,-2.1147,-2.0988,-2.0885,-2.0885,-2.0909,-2.0925,-2.0925,-2.0925,-2.0925,-2.0953,-2.1352,-2.1503,-2.1612,-3.6673,-3.6634,-3.6624,-3.6705,-3.6625,-3.6484,-3.6116,-3.6116,-3.5921,-3.5479,-3.5418,-3.5418,-3.5418,-3.5418,-3.5418,-3.5418,-3.5418,-3.5418,-3.5613,-3.5613,-3.5737,-3.6106,-3.5798,-3.5541,-3.5418,-3.4817,-3.4411,-3.4132,-3.3441,-3.287,-3.243,-3.2373,-3.219,-3.196,-3.1845,-3.1672,-3.1498,-3.1498,-3.1392,-3.1218,-3.105,-3.0829,-3.0551,-3.0113,-2.9773,-2.9514,-2.9179,-2.8983,-2.8834,-2.8727,-2.8461,-2.8184,-2.796,-2.7638,-2.726,-2.6899,-2.6571,-2.6224,-2.5718,-2.5245,-2.4882,-2.4725,-2.4594,-2.4452,-2.4254,-2.4168,-2.3975,-2.3682,-2.3299,-2.2982,-2.2838,-2.2593,-2.233,-2.2084,0.0,-2.1681,-2.111,-2.0882,-2.0704,-2.0317,-2.0292,-2.024,-2.0095,-2.0078,-2.0026,-1.9881,-1.9872,-1.9872,-1.9872,-1.9872,-1.9932,-2.0078,-2.0078,-2.0155,-2.0292,-2.0292,-2.0412,-2.066,-2.0805,-2.1122,-2.1585,-2.1336,-2.1329,-2.1485,-2.1065,-2.0925,-2.0925,-2.0925,-2.0925,-2.0925,-2.0925,-2.0822,-2.0679,-2.1051,-2.124,-2.1325,-3.7022,-3.6841,-3.6666,-3.6583,-3.6422,-3.6178,-3.5921,-3.5921,-3.5798,-3.5418,-3.5418,-3.5418,-3.5418,-3.5418,-3.5366,-3.5232,-3.5232,-3.517,-3.5108,-3.5108,-3.5294,-3.5737,-3.5552,-3.5418,-3.5418,-3.4993,-3.4588,-3.4132,-3.3537,-3.2919,-3.2305,-3.2076,-3.1845,-3.1614,-3.1566,-3.1392,-3.116,-3.116,-3.0995,-3.0762,-3.0762,-3.0499,-3.0185,-2.9902,-2.9535,-2.9213,-2.8854,-2.8559,-2.8301,-2.8301,-2.8023,-2.7745,-2.7638,-2.726,-2.6836,-2.6636,-2.6591,-2.6527,-2.6233,-2.5612,-2.4993,-2.4849,-2.4565,-2.4317,-2.413,-2.4053,-2.4003,-2.3755,-2.3431,-2.3144,-2.2948,-2.2677,-2.2417,-2.2254,-2.2084,-2.18,-2.1324,-2.1036,-2.078,-2.0506,-2.0369,-2.0292,-2.0292,-2.0292,-2.0292,-2.0292,-2.0292,-2.0292,-2.0292,-2.0292,-2.0292,-2.0292,-2.0292,-2.0292,-2.0292,-2.0292,-2.0489,-2.0883,-2.0994,-2.1379,-2.2004,-2.157,-2.1502,-2.1674,-2.1121,-2.0925,-2.0925,-2.0925,-2.0925,-2.0865,-2.0822,-2.0668,-2.0524,-2.0764,-2.0903,-2.0999,-3.7498,-3.7125,-3.6787,-3.6646,-3.6236,-3.5921,-3.5921,-3.5921,-3.5798,-3.5418,-3.5418,-3.5418,-3.5418,-3.5418,-3.5232,-3.4922,-3.4922,-3.4735,-3.4423,-3.4423,-3.4673,-3.5356,-3.5418,-3.5418,-3.5418,-3.4993,-3.4598,-3.4072,-3.3312,-3.2687,-3.2258,-3.1614,-3.1325,-3.1267,-3.0995,-3.0889,-3.0889,-3.0889,-3.0704,-3.0382,-3.0382,-2.9967,-2.9325,-2.9316,-2.8786,-2.7992,-2.7982,-2.7718,-2.7377,-2.7377,-2.7377,-2.7377,-2.7098,-2.6791,-2.6582,-2.6582,-2.6582,-2.6582,-2.6582,-2.6073,-2.536,-2.4935,-2.4785,-2.4624,-2.3945,-2.3805,-2.3705,-2.3447,-2.3397,-2.3397,-2.3397,-2.3397,-2.3182,-2.2507,-2.2397,-2.216,-2.1513,-2.1114,-2.0929,-2.0883,-2.054,-2.0292,-2.0292,-2.0292,-2.0292,-2.0292,-2.0292,-2.0292,-2.0292,-2.0292,-2.0292,-2.0292,-2.0292,-2.0292,-2.0292,-2.0292,-2.0497,-2.0891,-2.1242,-2.1619,-2.2013,-2.177,-2.1725,-2.1674,-2.1121,-2.0925,-2.0925,-2.0925,-2.0925,-2.0865,-2.0617,-2.0522,-2.0496,-2.0581,-2.0604,-2.0647,-3.7974,-3.7343,-3.6763,-3.6746,-3.6071,-3.5552,-3.5552,-3.5552,-3.5479,-3.5418,-3.5418,-3.5418,-3.5418,-3.517,-3.4984,-3.4922,-3.4673,-3.4485,-3.4423,-3.4423,-3.4485,-3.4673,-3.4673,-3.4673,-3.4673,-3.4613,-3.4319,-3.3882,-3.3306,-3.2683,-3.2074,-3.1532,-3.1218,-3.0995,-3.0947,-3.0889,-3.0889,-3.0635,-3.0509,-3.0382,-3.0157,-2.9905,-2.9713,-2.9429,-2.9155,-2.8852,-2.82,-2.7907,-2.7755,-2.7526,-2.7152,-2.6772,-2.6227,-2.6017,-2.5962,-2.5962,-2.5962,-2.5962,-2.5962,-2.5827,-2.555,-2.5077,-2.4566,-2.4047,-2.3636,-2.3497,-2.3447,-2.3147,-2.3097,-2.3046,-2.2846,-2.2846,-2.2761,-2.2548,-2.2531,-2.2352,-2.1876,-2.173,-2.1465,-2.0942,-2.078,-2.0591,-2.0317,-2.0292,-2.0292,-2.0292,-2.0292,-2.0292,-2.0292,-2.0292,-2.0292,-2.0292,-2.0292,-2.0429,-2.0703,-2.0703,-2.0891,-2.1259,-2.1645,-2.1914,-2.2072,-2.1828,-2.1623,-2.142,-2.107,-2.0925,-2.0925,-2.0925,-2.0771,-2.0617,-2.0514,-2.0256,-1.997,-2.042,-2.0339,-2.0113,-3.8181,-3.7436,-3.6804,-3.6804,-3.6039,-3.5418,-3.5418,-3.5418,-3.5418,-3.5418,-3.5418,-3.5418,-3.5418,-3.5108,-3.4859,-3.4735,-3.4298,-3.3985,-3.3985,-3.3985,-3.3985,-3.3985,-3.3985,-3.411,-3.4423,-3.4423,-3.4212,-3.3779,-3.3376,-3.2754,-3.1979,-3.1604,-3.1211,-3.0889,-3.0889,-3.083,-3.0694,-3.0509,-3.0265,-3.0039,-2.9804,-2.9686,-2.9549,-2.9238,-2.8984,-2.8663,-2.8152,-2.7716,-2.729,-2.705,-2.6637,-2.6172,-2.5798,-2.5688,-2.5688,-2.5688,-2.5688,-2.5688,-2.5688,-2.5624,-2.5364,-2.4801,-2.4403,-2.4013,-2.3573,-2.3362,-2.3147,-2.2745,-2.2636,-2.2535,-2.2283,-2.2241,-2.2241,-2.2241,-2.2241,-2.2156,-2.1945,-2.1793,-2.1539,-2.1092,-2.0771,-2.0492,-2.0256,-2.0112,-2.0027,-2.0027,-2.0027,-2.0073,-2.0155,-2.0155,-2.0201,-2.0292,-2.0446,-2.0643,-2.0883,-2.1079,-2.1335,-2.1645,-2.1786,-2.1936,-2.208,-2.1725,-2.1471,-2.1275,-2.1019,-2.0925,-2.0925,-2.0925,-2.0719,-2.047,-2.0359,-2.0094,-1.974,-2.0117,-2.0073,-1.9886,-3.8119,-3.7374,-3.6742,-3.6742,-3.6008,-3.5418,-3.5418,-3.5418,-3.5418,-3.5418,-3.5418,-3.5366,-3.5356,-3.5046,-3.4735,-3.436,-3.3796,-3.3418,-3.3418,-3.3418,-3.3418,-3.3418,-3.3418,-3.367,-3.4298,-3.4298,-3.4097,-3.3768,-3.343,-3.282,-3.2038,-3.1672,-3.1309,-3.0947,-3.0908,-3.0704,-3.0382,-3.0323,-2.9971,-2.9499,-2.945,-2.9272,-2.8984,-2.8984,-2.851,-2.789,-2.7854,-2.7195,-2.6335,-2.6208,-2.5933,-2.5624,-2.5578,-2.5523,-2.5523,-2.5523,-2.5523,-2.5523,-2.5523,-2.5348,-2.4922,-2.4313,-2.4232,-2.4193,-2.3557,-2.3123,-2.2745,-2.2182,-2.2072,-2.1979,-2.1725,-2.1725,-2.1725,-2.1725,-2.1725,-2.1725,-2.1725,-2.1453,-2.1246,-2.1222,-2.0611,-2.0173,-2.0107,-1.9785,-1.9587,-1.9587,-1.9587,-1.9671,-1.9837,-1.9916,-2.0024,-2.0252,-2.0673,-2.0896,-2.093,-2.1371,-2.17,-2.1946,-2.1734,-2.177,-2.2021,-2.1522,-2.1275,-2.1275,-2.1027,-2.0925,-2.0925,-2.0865,-2.0719,-2.0411,-2.0189,-1.9879,-1.9665,-1.9744,-1.9751,-1.9802,-3.7643,-3.6898,-3.6266,-3.6266,-3.5801,-3.5418,-3.5418,-3.5418,-3.5418,-3.5418,-3.5418,-3.5294,-3.5046,-3.4735,-3.436,-3.4047,-3.3607,-3.3418,-3.3418,-3.3418,-3.3418,-3.3418,-3.3418,-3.3481,-3.3607,-3.3607,-3.3558,-3.347,-3.3083,-3.2819,-3.2623,-3.1826,-3.1465,-3.1367,-3.0781,-3.045,-3.0392,-2.9912,-2.9618,-2.9499,-2.9213,-2.8925,-2.8636,-2.8636,-2.8334,-2.7911,-2.7609,-2.72,-2.6588,-2.5513,-2.5077,-2.4898,-2.4462,-2.4303,-2.4303,-2.4303,-2.4303,-2.4303,-2.4303,-2.4248,-2.4175,-2.398,-2.3566,-2.3079,-2.263,-2.2255,-2.1928,-2.1827,-2.1776,-2.1776,-2.1725,-2.1725,-2.1725,-2.1725,-2.1725,-2.1725,-2.1725,-2.1659,-2.1511,-2.1246,-2.1073,-2.0743,-2.0157,-1.9785,-1.9587,-1.9587,-1.9587,-1.9633,-1.9671,-1.9928,-2.0077,-2.0124,-2.0481,-2.0822,-2.1121,-2.1238,-2.1412,-2.1708,-2.1687,-2.16,-2.1479,-2.1369,-2.1173,-2.0968,-2.0925,-2.0925,-2.0873,-2.0668,-2.0403,-2.0138,-1.9879,-1.9628,-1.9368,-1.9372,-1.9419,-1.943,-3.6948,-3.6203,-3.5605,-3.5605,-3.5228,-3.4984,-3.5108,-3.517,-3.5232,-3.5356,-3.5232,-3.5108,-3.4922,-3.4485,-3.4047,-3.367,-3.3481,-3.3418,-3.3418,-3.3418,-3.3355,-3.3175,-3.3165,-3.3111,-3.2921,-3.2921,-3.3111,-3.3418,-3.3203,-3.2988,-3.2783,-3.2334,-3.1784,-3.1246,-3.0845,-3.0397,-2.9971,-2.9618,-2.939,-2.9213,-2.8925,-2.8636,-2.8466,-2.8328,-2.802,-2.7735,-2.7542,-2.6935,-2.6054,-2.4772,-2.4351,-2.4295,-2.4024,-2.3921,-2.3921,-2.3921,-2.3921,-2.3857,-2.3753,-2.3697,-2.3641,-2.3352,-2.283,-2.2433,-2.2511,-2.2113,-2.1674,-2.1522,-2.1428,-2.1275,-2.1173,-2.1011,-2.096,-2.1121,-2.1121,-2.1173,-2.1326,-2.1326,-2.1261,-2.1083,-2.0913,-2.0581,-2.0078,-1.9721,-1.9518,-1.9518,-1.9518,-1.9564,-1.9649,-1.9984,-2.022,-2.0307,-2.067,-2.1015,-2.1213,-2.1228,-2.131,-2.1461,-2.1491,-2.142,-2.1326,-2.1173,-2.1019,-2.0865,-2.0771,-2.0719,-2.0668,-2.0411,-2.0145,-1.9879,-1.9724,-1.9532,-1.9316,-1.9319,-1.9294,-1.9298,-3.6174,-3.548,-3.4976,-3.4976,-3.4674,-3.4485,-3.4797,-3.4797,-3.4922,-3.517,-3.4984,-3.4797,-3.4735,-3.4173,-3.367,-3.3418,-3.3418,-3.3418,-3.3418,-3.3355,-3.3175,-3.2921,-3.2858,-3.2667,-3.2422,-3.2422,-3.2667,-3.3228,-3.3228,-3.3054,-3.2714,-3.2646,-3.2057,-3.1053,-3.0916,-3.036,-2.9499,-2.945,-2.9213,-2.8865,-2.8636,-2.8457,-2.8268,-2.802,-2.7711,-2.734,-2.734,-2.6508,-2.5244,-2.4104,-2.3753,-2.3753,-2.3632,-2.3576,-2.3576,-2.3576,-2.3576,-2.352,-2.3304,-2.3247,-2.3135,-2.2626,-2.2249,-2.2072,-2.2479,-2.2022,-2.1442,-2.113,-2.0917,-2.0719,-2.0462,-2.0241,-2.0189,-2.0411,-2.0411,-2.0514,-2.0712,-2.0763,-2.0763,-2.0763,-2.0506,-2.0224,-2.0028,-1.9702,-1.9503,-1.9503,-1.9503,-1.955,-1.9724,-2.0063,-2.0354,-2.0549,-2.0958,-2.1155,-2.1155,-2.1137,-2.1173,-2.1173,-2.1121,-2.1121,-2.1173,-2.0917,-2.0822,-2.0763,-2.0514,-2.0411,-2.0411,-2.0138,-1.9879,-1.968,-1.9628,-1.948,-1.9219,-1.9224,-1.9222,-1.9115,-3.5325,-3.4825,-3.4514,-3.4514,-3.4463,-3.4423,-3.4485,-3.4485,-3.4485,-3.4548,-3.4485,-3.436,-3.4047,-3.367,-3.3418,-3.3418,-3.3418,-3.3418,-3.3418,-3.3111,-3.2921,-3.2921,-3.2613,-3.2422,-3.2422,-3.2422,-3.2422,-3.2549,-3.2549,-3.2521,-3.2454,-3.2102,-3.1675,-3.1119,-3.0536,-2.9961,-2.9499,-2.9213,-2.8865,-2.8576,-2.8526,-2.8148,-2.7642,-2.7581,-2.7228,-2.6692,-2.6692,-2.6032,-2.4887,-2.3537,-2.3127,-2.3014,-2.2505,-2.2335,-2.2335,-2.2335,-2.2335,-2.2343,-2.2279,-2.2286,-2.2286,-2.2173,-2.1913,-2.1645,-2.1765,-2.1225,-2.0647,-2.0346,-2.0241,-2.0181,-2.0138,-2.013,-2.0138,-2.0138,-2.0138,-2.0189,-2.0181,-2.0189,-2.0189,-2.0189,-2.0101,-2.0127,-2.0329,-2.0052,-1.9845,-1.9845,-1.9845,-1.9845,-1.9894,-2.018,-2.0371,-2.042,-2.0772,-2.0955,-2.0955,-2.0696,-2.0624,-2.0624,-2.0344,-2.0395,-2.0624,-2.0565,-2.0403,-2.0189,-2.0189,-2.0138,-2.0138,-1.9879,-1.9732,-1.968,-1.9428,-1.9175,-1.8941,-1.8979,-1.8785,-1.8547,-3.4512,-3.4114,-3.3859,-3.3859,-3.3859,-3.3922,-3.411,-3.411,-3.4173,-3.436,-3.4235,-3.4047,-3.3922,-3.3607,-3.3418,-3.3418,-3.3418,-3.3418,-3.3418,-3.3111,-3.2794,-3.2603,-3.2294,-3.2038,-3.1836,-3.1836,-3.1836,-3.1836,-3.2221,-3.2422,-3.2412,-3.2242,-3.1681,-3.0917,-3.0555,-2.9995,-2.9213,-2.9035,-2.8815,-2.8466,-2.8268,-2.796,-2.7461,-2.7349,-2.6995,-2.652,-2.5741,-2.4958,-2.4087,-2.3124,-2.2619,-2.2449,-2.2165,-2.2116,-2.2116,-2.2116,-2.1995,-2.1774,-2.166,-2.1482,-2.1303,-2.1131,-2.0965,-2.0812,-2.063,-2.0368,-2.0189,-2.037,-2.0264,-2.0054,-1.9717,-1.9524,-1.948,-1.9628,-1.9628,-1.9783,-2.0078,-2.0078,-2.0078,-2.0078,-2.0059,-2.012,-2.0221,-1.9918,-1.9724,-1.9724,-1.9724,-1.9724,-1.9724,-2.0043,-2.0221,-2.0221,-2.0369,-2.0447,-2.0447,-2.0351,-2.03,-2.03,-2.0138,-2.0138,-2.03,-2.03,-2.0189,-2.0078,-1.9931,-1.9879,-1.9879,-1.9583,-1.948,-1.9428,-1.9175,-1.8978,-1.8881,-1.8879,-1.8814,-1.8647]},{"header":{"parameterUnit":"m.s-1","parameterCategory":1,"la1":30.6,"la2":28.766,"lo1":-90.7593,"lo2":-88.6598,"dy":0.0162,"dx":0.0183,"nx":116,"ny":114,"refTime":"2023-05-06T00:00:00:Z","depth":0,"parameterNumber":3,"parameterNumberName":"V-component_of_WINDS"},"data":[0.0,0.0,0.0,0.0,0.0,0.0,0.0,0.0,0.0,0.0,0.0,0.0,0.0,0.0,0.0,0.0,0.0,0.0,0.0,0.0,0.0,0.0,0.0,0.0,0.0,0.0,0.0,0.0,0.0,0.0,0.0,0.0,0.0,0.0,0.0,0.0,0.0,0.0,0.0,0.0,0.0,0.0,0.0,0.0,0.0,0.0,0.0,0.0,0.0,0.0,0.0,0.0,0.0,0.0,0.0,0.0,0.0,0.0,0.0,0.0,0.0,0.0,0.0,0.0,0.0,0.0,0.0,0.0,0.0,0.0,0.0,0.0,0.0,0.0,0.0,0.0,0.0,0.0,0.0,0.0,0.0,0.0,0.0,0.0,0.0,0.0,0.0,0.0,0.0,0.0,0.0,0.0,0.0,0.0,0.0,0.0,0.0,0.0,0.0,0.0,0.0,0.0,0.0,0.0,0.0,0.0,0.0,0.0,0.0,0.0,0.0,0.0,0.0,0.0,0.0,0.0,0.0,0.0,0.0,0.0,0.0,0.0,0.0,0.0,0.0,0.0,0.0,0.0,0.0,0.0,0.0,0.0,0.0,0.0,0.0,0.0,0.0,0.0,0.0,0.0,0.0,0.0,0.0,0.0,0.0,0.0,0.0,0.0,0.0,0.0,0.0,0.0,0.0,0.0,0.0,0.0,0.0,0.0,0.0,0.0,0.0,0.0,0.0,0.0,0.0,0.0,0.0,0.0,0.0,0.0,0.0,0.0,0.0,0.0,0.0,0.0,0.0,0.0,0.0,0.0,0.0,0.0,0.0,0.0,0.0,0.0,0.0,0.0,0.0,0.0,0.0,0.0,0.0,0.0,0.0,0.0,0.0,0.0,0.0,0.0,0.0,0.0,0.0,0.0,0.0,0.0,0.0,0.0,0.0,0.0,0.0,0.0,0.0,0.0,0.0,0.0,0.0,0.0,0.0,0.0,0.0,0.0,0.0,0.0,0.0,0.0,0.0,0.0,0.0,0.0,0.0,0.0,0.0,0.0,0.0,0.0,0.0,0.0,0.0,0.0,0.0,0.0,0.0,0.0,0.0,0.0,0.0,0.0,0.0,0.0,0.0,0.0,0.0,0.0,0.0,0.0,0.0,0.0,0.0,0.0,0.0,0.0,0.0,0.0,0.0,0.0,0.0,0.0,0.0,0.0,0.0,0.0,0.0,0.0,0.0,0.0,0.0,0.0,0.0,0.0,0.0,0.0,0.0,0.0,0.0,0.0,0.0,0.0,0.0,0.0,0.0,0.0,0.0,0.0,0.0,0.0,0.0,0.0,0.0,0.0,0.0,0.0,0.0,0.0,0.0,0.0,0.0,0.0,0.0,0.0,0.0,0.0,0.0,0.0,0.0,0.0,0.0,0.0,0.0,0.0,0.0,0.0,0.0,0.0,0.0,0.0,0.0,0.0,0.0,0.0,0.0,0.0,0.0,0.0,0.0,0.0,0.0,0.0,0.0,0.0,0.0,0.0,0.0,0.0,0.0,0.0,0.0,0.0,0.0,0.0,0.0,0.0,0.0,0.0,0.0,0.0,0.0,0.0,0.0,0.0,0.0,0.0,0.0,0.0,0.0,0.0,0.0,0.0,0.0,0.0,0.0,0.0,0.0,0.0,0.0,0.0,0.0,0.0,0.0,0.0,0.0,0.0,0.0,0.0,0.0,0.0,0.0,0.0,0.0,0.0,0.0,0.0,0.0,0.0,0.0,0.0,0.0,0.0,0.0,0.0,0.0,0.0,0.0,0.0,0.0,0.0,0.0,0.0,0.0,0.0,0.0,0.0,0.0,0.0,0.0,0.0,0.0,0.0,0.0,0.0,0.0,0.0,0.0,0.0,0.0,0.0,0.0,0.0,0.0,0.0,0.0,0.0,0.0,0.0,0.0,0.0,0.0,0.0,0.0,0.0,0.0,0.0,0.0,0.0,0.0,0.0,0.0,0.0,0.0,0.0,0.0,0.0,0.0,0.0,0.0,0.0,0.0,0.0,0.0,0.0,0.0,0.0,0.0,0.0,0.0,0.0,0.0,0.0,0.0,0.0,0.0,0.0,0.0,0.0,0.0,0.0,0.0,0.0,0.0,0.0,0.0,0.0,0.0,0.0,0.0,0.0,0.0,0.0,0.0,0.0,0.0,0.0,0.0,0.0,0.0,0.0,0.0,0.0,0.0,0.0,0.0,0.0,0.0,0.0,0.0,0.0,0.0,0.0,0.0,0.0,0.0,0.0,0.0,0.0,0.0,0.0,0.0,0.0,0.0,0.0,0.0,0.0,0.0,0.0,0.0,0.0,0.0,0.0,0.0,0.0,0.0,0.0,0.0,0.0,0.0,0.0,0.0,0.0,0.0,0.0,0.0,0.0,0.0,0.0,0.0,0.0,0.0,0.0,0.0,0.0,0.0,0.0,0.0,0.0,0.0,0.0,0.0,0.0,0.0,0.0,0.0,0.0,0.0,0.0,0.0,0.0,0.0,0.0,0.0,0.0,0.0,0.0,0.0,0.0,0.0,0.0,0.0,0.0,0.0,0.0,0.0,0.0,0.0,0.0,0.0,0.0,0.0,0.0,0.0,0.0,0.0,0.0,0.0,0.0,0.0,0.0,0.0,0.0,0.0,0.0,0.0,0.0,0.0,0.0,0.0,0.0,0.0,0.0,0.0,0.0,0.0,0.0,0.0,0.0,0.0,0.0,0.0,0.0,0.0,0.0,0.0,0.0,0.0,0.0,0.0,0.0,0.0,0.0,0.0,0.0,0.0,0.0,0.0,0.0,0.0,0.0,0.0,0.0,0.0,0.0,0.0,0.0,0.0,0.0,0.0,0.0,0.0,0.0,0.0,0.0,0.0,0.0,0.0,0.0,0.0,0.0,0.0,0.0,0.0,0.0,0.0,0.0,0.0,0.0,0.0,0.0,0.0,0.0,0.0,0.0,0.0,0.0,0.0,0.0,0.0,0.0,0.0,0.0,0.0,0.0,0.0,0.0,0.0,0.0,0.0,0.0,0.0,0.0,0.0,0.0,0.0,0.0,0.0,0.0,0.0,0.0,0.0,0.0,0.0,0.0,0.0,0.0,0.0,0.0,0.0,0.0,0.0,0.0,0.0,0.0,0.0,0.0,0.0,0.0,0.0,0.0,0.0,0.0,0.0,0.0,0.0,0.0,0.0,0.0,0.0,0.0,0.0,0.0,0.0,0.0,0.0,0.0,0.0,0.0,0.0,0.0,0.0,0.0,0.0,0.0,0.0,0.0,0.0,0.0,0.0,0.0,0.0,0.0,0.0,0.0,0.0,0.0,0.0,0.0,0.0,0.0,0.0,0.0,0.0,0.0,0.0,0.0,0.0,0.0,0.0,0.0,0.0,0.0,0.0,0.0,0.0,0.0,0.0,0.0,0.0,0.0,0.0,0.0,0.0,0.0,0.0,0.0,0.0,0.0,0.0,0.0,0.0,0.0,0.0,0.0,0.0,0.0,0.0,0.0,0.0,0.0,0.0,0.0,0.0,0.0,0.0,0.0,0.0,0.0,0.0,0.0,0.0,0.0,0.0,0.0,0.0,0.0,0.0,0.0,0.0,0.0,0.0,0.0,0.0,0.0,0.0,0.0,0.0,0.0,0.0,0.0,0.0,0.0,0.0,0.0,0.0,0.0,0.0,0.0,0.0,0.0,0.0,0.0,0.0,0.0,0.0,0.0,0.0,0.0,0.0,0.0,0.0,0.0,0.0,0.0,0.0,0.0,0.0,0.0,0.0,0.0,0.0,0.0,0.0,0.0,0.0,0.0,0.0,0.0,0.0,0.0,0.0,0.0,0.0,0.0,0.0,0.0,0.0,0.0,0.0,0.0,0.0,0.0,0.0,0.0,0.0,0.0,0.0,0.0,0.0,0.0,0.0,0.0,0.0,0.0,0.0,0.0,0.0,0.0,0.0,0.0,0.0,0.0,0.0,0.0,0.0,0.0,0.0,0.0,0.0,0.0,0.0,0.0,0.0,0.0,0.0,0.0,0.0,0.0,0.0,0.0,0.0,0.0,0.0,0.0,0.0,0.0,0.0,0.0,0.0,0.0,0.0,0.0,0.0,0.0,0.0,0.0,0.0,0.0,0.0,0.0,0.0,0.0,0.0,0.0,0.0,0.0,0.0,0.0,0.0,0.0,0.0,0.0,0.0,0.0,0.0,0.0,0.0,0.0,0.0,0.0,0.0,0.0,0.0,0.0,0.0,0.0,0.0,0.0,0.0,0.0,0.0,0.0,0.0,0.0,0.0,0.0,0.0,0.0,0.0,0.0,0.0,0.0,0.0,0.0,0.0,0.0,0.0,0.0,0.0,0.0,0.0,0.0,0.0,0.0,0.0,0.0,0.0,0.0,0.0,0.0,0.0,0.0,0.0,0.0,0.0,0.0,0.0,0.0,0.0,0.0,0.0,0.0,0.0,0.0,0.0,0.0,0.0,0.0,0.0,0.0,0.0,0.0,0.0,0.0,0.0,0.0,0.0,0.0,0.0,0.0,0.0,0.0,0.0,0.0,0.0,0.0,0.0,0.0,0.0,0.0,0.0,0.0,0.0,0.0,0.0,0.0,0.0,0.0,0.0,0.0,0.0,0.0,0.0,0.0,0.0,0.0,0.0,0.0,0.0,0.0,0.0,0.0,0.0,0.0,0.0,0.0,0.0,0.0,0.0,0.0,0.0,0.0,0.0,0.0,0.0,0.0,0.0,0.0,0.0,0.0,0.0,0.0,0.0,0.0,0.0,0.0,0.0,0.0,0.0,0.0,0.0,0.0,0.0,0.0,0.0,0.0,0.0,0.0,0.0,0.0,0.0,0.0,0.0,0.0,0.0,0.0,0.0,0.0,0.0,0.0,0.0,0.0,0.0,0.0,0.0,0.0,0.0,0.0,0.0,0.0,0.0,0.0,0.0,0.0,0.0,0.0,0.0,0.0,0.0,0.0,0.0,0.0,0.0,0.0,0.0,0.0,0.0,0.0,0.0,0.0,0.0,0.0,0.0,0.0,0.0,0.0,0.0,0.0,0.0,0.0,0.0,0.0,0.0,0.0,0.0,0.0,0.0,0.0,0.0,0.0,0.0,0.0,0.0,0.0,0.0,0.0,0.0,0.0,0.0,0.0,0.0,0.0,0.0,0.0,0.0,0.0,0.0,0.0,0.0,0.0,0.0,0.0,0.0,0.0,0.0,0.0,0.0,0.0,0.0,0.0,0.0,0.0,0.0,0.0,0.0,0.0,0.0,0.0,0.0,0.0,0.0,0.0,0.0,0.0,0.0,0.0,0.0,0.0,0.0,0.0,0.0,0.0,0.0,0.0,0.0,0.0,0.0,0.0,0.0,0.0,0.0,0.0,0.0,0.0,0.0,0.0,0.0,0.0,0.0,0.0,0.0,0.0,0.0,0.0,0.0,0.0,0.0,0.0,0.0,0.0,0.0,0.0,0.0,0.0,0.0,0.0,0.0,0.0,0.0,0.0,0.0,0.0,0.0,0.0,0.0,0.0,0.0,0.0,0.0,0.0,0.0,0.0,0.0,0.0,0.0,0.0,0.0,0.0,0.0,0.0,0.0,0.0,0.0,0.0,0.0,0.0,0.0,0.0,0.0,0.0,0.0,0.0,0.0,0.0,0.0,0.0,0.0,0.0,0.0,0.0,0.0,0.0,0.0,0.0,0.0,0.0,0.0,0.0,0.0,0.0,0.0,0.0,0.0,0.0,0.0,0.0,0.0,0.0,0.0,0.0,0.0,0.0,0.0,0.0,0.0,0.0,0.0,0.0,0.0,0.0,0.0,0.0,0.0,0.0,0.0,0.0,0.0,0.0,0.0,0.0,0.0,0.0,0.0,0.0,0.0,0.0,0.0,0.0,0.0,0.0,0.0,0.0,0.0,0.0,0.0,0.0,0.0,0.0,0.0,0.0,0.0,0.0,0.0,0.0,0.0,0.0,0.0,0.0,0.0,0.0,0.0,0.0,0.0,0.0,0.0,0.0,0.0,0.0,0.0,0.0,0.0,0.0,0.0,0.0,0.0,0.0,0.0,0.0,0.0,0.0,0.0,0.0,0.0,0.0,1.5866,0.0,0.0,0.0,0.0,0.0,0.0,0.0,0.0,0.0,0.0,0.0,0.0,0.0,0.0,0.0,0.0,0.0,0.0,0.0,0.0,0.0,0.0,0.0,0.0,0.0,0.0,0.0,0.0,0.0,0.0,0.0,0.0,0.0,0.0,0.0,0.0,0.0,0.0,0.0,2.0621,2.0976,2.1538,2.1586,2.1169,2.0389,0.0,0.0,0.0,0.0,0.0,0.0,0.0,0.0,0.0,0.0,0.0,0.0,0.0,0.0,0.0,0.0,0.0,0.0,0.0,0.0,0.0,0.0,0.0,0.0,0.0,0.0,0.0,0.0,0.0,0.0,0.0,0.0,0.0,0.0,0.0,0.0,0.0,0.0,0.0,0.0,0.0,0.0,0.0,0.0,0.0,0.0,0.0,0.0,0.0,0.0,0.0,0.0,0.0,0.0,0.0,0.0,0.0,0.0,0.0,0.0,0.0,0.0,0.0,0.0,0.0,0.0,0.0,0.0,0.0,0.0,0.0,1.6552,0.0,0.0,0.0,0.0,0.0,0.0,0.0,0.0,0.0,0.0,0.0,0.0,0.0,0.0,0.0,0.0,0.0,0.0,0.0,0.0,0.0,0.0,0.0,0.0,2.1861,2.1914,2.194,2.1964,0.0,0.0,0.0,0.0,0.0,0.0,0.0,2.1201,2.1115,2.1029,2.1479,2.2233,2.3247,2.394,2.3127,2.1057,2.1019,0.0,0.0,0.0,0.0,0.0,0.0,0.0,0.0,0.0,0.0,0.0,0.0,0.0,0.0,0.0,0.0,0.0,0.0,0.0,0.0,0.0,0.0,0.0,0.0,0.0,0.0,0.0,0.0,0.0,0.0,0.0,0.0,0.0,0.0,0.0,0.0,0.0,0.0,0.0,0.0,0.0,0.0,0.0,0.0,0.0,0.0,0.0,0.0,0.0,0.0,0.0,0.0,0.0,0.0,0.0,0.0,0.0,0.0,0.0,0.0,0.0,0.0,0.0,2.0653,2.0996,2.1101,2.1101,2.1206,2.1246,1.9266,1.8145,1.7715,0.0,0.0,0.0,0.0,0.0,0.0,0.0,0.0,0.0,0.0,0.0,0.0,0.0,0.0,0.0,0.0,0.0,0.0,0.0,0.0,0.0,0.0,2.158,2.158,2.1642,2.1651,2.1713,2.1825,0.0,0.0,0.0,0.0,0.0,2.2045,2.2435,2.2799,2.3192,2.3545,2.3732,2.3802,2.4015,2.3977,2.3684,2.3277,2.2867,2.241,0.0,0.0,0.0,0.0,0.0,0.0,0.0,0.0,0.0,0.0,0.0,0.0,0.0,0.0,0.0,0.0,0.0,0.0,0.0,0.0,0.0,0.0,0.0,0.0,0.0,0.0,0.0,0.0,0.0,0.0,0.0,0.0,0.0,0.0,0.0,0.0,0.0,0.0,0.0,0.0,0.0,1.48,1.4601,0.0,0.0,0.0,0.0,0.0,0.0,0.0,0.0,0.0,0.0,0.0,0.0,0.0,0.0,2.0146,2.0316,2.0464,2.0604,2.1212,2.1512,2.1534,2.1534,2.1556,2.152,2.0736,0.0,2.0155,1.9116,0.0,0.0,0.0,0.0,0.0,0.0,0.0,0.0,0.0,0.0,0.0,0.0,0.0,0.0,0.0,0.0,0.0,0.0,0.0,0.0,0.0,2.3825,2.4078,2.4064,2.4106,2.4169,2.4269,2.4283,0.0,0.0,0.0,2.398,2.4055,2.406,2.4405,2.5059,2.5511,2.5896,2.62,2.6255,2.6363,2.6437,2.6264,2.5308,2.3796,2.3515,0.0,0.0,0.0,0.0,0.0,0.0,0.0,0.0,0.0,0.0,0.0,0.0,0.0,0.0,0.0,0.0,0.0,0.0,0.0,0.0,0.0,0.0,0.0,0.0,0.0,0.0,0.0,0.0,0.0,0.0,0.0,0.0,0.0,0.0,0.0,0.0,0.0,0.0,0.0,1.6092,1.6355,1.6445,1.6367,1.6212,0.0,0.0,0.0,0.0,0.0,0.0,0.0,0.0,0.0,1.948,2.0384,2.1036,2.1451,2.2179,2.2555,2.2602,2.2885,2.3012,2.3012,2.3012,2.3022,2.3041,2.2804,2.2787,2.2747,2.0981,2.0102,1.9873,0.0,0.0,0.0,0.0,1.916,1.916,0.0,0.0,0.0,0.0,0.0,0.0,0.0,0.0,0.0,0.0,0.0,0.0,2.5044,2.5793,2.6222,2.6167,2.6378,2.647,2.6387,2.6405,2.6321,2.6111,2.5918,2.5798,2.5717,2.5668,2.5995,2.6718,2.7057,2.7565,2.8225,2.8228,2.8383,2.8661,2.8543,2.7361,2.5418,2.5229,2.455,2.355,0.0,0.0,0.0,0.0,0.0,0.0,0.0,0.0,0.0,0.0,0.0,0.0,0.0,0.0,0.0,0.0,0.0,0.0,0.0,0.0,0.0,0.0,0.0,0.0,0.0,0.0,0.0,0.0,0.0,0.0,0.0,0.0,0.0,0.0,0.0,0.0,0.0,1.7209,1.7547,1.7768,1.7864,1.7804,0.0,0.0,0.0,0.0,0.0,0.0,1.9022,1.9649,2.0277,2.0868,2.1913,2.2542,2.2686,2.3614,2.4092,2.4092,2.4247,2.4317,2.4317,2.4317,2.4368,2.4402,2.4247,2.4341,2.4431,2.2666,2.1657,2.1233,2.1198,2.0797,2.0254,2.0254,2.0254,2.0269,0.0,0.0,0.0,0.0,0.0,0.0,0.0,0.0,0.0,0.0,0.0,2.5004,2.5683,2.6247,2.6556,2.6563,2.7214,2.7406,2.6912,2.6819,2.6499,2.5847,2.5696,2.5825,2.6254,2.6995,2.7611,2.8102,2.7934,2.8184,2.8746,2.8814,2.923,2.9886,2.9303,2.8418,2.732,2.6672,2.6133,2.5595,2.4893,0.0,0.0,0.0,0.0,0.0,0.0,0.0,0.0,0.0,0.0,0.0,0.0,0.0,0.0,0.0,0.0,0.0,0.0,0.0,0.0,0.0,0.0,0.0,0.0,0.0,0.0,0.0,0.0,0.0,0.0,0.0,0.0,0.0,0.0,0.0,0.0,0.0,0.0,1.7274,1.7792,0.0,0.0,0.0,0.0,1.929,1.9705,2.0224,2.0749,2.1332,2.2011,2.2742,2.3381,2.3817,2.3994,2.4064,2.4092,2.4092,2.4683,2.495,2.495,2.495,2.4964,2.4922,2.4331,2.4269,2.4461,2.3908,2.3391,2.2922,2.243,2.1825,2.1221,2.1221,2.1221,2.1261,0.0,0.0,0.0,0.0,0.0,0.0,0.0,0.0,2.4197,2.4805,2.6259,2.722,2.7165,2.8211,2.8822,2.854,2.8798,2.8912,2.871,2.8724,2.8616,2.8383,2.829,2.8116,2.7845,2.8801,2.928,2.9225,3.0036,3.0483,3.061,3.0709,3.09,3.1165,3.1112,3.0882,3.0405,2.8431,2.7313,2.6824,2.6084,2.5338,0.0,0.0,0.0,0.0,0.0,0.0,0.0,0.0,0.0,0.0,0.0,0.0,0.0,0.0,0.0,0.0,0.0,0.0,0.0,0.0,0.0,0.0,0.0,0.0,0.0,0.0,0.0,0.0,0.0,0.0,0.0,0.0,0.0,0.0,0.0,0.0,0.0,1.9178,1.9427,0.0,0.0,1.9677,2.0061,2.0348,2.0877,2.1415,2.19,2.2589,2.3078,2.3335,2.4062,2.4527,2.4683,2.5063,2.5274,2.5274,2.5472,2.557,2.557,2.557,2.5624,2.569,2.5464,2.555,2.5782,2.5603,2.5046,2.4294,2.4107,2.3942,2.3805,2.3805,2.3805,2.3827,0.0,0.0,0.0,0.0,0.0,0.0,0.0,0.0,2.5265,2.58,2.7503,2.859,2.8429,2.9677,3.0391,3.004,3.0214,3.0249,3.0023,3.0023,2.9918,2.9641,2.9955,2.9856,2.9348,3.0414,3.0844,3.0548,3.1379,3.1863,3.2015,3.2088,3.2289,3.2587,3.2529,3.2487,3.2364,3.0348,2.9087,2.8384,2.769,2.697,2.6185,0.0,0.0,0.0,0.0,0.0,0.0,0.0,0.0,0.0,0.0,0.0,0.0,0.0,0.0,0.0,0.0,0.0,0.0,0.0,0.0,0.0,0.0,0.0,0.0,0.0,0.0,0.0,0.0,0.0,0.0,0.0,0.0,0.0,0.0,0.0,1.9484,2.0132,2.052,2.0695,2.0605,2.0955,2.136,2.1715,2.2065,2.2519,2.307,2.3557,2.3991,2.4303,2.502,2.5463,2.5598,2.6258,2.6595,2.6595,2.6651,2.6679,2.6679,2.6679,2.6706,2.6817,2.6604,2.6667,2.6893,2.6691,2.6242,2.5722,2.5453,2.5282,2.5226,2.5226,2.5226,2.525,0.0,0.0,0.0,0.0,0.0,0.0,0.0,2.5276,2.6427,2.6939,2.8107,2.9034,2.9412,3.0533,3.1146,3.0872,3.1332,3.1379,3.0713,3.0623,3.0242,2.9453,3.041,3.0848,3.0643,3.1748,3.2229,3.2021,3.1918,3.2184,3.2803,3.2844,3.3288,3.4101,3.3437,3.3186,3.3137,3.24,3.145,3.0312,2.9708,2.8694,2.7517,0.0,0.0,0.0,0.0,0.0,0.0,0.0,0.0,0.0,0.0,0.0,0.0,0.0,0.0,0.0,0.0,0.0,0.0,0.0,0.0,0.0,0.0,0.0,0.0,0.0,0.0,0.0,0.0,0.0,0.0,0.0,0.0,0.0,1.8908,1.9607,2.0053,1.9883,2.0922,2.1647,2.1647,2.2688,2.3398,2.3412,2.3308,2.358,2.4313,2.4381,2.4819,2.5744,2.6329,2.6693,2.6835,2.7598,2.8024,2.8024,2.814,2.8197,2.8197,2.8197,2.8197,2.8168,2.7597,2.7504,2.7663,2.7082,2.6977,2.7122,2.6348,2.5756,2.5357,2.5357,2.5357,2.5381,0.0,0.0,0.0,0.0,0.0,0.0,0.0,2.5927,2.7281,2.7217,2.9369,3.0801,3.0532,3.1682,3.2319,3.1865,3.2347,3.2526,3.2152,3.2552,3.2656,3.2292,3.2244,3.2122,3.1996,3.2629,3.2772,3.244,3.3028,3.3331,3.3304,3.3508,3.4021,3.4749,3.4658,3.4628,3.4612,3.4417,3.3534,3.2217,3.1077,3.0187,2.9468,0.0,0.0,0.0,0.0,0.0,0.0,0.0,0.0,0.0,0.0,0.0,0.0,0.0,0.0,0.0,0.0,0.0,0.0,0.0,0.0,0.0,0.0,0.0,0.0,0.0,0.0,0.0,0.0,0.0,0.0,0.0,0.0,2.1635,2.0791,2.0886,2.1148,2.1421,2.2062,2.2507,2.261,2.2907,2.3338,2.3879,2.4409,2.5011,2.5627,2.6282,2.673,2.7013,2.7411,2.7625,2.7683,2.7997,2.814,2.814,2.8168,2.8197,2.8197,2.8197,2.8326,2.8553,2.838,2.8226,2.8045,2.7868,2.7635,2.7321,2.6975,2.6798,2.6676,2.6676,2.6726,2.6842,0.0,0.0,0.0,0.0,0.0,0.0,0.0,2.6521,2.7736,2.7509,3.0063,3.1725,3.1249,3.2395,3.3001,3.2486,3.2949,3.3148,3.2884,3.3314,3.3473,3.3296,3.3162,3.3017,3.2892,3.3338,3.342,3.3146,3.3639,3.3822,3.3668,3.3822,3.4362,3.5185,3.5263,3.5477,3.5847,3.5847,3.5196,3.4088,3.3313,3.2217,3.1024,3.0389,2.9547,2.8611,2.7944,2.6817,2.548,2.4384,0.0,0.0,0.0,0.0,0.0,0.0,0.0,0.0,0.0,0.0,0.0,0.0,0.0,0.0,0.0,0.0,0.0,0.0,0.0,0.0,0.0,0.0,0.0,0.0,2.2752,2.2818,2.2644,2.2408,2.2305,2.2464,2.2937,2.3285,2.3366,2.3676,2.4149,2.4913,2.5393,2.6002,2.6694,2.7289,2.7646,2.7691,2.8236,2.8495,2.8495,2.8986,2.9203,2.9203,2.9348,2.9407,2.9407,2.9407,2.9537,0.0,2.9474,2.9304,2.9139,2.8952,2.854,0.0,0.0,0.0,0.0,0.0,2.7437,2.7488,0.0,0.0,0.0,0.0,0.0,0.0,0.0,2.6985,2.795,2.7755,3.0292,3.1977,3.1589,3.2685,3.3251,3.2809,3.3276,3.3511,3.337,3.3567,3.3596,3.3371,3.3673,3.3773,3.3645,3.4014,3.4154,3.4027,3.3972,3.3899,3.3899,3.3924,3.4464,3.5417,3.5498,3.5992,3.6718,3.6718,3.6275,3.5603,3.5521,3.4211,3.2255,3.1671,3.1139,3.0603,2.9778,2.876,2.7683,2.6783,0.0,0.0,0.0,0.0,0.0,0.0,0.0,0.0,0.0,0.0,0.0,0.0,0.0,0.0,0.0,0.0,0.0,0.0,0.0,0.0,0.0,0.0,0.0,0.0,2.3451,2.3401,2.4326,2.4014,2.3547,2.3177,2.3635,2.3971,2.4026,2.4677,2.5416,2.6162,2.6385,2.6791,2.7598,0.0,0.0,0.0,0.0,2.9342,2.9342,3.0217,3.0672,3.0672,3.0955,3.1117,3.1102,3.1102,3.1146,3.1131,3.0655,3.0513,3.0518,3.0126,2.9569,2.8894,2.7859,2.7539,2.765,2.765,2.765,2.765,0.0,0.0,0.0,0.0,0.0,0.0,0.0,2.7092,2.8118,2.7958,3.0092,3.1522,3.1238,3.2326,3.2958,3.2582,3.3518,3.4389,3.4925,3.5238,3.528,3.4959,3.5212,3.5309,3.5168,3.5047,3.4923,3.4794,3.4316,3.4,3.3899,3.4126,3.4624,3.5433,3.6123,3.6596,3.6847,3.6744,3.6352,3.5712,3.4988,3.4031,3.2997,3.2969,3.2518,3.1726,3.0489,2.9896,2.9416,2.764,2.647,2.5626,2.4929,2.4255,0.0,0.0,0.0,0.0,0.0,0.0,0.0,0.0,0.0,0.0,0.0,0.0,0.0,0.0,0.0,0.0,0.0,0.0,0.0,2.5236,2.5375,2.5353,2.5351,2.5392,2.505,2.4001,2.4226,2.456,2.4786,2.5343,2.5895,2.6335,2.7423,2.817,2.8432,2.9078,0.0,2.9679,3.0126,3.0334,3.0334,3.0763,3.0984,3.0984,0.0,0.0,3.1263,3.1263,3.138,3.1596,3.1489,3.1214,3.0897,3.0803,3.0073,2.892,2.8178,2.7905,2.793,2.793,2.793,2.793,0.0,0.0,0.0,0.0,0.0,0.0,0.0,2.6781,2.7725,2.8057,2.9784,3.1075,3.128,3.2174,3.2785,3.29,3.3849,3.481,3.5675,3.5697,3.5596,3.5498,3.5706,3.5778,3.5619,3.534,3.5185,3.5108,3.4431,3.4101,3.4101,3.425,3.4791,3.5711,3.6165,3.6654,3.7194,3.7144,3.6721,3.6057,3.5546,3.483,3.4052,3.3892,3.3419,3.27,3.1981,3.1291,3.0538,2.9202,2.8289,2.7536,2.6644,2.5881,2.5163,0.0,0.0,0.0,0.0,0.0,0.0,0.0,0.0,0.0,0.0,0.0,0.0,0.0,0.0,2.5244,0.0,0.0,2.5641,2.6211,2.6242,2.6212,2.6205,2.6126,2.5794,2.5011,2.4982,2.5226,2.5668,2.5969,2.6553,2.7499,2.8188,2.883,2.9383,2.9911,3.0266,3.0341,3.0672,3.0881,3.0955,3.119,3.1322,3.1409,3.1511,3.1597,3.164,3.171,3.1824,3.1966,3.2092,3.2005,3.1765,3.1443,3.0922,3.0175,2.9128,2.8408,2.7995,2.7995,2.8029,2.8103,0.0,0.0,0.0,0.0,0.0,0.0,0.0,2.6444,2.7237,2.7873,2.9177,3.0312,3.1023,3.1693,3.2374,3.3044,3.3988,3.4833,3.5524,3.5554,3.5547,3.5501,3.5837,3.5893,3.5695,3.5391,3.5263,3.5289,3.4507,3.4201,3.4349,3.4399,3.4923,3.5794,3.5991,3.6537,3.7325,3.7292,3.6965,3.642,3.6126,3.559,3.4899,3.4546,3.4088,3.3572,3.3329,3.2488,3.1407,3.0739,2.9975,2.9127,2.8116,2.7289,2.6609,2.6064,2.548,0.0,0.0,0.0,0.0,0.0,0.0,0.0,0.0,0.0,2.6679,2.6986,2.6827,2.6693,2.7023,2.6869,2.6779,2.7016,2.6831,2.6713,2.6927,2.6671,2.6312,2.6002,2.573,2.5841,2.648,2.6633,2.7291,2.8695,2.8892,2.9327,3.0144,3.0462,3.0628,3.0717,3.1029,3.1234,3.1365,3.1523,3.1667,3.1796,3.1953,3.2066,3.2122,3.2219,3.2302,3.2401,3.2617,3.2683,3.2625,3.2071,3.175,3.1475,3.0176,2.9106,2.8286,2.8149,2.8186,2.8308,0.0,0.0,0.0,0.0,0.0,0.0,0.0,0.0,2.7031,2.7124,2.7908,2.8757,2.9547,3.0238,3.1116,3.2306,3.3582,3.4136,3.3738,3.5214,3.5817,3.5163,3.5983,3.6291,3.5968,3.5569,3.5442,3.5569,3.4708,3.4349,3.4472,3.4715,3.4885,3.5072,3.5969,3.647,3.668,3.6578,3.6551,3.6518,3.5723,3.5265,3.5065,3.4899,3.4642,3.4284,3.3621,3.2908,3.2183,3.1572,3.0441,2.9288,2.9194,2.8707,2.8163,2.808,0.0,2.7692,2.7065,2.6882,2.7048,2.7793,2.7992,2.799,0.0,0.0,2.7909,2.7656,2.7489,2.7465,2.7746,2.7579,2.7543,2.7957,2.772,2.7485,2.7509,2.7155,2.6884,2.6873,2.626,2.616,2.6961,2.7513,2.8194,2.9066,2.9636,3.0117,3.0507,3.0568,3.0777,3.1219,3.1379,3.1523,3.1653,3.184,3.201,3.2135,3.2163,3.2287,3.2547,3.2547,3.2726,3.2989,3.3043,3.2962,3.2854,3.2792,3.2306,3.1522,3.0876,3.0151,2.936,2.8757,2.8525,2.8573,0.0,0.0,0.0,0.0,0.0,0.0,0.0,0.0,0.0,2.6931,2.7265,2.7751,2.8616,2.9786,3.07,3.1154,3.2454,3.3409,3.3784,3.4248,3.4777,3.5362,3.5826,3.6064,3.6057,3.5778,3.5619,3.5594,3.4808,3.4521,3.4756,3.4851,3.5018,3.5285,3.5725,3.6021,3.6135,3.6158,3.6141,3.6101,3.5644,3.5367,3.5148,3.4599,3.4253,3.4039,3.3561,3.2957,0.0,3.1665,3.0771,2.9951,2.996,2.9501,2.892,2.8843,2.8474,0.0,2.7747,0.0,0.0,0.0,2.9408,2.9601,3.031,3.0441,3.0325,3.0035,2.9861,2.9607,2.9116,2.8919,2.8697,0.0,2.8048,2.79,2.774,2.7499,2.7484,2.7764,2.7477,2.7455,2.7979,2.8253,2.8886,3.0029,3.0347,3.0627,3.0895,3.1043,3.1204,3.1408,3.1653,3.1881,3.212,3.2176,3.2373,3.2609,3.2691,3.2784,3.2904,3.3049,3.3251,3.345,3.345,3.3372,3.3229,3.315,3.2619,3.1769,3.1056,3.0376,2.9632,2.8957,2.874,2.8779,0.0,0.0,0.0,0.0,0.0,0.0,0.0,0.0,0.0,0.0,2.6583,2.6864,2.7752,2.9092,2.9992,3.0109,3.1223,3.232,3.3246,3.3426,3.3921,3.4836,3.524,3.5445,3.5461,3.5207,3.5033,3.4937,3.4321,3.4152,3.4426,3.4472,3.4632,3.4941,3.5035,3.5145,3.5231,3.5322,3.5296,3.5183,3.5079,3.4919,3.4621,3.3996,3.3644,3.3468,3.3268,3.2754,3.2103,3.1627,3.099,3.0396,3.0396,3.0013,2.9539,2.9423,2.9153,2.885,2.8808,0.0,0.0,3.038,3.0619,3.0813,3.1744,3.1909,3.1822,3.1606,3.1444,3.1074,3.021,3.0058,2.9754,2.8953,2.8777,2.8686,2.8485,2.8343,2.8422,2.8786,2.8752,2.8845,2.9291,2.9182,2.9593,3.0807,3.0895,3.0955,3.1132,3.1365,3.1552,3.1638,3.1938,3.2219,3.2453,3.2523,3.2703,3.3005,3.3112,3.3203,3.3282,3.3503,3.3658,3.3761,3.3761,3.3684,3.3555,3.3398,3.284,3.1986,3.1209,3.0476,2.9779,2.9147,2.8951,2.8967,0.0,0.0,0.0,0.0,0.0,0.0,0.0,0.0,0.0,0.0,0.0,0.0,0.0,2.7742,2.8594,2.936,3.0058,3.069,3.1242,3.2982,3.37,3.3103,3.4023,3.4332,3.3887,3.3415,3.3218,3.3278,3.2989,3.2989,3.3244,3.3389,3.3499,3.3569,3.369,3.3751,3.3751,3.3772,3.3727,3.3658,3.3658,3.3465,3.3165,3.3148,3.2945,3.2735,3.2713,3.2243,3.1631,3.1593,3.1054,3.0396,3.0396,3.0295,0.0,3.0156,3.056,3.0988,0.0,0.0,3.1693,3.1742,3.1662,3.1582,3.1606,3.1606,3.1582,3.1428,3.1306,3.1133,3.0826,3.0674,3.0521,3.0366,3.0221,3.0127,3.0127,3.0007,2.9928,2.9943,2.9943,3.019,0.0,3.038,3.0321,3.1029,3.1087,3.1161,3.1292,3.1437,3.1638,3.1968,3.2247,3.2453,3.2578,3.2773,3.3032,3.3282,3.3309,3.3424,3.3684,3.3822,3.3899,3.3899,3.3899,3.3822,3.3668,3.3555,3.2996,3.2139,3.1451,3.0698,2.9933,2.946,2.9213,2.9098,0.0,0.0,0.0,0.0,0.0,0.0,0.0,0.0,0.0,0.0,0.0,0.0,0.0,0.0,0.0,0.0,2.8908,2.9932,3.0567,3.1492,3.2198,3.2653,3.3216,3.3458,3.3401,3.365,3.3666,3.346,3.3376,3.3418,3.3601,3.3642,3.3724,3.3842,3.398,3.3982,3.3888,3.3985,3.3942,3.3778,3.3717,3.3532,3.3246,3.2609,3.2259,3.2026,0.0,3.1399,3.1532,3.1035,3.0662,3.038,3.0312,3.0184,3.0136,3.0447,3.0958,3.1405,3.1397,0.0,3.1766,3.2215,3.2302,3.238,3.2784,3.2854,3.2829,3.2701,3.2546,3.2248,3.1597,3.1348,3.1051,3.0489,3.036,3.0334,3.0334,3.0215,3.0289,3.0746,3.0727,0.0,0.0,0.0,0.0,3.1667,3.1712,3.1712,3.1754,3.1881,3.2023,3.215,3.2385,3.2621,3.28,3.2935,3.3176,3.3424,3.3694,3.3924,3.4101,3.425,3.43,3.43,3.4201,3.4101,3.3917,3.3283,3.2549,3.1732,3.1007,3.0314,2.9655,2.9485,2.9457,2.9502,0.0,0.0,0.0,0.0,0.0,0.0,0.0,0.0,0.0,0.0,0.0,0.0,0.0,0.0,0.0,0.0,0.0,2.8728,2.947,3.0262,3.0942,3.1472,3.2122,3.2439,3.238,3.2652,3.2629,3.2314,3.2275,3.2292,3.2367,3.2367,3.2441,3.257,3.2641,3.2624,3.2534,3.2551,3.2614,3.2702,3.2564,3.2556,3.254,3.1862,3.1512,0.0,3.0713,3.0948,3.1467,3.0988,3.0775,3.0739,3.0871,3.0798,3.0678,3.0955,3.1462,3.1974,3.1974,3.21,3.2378,3.2809,3.2895,3.2908,3.3038,3.3085,3.2954,3.2639,3.2395,3.2175,3.1852,3.161,3.1378,3.1087,3.1002,3.0991,3.1029,3.096,3.1087,3.1569,3.1549,0.0,0.0,0.0,0.0,3.1994,3.1996,3.1996,3.1996,3.2122,3.2191,3.2191,3.2539,3.2773,3.2897,3.3123,3.3372,3.3658,3.4,3.425,3.4374,3.4448,3.4521,3.457,3.4423,3.4325,3.4161,3.325,3.2442,3.1662,3.0822,3.0087,2.9496,2.9541,2.9637,2.9732,0.0,0.0,0.0,0.0,0.0,0.0,0.0,0.0,0.0,0.0,0.0,0.0,0.0,0.0,0.0,0.0,0.0,0.0,2.7981,2.9319,2.994,2.9602,3.0713,3.117,3.0816,3.0543,3.027,3.0043,2.9902,2.9838,2.9838,2.9838,2.9904,3.002,2.9957,2.9925,2.9875,2.9692,2.9972,3.054,3.0411,3.0634,3.1089,3.0908,3.0764,3.0642,3.0551,3.0884,3.1402,3.1402,3.1369,3.1444,3.1994,3.2028,3.1799,3.1694,3.2109,3.2636,3.2636,3.3045,3.3477,3.3477,3.3382,3.3072,3.2449,3.226,3.2054,3.1349,3.0983,3.0994,0.0,0.0,3.1396,3.2038,3.2079,3.2038,3.2163,3.2206,3.2247,0.0,0.0,0.0,0.0,0.0,0.0,3.2172,0.0,3.2025,3.2025,3.215,3.2219,3.2219,3.2664,3.2897,3.2897,3.3309,3.3658,3.3899,3.4176,3.4374,3.4497,3.4521,3.4594,3.4691,3.457,3.4521,3.4448,3.3413,3.2586,3.1906,3.0883,3.0078,2.9541,2.9675,2.9754,2.9815,0.0,0.0,0.0,0.0,0.0,0.0,0.0,0.0,0.0,0.0,0.0,0.0,0.0,0.0,0.0,0.0,0.0,0.0,2.7187,2.8056,2.8457,2.8209,2.8888,2.9352,2.9543,2.9929,3.0288,3.0668,3.0537,3.0434,3.0389,3.0346,3.0318,3.0287,3.0271,3.0162,2.9972,2.9923,2.988,2.9834,2.9712,2.9673,2.9734,3.0049,3.0076,3.0005,3.0492,3.0969,3.1402,3.1402,0.0,0.0,0.0,3.2063,3.2233,3.2208,3.2564,3.2988,3.3077,3.3166,3.3229,3.3335,3.294,3.2513,3.2339,3.1855,3.1428,3.1255,3.0983,3.0853,0.0,0.0,0.0,3.1427,3.1774,0.0,3.2053,3.215,0.0,3.2247,0.0,3.3208,3.3408,3.3872,0.0,0.0,3.311,3.2456,3.2456,3.2484,3.2511,3.2511,3.2854,3.3058,3.3058,3.345,3.372,3.3899,3.4275,3.4472,3.4497,3.4707,3.4828,3.4851,3.4707,3.4643,3.4544,3.313,3.2392,3.2006,3.0648,3.0026,2.988,2.9924,2.9995,3.0124,0.0,0.0,0.0,0.0,0.0,0.0,0.0,0.0,0.0,0.0,0.0,0.0,0.0,0.0,0.0,0.0,0.0,0.0,0.0,2.6491,2.7045,2.7247,2.7834,2.821,2.8353,2.8565,2.8823,2.9059,2.8916,2.8807,2.872,2.864,2.8573,2.8518,2.8417,2.8305,2.8161,2.8398,2.8596,0.0,0.0,2.9059,2.9227,2.9397,2.9563,2.9744,3.0079,3.0882,3.1872,0.0,0.0,3.2797,3.269,3.2697,3.2786,3.2734,0.0,3.3032,3.3096,3.3096,3.306,3.2809,3.2524,3.2133,3.1516,3.1074,3.067,3.0346,3.0122,0.0,0.0,0.0,0.0,0.0,0.0,0.0,3.1883,3.2268,3.2577,0.0,3.3374,0.0,3.419,3.4576,3.488,0.0,3.4192,3.3476,3.3181,3.3165,3.3041,3.2746,3.2962,3.3176,3.3346,3.3581,3.3797,3.4,3.4325,3.4497,3.4497,3.478,3.4899,3.4899,0.0,3.4804,3.4664,3.308,3.2397,3.2181,3.0675,3.0081,3.0081,3.0081,3.0189,3.0338,0.0,0.0,0.0,0.0,0.0,0.0,0.0,0.0,0.0,0.0,0.0,0.0,0.0,0.0,0.0,0.0,0.0,0.0,0.0,0.0,2.5594,2.634,2.6923,2.7232,2.7281,2.7024,2.6841,2.6762,2.6602,2.6472,2.6343,2.6275,2.6205,2.6117,2.5942,2.5825,2.5829,2.629,2.6809,2.7357,2.791,2.8389,2.8784,0.0,2.9132,2.9632,2.9792,3.0901,3.2446,0.0,3.3843,3.3848,3.3694,3.3477,3.3256,3.3096,3.2978,3.287,3.2897,3.2978,3.2897,3.216,3.2094,3.1842,3.0529,3.0085,2.9769,2.9129,0.0,2.8944,2.9443,0.0,3.0201,3.0779,0.0,3.1522,3.1832,3.2518,3.3043,3.3293,3.4066,3.4716,3.4992,3.5099,3.5305,3.5606,3.5391,3.4888,3.4123,3.4076,3.3779,3.3134,3.3159,3.3319,3.372,3.3736,3.3848,3.4126,3.4374,3.4497,3.4546,3.4804,3.4899,3.4899,0.0,0.0,3.4783,3.3278,3.2605,3.2368,3.0926,3.0314,3.0231,3.0231,3.038,3.0568,0.0,0.0,0.0,0.0,0.0,0.0,0.0,0.0,0.0,0.0,2.1576,0.0,0.0,0.0,0.0,0.0,0.0,0.0,0.0,0.0,0.0,2.4675,2.4713,2.5335,2.6622,2.6458,2.6582,2.7115,2.687,2.6713,2.6628,2.6498,2.6376,2.6268,2.6169,2.6015,2.5806,2.5898,2.5884,2.5834,2.6434,2.6651,2.6755,2.7777,0.0,0.0,3.0717,3.1699,3.2387,3.3087,3.3499,3.3694,3.345,3.3256,3.3112,3.2978,3.28,3.2676,3.2843,3.2924,3.2779,3.2149,3.1767,3.1363,3.0553,2.951,0.0,0.0,0.0,2.8248,2.8238,2.8945,0.0,3.0095,0.0,0.0,0.0,0.0,3.3033,0.0,0.0,0.0,0.0,0.0,0.0,0.0,0.0,0.0,3.5059,3.4952,3.475,3.4232,3.3699,3.3581,3.3848,3.3873,3.4,3.4275,3.4423,3.4546,3.4667,3.4828,3.4899,3.4899,0.0,0.0,3.4833,3.3932,3.3135,3.2418,3.1594,3.0945,3.0443,3.0443,3.0609,3.0831,0.0,0.0,0.0,0.0,0.0,0.0,0.0,0.0,0.0,0.0,2.1485,2.1581,0.0,0.0,0.0,0.0,0.0,0.0,0.0,0.0,0.0,0.0,2.4022,2.4531,2.524,2.5526,0.0,0.0,0.0,2.5686,2.5542,0.0,2.5297,2.5194,2.5038,2.4888,2.4781,2.5064,2.5057,2.4941,2.5579,2.5938,2.6165,0.0,0.0,0.0,0.0,3.1347,3.1919,3.2803,3.3111,3.3163,3.3365,3.3229,3.2951,3.28,3.2621,3.2523,3.2621,3.2773,3.2647,3.1623,3.1385,3.1038,2.9669,0.0,0.0,0.0,2.7849,2.7826,2.7987,0.0,0.0,0.0,0.0,0.0,0.0,0.0,0.0,0.0,0.0,0.0,0.0,0.0,0.0,0.0,0.0,0.0,3.5992,3.5665,3.524,3.4675,3.4351,3.413,3.4,3.4,3.4151,3.4399,3.4546,3.4643,3.4691,3.4851,3.4899,3.4899,3.4899,0.0,3.4833,3.4087,3.3597,3.3166,3.2089,3.1506,3.1225,3.0862,3.0871,3.1052,0.0,0.0,0.0,0.0,0.0,0.0,0.0,2.0658,2.0971,2.1617,2.2005,2.1915,2.11,2.1484,0.0,0.0,0.0,0.0,0.0,0.0,0.0,0.0,0.0,0.0,0.0,0.0,0.0,0.0,0.0,0.0,0.0,0.0,0.0,0.0,0.0,2.3847,2.3821,2.4255,2.4337,0.0,0.0,2.5488,0.0,0.0,0.0,0.0,0.0,0.0,3.1495,3.2331,3.2555,3.2567,3.3109,3.3103,3.287,3.2648,3.2523,3.2398,3.2398,3.254,3.2367,3.115,3.0928,3.0576,2.8862,2.8372,0.0,0.0,2.7336,2.7421,2.7862,0.0,2.8892,0.0,0.0,0.0,0.0,0.0,0.0,0.0,0.0,0.0,0.0,0.0,0.0,0.0,0.0,0.0,3.6858,3.6342,3.5721,3.5086,3.4952,3.4649,3.4151,3.4176,3.43,3.4546,3.4667,3.4763,3.4787,3.4923,3.4994,3.4994,3.4994,0.0,0.0,3.4363,3.4076,3.3901,3.26,3.2085,3.1976,3.1241,3.1092,3.1249,0.0,0.0,0.0,0.0,0.0,0.0,0.0,2.1122,2.1611,2.1681,2.3027,2.3641,2.2774,2.215,0.0,0.0,0.0,0.0,0.0,0.0,0.0,0.0,0.0,0.0,0.0,0.0,0.0,0.0,0.0,0.0,0.0,0.0,0.0,0.0,0.0,0.0,0.0,2.3847,0.0,0.0,0.0,0.0,0.0,0.0,0.0,0.0,0.0,0.0,0.0,0.0,0.0,3.2103,3.2401,3.2683,3.287,3.2648,0.0,0.0,3.2398,3.2168,3.1743,3.1136,3.0355,2.9582,2.8909,0.0,0.0,2.697,2.6815,2.6824,2.7289,2.7699,2.8498,0.0,0.0,3.0655,0.0,0.0,0.0,0.0,0.0,0.0,0.0,0.0,0.0,0.0,0.0,0.0,0.0,3.708,3.6501,3.5905,3.5404,3.488,3.4275,3.4399,3.4546,3.4667,3.4828,3.4947,3.5065,3.5198,3.5268,3.5268,0.0,0.0,0.0,3.5201,3.4766,3.4102,3.3294,3.269,3.2168,3.1441,3.1288,3.1479,0.0,0.0,0.0,0.0,0.0,0.0,0.0,2.1218,2.1911,2.2359,2.3419,2.4015,2.3659,2.2932,2.228,0.0,0.0,0.0,0.0,0.0,0.0,0.0,0.0,0.0,0.0,0.0,0.0,0.0,0.0,0.0,0.0,0.0,0.0,0.0,0.0,0.0,0.0,0.0,0.0,0.0,0.0,0.0,0.0,0.0,0.0,0.0,0.0,0.0,0.0,0.0,0.0,0.0,3.1879,3.1949,0.0,0.0,3.2551,3.2523,3.2523,3.2175,3.1675,3.1231,3.0354,2.9353,2.8422,0.0,2.689,2.6447,2.6253,2.633,2.6792,2.7201,2.7897,2.9155,2.9746,0.0,0.0,0.0,0.0,0.0,0.0,0.0,0.0,0.0,0.0,0.0,0.0,0.0,0.0,3.7906,3.7603,3.6913,3.6375,3.5813,3.5218,3.4897,3.4804,3.4947,3.5065,3.5175,3.5222,3.5268,3.5291,3.5291,0.0,0.0,0.0,3.5291,3.517,3.4908,3.4218,3.3584,3.3005,3.2301,3.1837,3.1559,0.0,0.0,0.0,0.0,0.0,0.0,2.0484,2.1215,2.1941,2.2459,2.3211,2.3711,2.3709,2.2995,2.231,2.1808,0.0,0.0,0.0,0.0,0.0,0.0,0.0,0.0,0.0,0.0,0.0,2.5076,0.0,0.0,0.0,0.0,0.0,0.0,0.0,0.0,0.0,0.0,0.0,0.0,0.0,0.0,0.0,0.0,0.0,0.0,0.0,0.0,0.0,0.0,0.0,0.0,0.0,3.1342,3.1267,0.0,3.2098,3.2071,3.2071,3.169,3.1209,3.0789,2.9856,2.8823,0.0,0.0,2.671,2.6198,2.6026,2.6129,2.6581,2.6972,2.7553,2.8592,2.952,3.0259,3.0709,0.0,0.0,0.0,0.0,0.0,0.0,0.0,0.0,0.0,0.0,0.0,0.0,3.8375,3.8285,3.7508,3.7222,3.669,3.5861,3.5479,3.5234,3.5175,3.5308,3.5377,3.5377,3.5383,3.5389,3.5389,0.0,0.0,0.0,3.5389,3.5475,3.5521,3.4832,3.4198,3.3608,3.2921,3.2248,3.1691,0.0,0.0,0.0,0.0,0.0,0.0,0.0,2.1189,2.1686,2.1617,2.2315,2.2804,2.2816,2.2103,2.1631,2.1701,0.0,0.0,0.0,0.0,0.0,0.0,0.0,0.0,0.0,0.0,2.513,2.4993,2.4926,2.4827,0.0,0.0,0.0,0.0,0.0,0.0,0.0,0.0,0.0,0.0,0.0,0.0,0.0,0.0,0.0,0.0,0.0,0.0,0.0,0.0,0.0,0.0,0.0,3.092,3.0912,3.0984,3.0929,3.0818,3.0818,3.0488,3.0006,2.9548,2.8608,2.7711,0.0,0.0,2.6312,2.6295,2.624,2.6327,2.6713,2.7078,2.7651,2.8716,2.9579,0.0,0.0,0.0,0.0,0.0,0.0,0.0,0.0,0.0,0.0,0.0,0.0,0.0,0.0,3.8472,3.8406,3.7536,3.7837,3.7355,3.6009,3.6114,3.5885,3.5291,3.5446,3.5492,3.5492,3.5571,3.56,0.0,0.0,0.0,0.0,3.56,3.5684,3.5727,3.4984,3.4366,3.3814,3.3076,3.2419,3.1894,0.0,0.0,0.0,0.0,0.0,0.0,0.0,2.1175,2.1687,2.1617,2.2308,2.2564,2.1987,2.1681,2.1313,2.0801,0.0,0.0,0.0,0.0,0.0,0.0,0.0,0.0,0.0,0.0,2.4953,2.4851,2.4798,2.4746,2.47,2.4692,0.0,0.0,0.0,0.0,0.0,0.0,0.0,0.0,0.0,0.0,0.0,0.0,0.0,0.0,0.0,0.0,0.0,0.0,0.0,0.0,0.0,0.0,0.0,3.0018,3.0504,0.0,3.1074,3.0604,3.0038,2.9736,2.8736,2.7695,2.73,0.0,2.5679,2.6195,2.5859,2.5603,2.6092,2.6875,2.7476,2.7592,2.9197,0.0,0.0,0.0,0.0,0.0,0.0,0.0,0.0,0.0,0.0,0.0,0.0,0.0,0.0,3.8472,3.8663,3.8406,3.8322,3.8066,3.7652,3.7376,3.6877,3.6185,3.6325,3.6101,3.5571,3.5577,0.0,0.0,0.0,0.0,0.0,3.56,3.5667,3.58,3.5654,3.5198,3.4572,3.3931,3.3231,3.251,0.0,0.0,0.0,0.0,0.0,0.0,0.0,2.0903,2.1189,2.1146,2.1559,2.1648,2.1103,2.1026,2.0812,2.03,0.0,0.0,0.0,0.0,0.0,0.0,0.0,0.0,0.0,2.4157,2.4749,2.4689,2.4676,2.466,2.466,2.4692,2.4283,2.3554,2.4057,0.0,0.0,0.0,0.0,0.0,0.0,0.0,2.5285,0.0,0.0,0.0,0.0,0.0,0.0,0.0,0.0,0.0,0.0,0.0,0.0,0.0,3.0064,3.0553,3.0553,3.003,2.9384,2.9108,2.8245,0.0,0.0,2.6208,2.5745,2.6212,2.5893,2.5623,2.587,2.6824,2.7453,2.7137,2.906,0.0,0.0,0.0,0.0,0.0,0.0,0.0,0.0,0.0,0.0,0.0,0.0,0.0,0.0,0.0,3.8805,3.8805,3.8825,3.8694,3.8479,3.8254,3.7771,3.7101,3.6884,3.6535,3.6045,3.5735,0.0,0.0,0.0,0.0,0.0,3.5684,3.5711,3.5817,3.5905,3.5557,3.4967,3.4582,3.3818,3.2909,0.0,0.0,0.0,0.0,0.0,0.0,0.0,0.0,0.0,0.0,2.033,2.0295,2.0292,2.0234,2.0207,0.0,0.0,0.0,0.0,0.0,0.0,0.0,0.0,0.0,2.3438,2.4195,2.4534,2.4451,2.4539,2.4582,2.459,2.4653,2.4306,2.3606,2.3603,2.3596,2.363,2.4124,2.4246,2.4107,2.3829,2.408,0.0,0.0,0.0,0.0,0.0,0.0,0.0,0.0,0.0,0.0,0.0,0.0,0.0,0.0,0.0,0.0,0.0,2.8952,0.0,0.0,0.0,0.0,0.0,2.6262,0.0,2.6296,2.6262,2.6157,2.6001,2.6916,2.7642,2.7402,0.0,0.0,0.0,0.0,0.0,0.0,0.0,0.0,0.0,0.0,0.0,0.0,0.0,0.0,0.0,0.0,3.8805,3.8805,3.9255,3.9246,3.869,3.8816,3.857,3.7973,3.7263,3.6897,3.6778,3.6028,0.0,0.0,0.0,0.0,0.0,3.5795,3.5795,3.5795,3.5795,3.5505,3.5067,3.5015,3.4243,3.3246,0.0,0.0,0.0,0.0,0.0,0.0,0.0,0.0,0.0,0.0,0.0,2.0277,2.0238,2.0216,0.0,0.0,0.0,0.0,0.0,0.0,0.0,0.0,0.0,0.0,2.3103,2.3832,2.4183,2.4126,2.4174,2.4275,2.4366,2.4539,2.426,2.3601,2.3655,2.3655,2.3589,2.3622,2.3891,2.4312,2.4095,2.4292,0.0,0.0,0.0,0.0,2.7035,2.7153,0.0,0.0,0.0,0.0,0.0,0.0,0.0,0.0,2.963,2.9496,2.9496,0.0,2.8281,2.7842,2.7313,2.677,0.0,2.5826,2.5612,2.6179,2.5862,2.5708,2.6508,2.7267,2.7999,2.8682,0.0,0.0,0.0,0.0,0.0,0.0,0.0,0.0,0.0,0.0,0.0,0.0,0.0,0.0,0.0,0.0,3.8805,3.8805,3.9345,3.9568,3.9452,3.9682,3.9437,3.8734,3.8565,3.7902,3.6876,3.669,0.0,0.0,0.0,0.0,3.5795,3.5795,3.5795,3.5795,3.5795,3.5786,3.5698,3.5134,3.4772,3.4479,0.0,0.0,0.0,0.0,0.0,0.0,0.0,0.0,0.0,0.0,0.0,0.0,0.0,0.0,0.0,0.0,0.0,0.0,0.0,0.0,0.0,0.0,0.0,2.2252,2.3297,2.4008,2.4342,2.4277,2.4704,2.4811,2.4636,2.4848,2.4443,2.3488,2.3259,2.3335,2.3644,2.3528,2.3888,2.4464,2.421,0.0,0.0,0.0,0.0,0.0,2.6851,2.7121,0.0,2.6892,2.7653,2.855,0.0,0.0,0.0,0.0,2.9531,2.9321,2.9321,2.8818,2.8217,2.78,2.7234,2.6635,2.6171,2.5766,2.562,2.6034,2.6033,2.6158,2.6741,2.7835,0.0,0.0,0.0,0.0,0.0,0.0,0.0,0.0,0.0,0.0,0.0,0.0,0.0,0.0,0.0,0.0,0.0,0.0,3.8832,3.8887,3.9425,3.9703,3.9703,3.9986,3.991,3.9503,3.9157,3.8434,3.7398,3.7058,0.0,0.0,0.0,0.0,3.5883,3.5817,3.5773,3.5706,3.5706,3.5778,3.5854,3.5445,3.5173,3.4901,0.0,0.0,0.0,0.0,0.0,0.0,0.0,0.0,0.0,0.0,0.0,0.0,0.0,0.0,0.0,0.0,0.0,0.0,0.0,0.0,0.0,0.0,0.0,2.2309,2.3761,2.4342,2.464,2.4692,2.5419,2.5548,2.5091,2.5244,2.4635,2.3371,2.2906,2.3056,2.3702,2.3635,2.3998,2.4572,2.4257,0.0,0.0,0.0,0.0,0.0,0.0,0.0,0.0,2.686,2.7578,2.851,2.8414,0.0,0.0,0.0,0.0,0.0,2.9068,2.8695,2.8218,2.7837,2.7252,2.6636,2.6262,2.6171,2.619,2.6208,2.6667,2.7101,2.7225,2.8564,0.0,0.0,0.0,0.0,0.0,0.0,0.0,0.0,0.0,0.0,0.0,0.0,0.0,0.0,0.0,0.0,0.0,0.0,0.0,3.9023,3.9451,3.9703,3.9729,3.9986,4.0096,4.0096,3.9486,3.8756,3.7993,3.7364,3.6728,0.0,0.0,0.0,3.5954,3.5839,3.5706,3.5577,3.5554,3.5639,3.5728,3.5751,3.5448,3.5015,0.0,0.0,0.0,0.0,0.0,0.0,0.0,0.0,0.0,0.0,0.0,0.0,0.0,0.0,0.0,0.0,0.0,0.0,0.0,0.0,0.0,2.126,2.1857,2.2803,2.4178,2.4249,2.4515,2.5028,2.5201,2.539,2.5501,2.5085,2.4361,2.3409,2.3484,2.3581,2.3695,2.363,2.3997,2.4575,2.4356,0.0,0.0,0.0,0.0,0.0,0.0,0.0,0.0,2.7227,2.7724,2.8247,2.867,0.0,0.0,0.0,0.0,0.0,2.885,2.8787,2.8607,2.8155,2.77,2.7368,2.7413,2.7481,2.7545,2.7663,0.0,0.0,0.0,2.9588,0.0,0.0,0.0,0.0,0.0,0.0,0.0,0.0,0.0,0.0,0.0,0.0,0.0,0.0,0.0,0.0,0.0,0.0,0.0,3.9245,3.9547,3.9755,3.9875,4.0037,4.0096,4.0096,3.9994,3.9265,3.8003,3.7868,3.7183,0.0,0.0,3.5949,3.5817,3.5706,3.5594,3.5498,3.5383,3.536,3.5383,3.5498,3.5504,3.552,0.0,0.0,0.0,0.0,0.0,0.0,0.0,0.0,0.0,0.0,0.0,0.0,0.0,0.0,0.0,0.0,0.0,0.0,0.0,0.0,2.0851,2.1032,2.2064,2.3072,2.3998,2.4323,2.4721,2.525,2.58,2.5949,2.5749,2.5105,2.4689,2.4455,2.3787,2.3766,2.4214,2.3703,2.3904,2.4518,0.0,0.0,0.0,0.0,0.0,0.0,0.0,0.0,0.0,0.0,2.7517,2.8025,2.8484,0.0,0.0,0.0,0.0,0.0,2.8589,2.858,2.8604,2.877,2.832,2.7748,2.7486,2.7515,2.7695,2.8144,0.0,0.0,0.0,0.0,0.0,0.0,0.0,0.0,0.0,0.0,0.0,0.0,0.0,0.0,0.0,0.0,0.0,0.0,0.0,0.0,0.0,0.0,0.0,0.0,3.9616,3.9755,3.9901,4.0037,4.0096,4.0096,4.0096,3.9366,3.8003,3.8003,3.728,3.5997,0.0,3.5817,3.5667,3.5571,3.5475,3.54,3.5314,3.5291,3.5331,3.5446,3.5543,3.5622,0.0,0.0,0.0,0.0,0.0,0.0,0.0,0.0,0.0,0.0,0.0,0.0,0.0,0.0,0.0,0.0,0.0,0.0,0.0,0.0,2.1092,2.0855,2.2157,2.3236,2.4004,2.4396,2.4929,2.5598,2.632,2.6385,2.5841,2.5406,2.521,2.5187,2.4217,2.4081,2.4556,2.3883,2.3939,2.4435,0.0,0.0,0.0,0.0,0.0,0.0,0.0,0.0,0.0,0.0,0.0,0.0,0.0,0.0,0.0,2.8873,2.8605,2.8348,2.8348,2.8446,2.8667,2.9214,2.8926,2.8421,2.8148,2.8186,2.8433,2.8997,0.0,0.0,0.0,0.0,0.0,0.0,0.0,0.0,0.0,0.0,0.0,0.0,0.0,0.0,0.0,0.0,0.0,0.0,0.0,0.0,0.0,0.0,0.0,0.0,3.9694,3.9807,3.9952,4.0062,4.0096,4.0096,4.0096,3.9366,3.798,3.7973,3.7205,3.5883,3.5773,3.5661,3.5509,3.5406,3.5291,3.5198,3.5152,3.5152,3.5222,3.5314,3.5452,3.5594,0.0,0.0,0.0,0.0,0.0,0.0,0.0,0.0,0.0,0.0,0.0,0.0,0.0,0.0,0.0,0.0,0.0,0.0,0.0,0.0,2.099,2.0727,2.2054,2.3371,2.4618,2.4426,2.4944,2.6247,2.6243,2.6067,2.5713,2.6176,2.579,2.4763,2.5027,2.4845,2.433,2.4254,2.4273,2.4294,2.4095,0.0,0.0,0.0,0.0,0.0,0.0,0.0,0.0,0.0,0.0,0.0,0.0,0.0,2.8794,2.8645,2.8429,2.821,2.821,2.8585,2.8997,2.918,2.9459,2.9873,3.0575,3.0824,3.0987,3.1164,0.0,0.0,0.0,0.0,0.0,0.0,0.0,0.0,0.0,0.0,0.0,0.0,0.0,0.0,0.0,0.0,0.0,0.0,0.0,0.0,0.0,0.0,0.0,0.0,0.0,3.9935,4.007,4.0113,4.0096,4.0096,4.0096,3.9334,3.7905,3.7905,3.7047,3.5537,3.5537,3.5446,3.5291,3.5041,3.4947,3.4899,3.4643,3.4707,3.4923,3.4947,3.5182,3.5514,0.0,0.0,0.0,0.0,0.0,0.0,0.0,0.0,0.0,0.0,0.0,0.0,0.0,0.0,0.0,0.0,0.0,0.0,0.0,2.021,2.0933,2.0707,2.2014,2.31,2.3871,2.4086,2.4797,2.6045,2.6026,2.6058,2.6135,2.6045,2.5901,2.5702,2.5589,2.5454,2.5277,2.485,2.466,2.4626,2.3994,2.3624,0.0,0.0,0.0,0.0,0.0,0.0,0.0,0.0,2.7474,2.7625,2.8656,2.8881,2.8771,2.8636,2.8405,2.8302,2.8715,2.8971,2.9343,3.0219,3.0617,3.0779,3.0752,3.0848,3.1099,3.1659,3.2193,0.0,0.0,0.0,0.0,0.0,0.0,0.0,0.0,0.0,0.0,0.0,0.0,0.0,0.0,0.0,0.0,0.0,0.0,0.0,0.0,0.0,0.0,0.0,0.0,3.9961,4.0096,4.0096,4.0096,4.0096,3.9656,3.8845,3.7769,3.728,3.6474,3.536,3.5291,3.5175,3.5041,3.4851,3.4732,3.4643,3.4546,3.4546,3.4667,3.4851,3.4994,3.5152,0.0,0.0,0.0,0.0,0.0,0.0,0.0,0.0,0.0,0.0,0.0,0.0,0.0,0.0,0.0,0.0,0.0,0.0,1.8797,1.9937,2.0643,2.0742,2.1747,2.2668,2.342,2.3639,2.4348,2.5537,2.5748,2.5974,2.6243,2.6017,2.5969,2.6036,2.5887,2.5764,2.562,2.523,2.5064,2.5004,2.4432,2.4088,0.0,0.0,0.0,0.0,0.0,0.0,0.0,0.0,2.7277,2.7577,2.8388,2.8763,2.885,2.8708,2.8453,2.8413,2.9087,2.9348,2.9724,3.0907,3.1585,3.1878,3.1566,3.1632,3.1977,3.2754,3.3395,3.4211,3.5477,0.0,0.0,0.0,0.0,0.0,0.0,0.0,0.0,0.0,0.0,0.0,0.0,0.0,0.0,0.0,0.0,0.0,0.0,0.0,0.0,0.0,0.0,4.0011,4.0096,4.0096,4.0096,4.0096,3.9082,3.8282,3.7663,3.6946,3.6071,3.5175,3.5065,3.4947,3.4763,3.457,3.4399,3.425,3.425,3.43,3.4399,3.457,3.4739,3.4923,0.0,0.0,0.0,0.0,0.0,0.0,0.0,0.0,0.0,0.0,0.0,0.0,0.0,0.0,0.0,0.0,0.0,0.0,1.8806,1.9422,2.0107,2.0756,2.1252,2.2116,2.3442,2.3169,2.3604,2.48,2.5413,2.5772,2.5915,2.6242,2.6084,2.5527,2.5918,2.5732,2.5128,2.5316,2.5393,2.5411,2.5459,2.5361,2.5174,0.0,0.0,0.0,0.0,0.0,0.0,0.0,2.7005,2.7549,2.7967,2.8553,2.9052,2.885,2.8604,2.855,2.9243,2.9715,3.0213,3.1017,3.2206,3.3257,3.3385,3.3684,3.411,3.4769,3.5181,3.5616,3.6282,0.0,0.0,0.0,0.0,0.0,0.0,0.0,0.0,0.0,0.0,0.0,0.0,0.0,0.0,0.0,0.0,0.0,0.0,0.0,0.0,0.0,0.0,0.0,4.0096,4.0096,4.0096,4.0079,3.8477,3.7696,3.7663,3.6929,3.5961,3.4899,3.4899,3.4739,3.4472,3.4201,3.3949,3.3694,3.3694,3.3848,3.4101,3.4101,3.4423,3.4899,0.0,0.0,0.0,0.0,0.0,0.0,0.0,0.0,0.0,0.0,0.0,0.0,0.0,0.0,0.0,0.0,0.0,0.0,1.901,1.9641,2.0044,2.0098,2.1132,2.1814,2.2015,2.3027,2.3917,2.4658,2.5318,2.5677,2.5756,2.5956,2.602,2.6013,2.6219,2.6267,2.6208,2.5788,2.567,2.5705,2.5221,2.4971,2.4962,0.0,0.0,0.0,0.0,0.0,0.0,0.0,0.0,0.0,2.7533,2.8104,2.8589,2.8417,2.8559,2.8997,3.0198,3.054,0.0,3.266,0.0,0.0,0.0,3.4827,3.4714,0.0,3.5962,3.6327,3.7038,0.0,0.0,0.0,0.0,0.0,0.0,0.0,0.0,0.0,0.0,0.0,0.0,0.0,0.0,0.0,0.0,0.0,0.0,0.0,0.0,0.0,0.0,0.0,4.0096,4.0096,4.0096,4.0079,3.8477,3.7648,3.75,3.6059,3.5169,3.4756,3.4546,3.4374,3.4201,3.3924,3.3771,3.3694,3.3694,3.3761,3.3848,3.4025,3.4201,3.4374,0.0,0.0,0.0,0.0,0.0,0.0,0.0,0.0,0.0,0.0,2.3939,2.3082,0.0,0.0,0.0,0.0,0.0,0.0,0.0,1.953,1.9777,1.996,2.089,2.1513,2.1754,2.3193,2.4033,2.4236,2.5151,2.56,2.5586,2.5991,2.6232,2.6325,2.6772,2.7053,2.7182,2.6838,2.6624,2.6503,2.6078,2.577,2.5612,0.0,0.0,0.0,0.0,0.0,0.0,0.0,0.0,0.0,2.7221,2.7729,2.827,2.8421,2.8586,2.9058,3.078,3.1074,0.0,3.3474,3.4138,3.4672,3.6136,0.0,0.0,0.0,0.0,0.0,0.0,0.0,0.0,0.0,0.0,0.0,0.0,0.0,0.0,0.0,0.0,0.0,0.0,0.0,0.0,0.0,0.0,0.0,0.0,0.0,0.0,0.0,0.0,0.0,4.0096,4.0096,4.0096,4.0079,3.8411,3.7582,3.7434,3.5682,3.4804,3.4594,3.4349,3.4126,3.3924,3.3771,3.3658,3.3555,3.3555,3.3581,3.3658,3.3797,3.3949,3.4126,0.0,0.0,0.0,0.0,0.0,0.0,0.0,0.0,0.0,0.0,2.3889,2.3052,0.0,0.0,0.0,0.0,0.0,0.0,0.0,0.0,1.9443,2.0092,2.0573,2.1283,2.2309,2.3519,2.3967,2.3702,2.4978,2.5575,2.5509,2.6251,2.659,2.6623,2.7413,2.7826,2.7963,2.8093,2.7926,2.7549,2.7557,2.7245,2.6776,2.6725,0.0,0.0,0.0,0.0,0.0,0.0,0.0,0.0,2.7021,2.7438,2.8112,2.8694,2.8682,2.8954,3.1101,3.1371,0.0,3.3727,3.4732,0.0,3.6911,3.7224,0.0,0.0,0.0,0.0,0.0,0.0,0.0,0.0,0.0,0.0,0.0,0.0,0.0,0.0,0.0,0.0,0.0,0.0,0.0,0.0,0.0,0.0,0.0,0.0,0.0,0.0,0.0,0.0,4.0087,4.007,4.007,0.0,3.8379,3.7585,3.7534,3.5716,3.4756,3.4472,3.4201,3.3924,3.3694,3.3684,3.3529,3.3309,3.3309,3.3372,3.3477,3.3503,3.3745,3.4075,0.0,0.0,0.0,0.0,0.0,0.0,0.0,0.0,0.0,0.0,0.0,0.0,0.0,0.0,0.0,0.0,0.0,0.0,0.0,0.0,1.9527,1.9567,2.0408,2.1424,2.2584,2.3699,2.4097,2.3769,2.5053,2.5878,2.6269,2.6434,2.678,2.7203,2.741,2.7536,2.7602,2.7643,2.7729,2.7862,2.7385,2.7258,2.7275,2.686,2.6759,0.0,0.0,0.0,0.0,0.0,0.0,0.0,2.6826,2.726,2.7943,2.845,2.8887,2.9629,3.1593,3.1923,0.0,0.0,3.6329,3.716,3.7371,3.7435,0.0,0.0,0.0,0.0,0.0,0.0,0.0,0.0,0.0,0.0,0.0,0.0,0.0,0.0,0.0,0.0,0.0,0.0,0.0,0.0,0.0,0.0,0.0,0.0,0.0,0.0,0.0,3.9833,3.9952,3.9833,3.9833,0.0,3.8748,3.8203,3.8136,3.5802,3.4594,3.4325,3.405,3.3848,3.3694,3.3581,3.345,3.3309,3.3309,3.3335,3.3361,3.345,3.3633,3.3838,0.0,0.0,0.0,0.0,0.0,0.0,0.0,0.0,0.0,0.0,0.0,0.0,0.0,0.0,0.0,0.0,0.0,0.0,0.0,0.0,1.9917,2.0425,2.0858,2.1651,2.2829,2.3886,2.4256,2.3852,2.5448,2.6244,2.6298,2.6609,2.7026,2.7557,2.7905,2.8113,2.817,2.823,2.8249,2.8186,2.7981,2.7901,2.7811,2.7292,2.7249,2.7453,2.7192,0.0,0.0,0.0,0.0,0.0,0.0,0.0,2.713,2.8131,2.876,2.9521,3.1186,0.0,0.0,3.5368,0.0,3.7374,3.7621,3.77,0.0,0.0,0.0,0.0,0.0,0.0,0.0,0.0,0.0,0.0,0.0,0.0,0.0,0.0,0.0,0.0,0.0,0.0,0.0,0.0,0.0,0.0,0.0,0.0,0.0,0.0,3.9651,3.9729,3.9807,3.9729,3.9729,3.9807,3.8838,3.8177,3.7718,3.6009,3.507,3.4805,3.4297,3.3975,3.3771,3.3642,3.3529,3.3372,3.3335,3.3309,3.3309,3.3372,3.3477,3.3617,0.0,0.0,0.0,0.0,0.0,0.0,0.0,0.0,0.0,0.0,0.0,0.0,0.0,0.0,0.0,0.0,0.0,0.0,0.0,0.0,0.0,2.1838,2.1534,2.1871,2.3032,2.4098,2.4378,2.3885,2.5805,2.6543,2.6187,2.6851,2.7413,2.7875,2.8482,2.8763,2.8826,2.8959,2.8812,2.8513,2.8667,2.8604,2.8367,2.7748,2.7772,2.8032,2.7457,2.6838,2.6271,2.6391,0.0,0.0,0.0,0.0,2.642,2.7779,2.8596,2.9373,3.0656,0.0,3.3437,3.5538,3.6516,0.0,3.7774,0.0,0.0,0.0,0.0,0.0,0.0,0.0,0.0,0.0,0.0,0.0,0.0,0.0,0.0,0.0,0.0,0.0,0.0,0.0,0.0,0.0,0.0,0.0,0.0,0.0,3.9379,3.9379,3.9494,3.9573,3.9573,3.9573,3.9599,3.9625,3.892,3.8192,3.745,3.6604,3.6007,3.5615,3.483,3.4354,3.4101,3.3845,3.3658,3.3477,3.3372,3.3335,3.3309,3.3309,3.3372,3.3529,0.0,0.0,0.0,0.0,0.0,0.0,0.0,0.0,0.0,0.0,0.0,0.0,0.0,0.0,0.0,0.0,0.0,0.0,0.0,0.0,0.0,2.3004,2.2044,2.203,2.323,2.4243,2.4486,2.3885,2.5621,2.6479,2.6548,2.7378,2.8037,2.8473,2.8446,2.846,2.8468,2.8597,2.8724,2.8824,2.8554,2.8677,2.8886,2.7948,2.779,2.8049,2.7679,2.7107,2.6585,2.6827,2.6419,0.0,0.0,0.0,2.6906,2.7504,2.8676,3.0023,3.1132,0.0,3.4934,0.0,3.6816,3.7362,0.0,0.0,0.0,0.0,0.0,0.0,0.0,0.0,0.0,0.0,0.0,0.0,0.0,0.0,0.0,0.0,0.0,0.0,0.0,0.0,0.0,0.0,0.0,0.0,0.0,3.9204,3.8887,3.8887,3.8914,3.8969,3.9104,3.9104,3.9175,3.9352,3.9226,3.9126,3.8984,3.8219,3.7437,3.6666,3.5656,3.5168,3.4965,3.4182,3.3736,3.3503,3.3477,3.3398,3.3309,3.3309,3.3372,3.3529,0.0,0.0,0.0,0.0,0.0,0.0,0.0,0.0,0.0,0.0,0.0,0.0,0.0,0.0,0.0,0.0,0.0,0.0,0.0,0.0,0.0,2.3252,2.268,2.2689,2.3453,2.4453,2.4827,2.4564,2.6246,2.7307,2.7782,2.8237,2.8593,2.8857,2.9164,2.9307,2.9307,2.9419,2.9339,2.9173,2.9218,2.9291,2.9307,2.8811,2.8641,2.863,2.832,2.7578,2.6725,2.6509,2.5942,2.5338,2.5344,0.0,0.0,0.0,2.8078,2.9232,3.102,3.2655,3.4126,0.0,3.6153,3.6956,0.0,0.0,0.0,0.0,0.0,0.0,0.0,0.0,0.0,0.0,0.0,0.0,0.0,0.0,0.0,0.0,0.0,0.0,0.0,0.0,0.0,0.0,0.0,0.0,3.9793,3.9535,3.9231,3.8805,3.8805,3.8832,3.8887,3.8887,3.8942,3.9013,3.9013,3.9067,3.9104,3.8807,3.8236,3.7458,3.6162,3.5518,3.5249,3.4367,3.3848,3.3591,3.3529,3.3372,3.3203,3.3282,3.3282,3.3309,0.0,0.0,0.0,0.0,0.0,0.0,0.0,0.0,0.0,0.0,0.0,0.0,0.0,0.0,0.0,0.0,0.0,0.0,0.0,0.0,0.0,2.362,2.3246,2.3224,2.3642,2.4611,2.5116,2.5163,2.6759,2.7927,2.8652,2.8951,2.918,2.9339,2.9629,2.978,2.978,2.9898,2.9768,2.9506,2.9887,2.9927,2.9714,2.9606,2.9451,2.9205,2.8794,2.7997,2.7099,2.6516,2.5738,2.502,2.5081,2.5078,0.0,0.0,0.0,0.0,0.0,0.0,3.2957,3.4512,3.5449,3.6218,0.0,0.0,0.0,0.0,0.0,0.0,0.0,0.0,0.0,0.0,0.0,0.0,0.0,0.0,0.0,0.0,0.0,0.0,0.0,0.0,0.0,0.0,0.0,0.0,3.9943,3.9846,3.9462,3.8727,3.8711,3.8711,3.8711,3.8722,3.875,3.8805,3.8805,3.886,3.8942,3.8942,3.8591,3.7867,3.6609,3.5949,3.5638,3.4599,3.3975,3.3694,3.3581,3.3372,3.315,3.3229,3.3203,3.3176,0.0,0.0,0.0,0.0,0.0,0.0,0.0,0.0,0.0,0.0,0.0,0.0,2.5185,2.5142,2.5321,2.5971,0.0,0.0,0.0,0.0,0.0,2.4524,2.3604,0.0,2.3777,2.4703,2.5217,2.5296,2.6704,2.7803,2.8532,2.931,2.9846,3.0207,2.9474,2.9167,2.9153,2.9411,2.9585,2.9731,3.0253,3.0308,3.007,2.9998,2.9881,2.9656,2.875,2.8209,2.7871,2.7379,2.6365,2.528,2.5352,2.5381,2.5505,0.0,0.0,0.0,0.0,3.1723,0.0,3.456,3.5027,0.0,0.0,0.0,0.0,0.0,0.0,0.0,0.0,0.0,0.0,0.0,0.0,0.0,0.0,0.0,0.0,0.0,0.0,0.0,0.0,0.0,0.0,0.0,0.0,0.0,4.051,3.9862,3.9165,3.8452,3.842,3.842,3.842,3.8532,3.8655,3.8805,3.8805,3.8805,3.8805,3.8805,3.8455,3.7767,3.7127,3.6755,3.6512,3.4937,3.405,3.3694,3.3694,3.3529,3.3282,3.315,3.3176,3.3309,0.0,0.0,0.0,0.0,0.0,0.0,0.0,0.0,0.0,0.0,0.0,0.0,0.0,2.5713,2.5643,2.5857,2.5967,0.0,0.0,0.0,0.0,2.5317,2.4884,2.465,2.4638,2.5088,2.5789,2.679,2.7294,2.8307,2.9774,2.9645,3.0037,3.0806,3.0512,3.0365,3.0394,3.048,3.0413,3.0248,3.0612,3.0675,3.06,3.0941,0.0,0.0,0.0,0.0,0.0,2.8013,2.7373,2.6563,2.568,2.5421,2.5586,2.6224,2.7408,0.0,0.0,0.0,0.0,3.251,3.3874,0.0,0.0,0.0,0.0,0.0,0.0,0.0,0.0,0.0,0.0,0.0,0.0,0.0,0.0,0.0,0.0,0.0,0.0,0.0,0.0,0.0,0.0,0.0,0.0,0.0,4.0529,3.9728,3.8976,3.8282,3.8135,3.8135,3.825,3.8323,3.842,3.8544,3.8544,3.8572,3.8655,3.8655,3.8363,3.7767,3.7081,3.643,3.5778,3.4732,3.405,3.3694,3.3694,3.3477,3.3176,3.3203,3.3203,3.3176,0.0,0.0,0.0,0.0,0.0,0.0,0.0,0.0,0.0,0.0,0.0,0.0,0.0,0.0,2.6677,2.7112,2.7281,2.73,2.709,2.7247,2.6962,2.6032,2.5927,2.5758,2.5514,2.5707,2.6432,2.7704,2.7637,2.8621,3.0562,2.9818,3.0088,3.1087,3.1175,3.1248,3.1248,3.1308,0.0,3.1351,0.0,0.0,3.1264,0.0,0.0,0.0,0.0,0.0,0.0,0.0,0.0,2.764,2.6523,2.6054,2.5911,2.6001,2.6922,0.0,2.851,0.0,0.0,0.0,0.0,0.0,0.0,0.0,0.0,0.0,0.0,0.0,0.0,0.0,0.0,0.0,0.0,0.0,0.0,0.0,0.0,0.0,0.0,0.0,0.0,0.0,0.0,0.0,0.0,0.0,4.0113,3.9495,3.8872,3.8139,3.7963,3.7963,3.8094,3.818,3.8221,3.8335,3.8363,3.8464,3.8532,3.8532,3.8084,3.7263,3.6773,3.6111,3.5352,3.4593,3.4101,3.3745,3.372,3.3503,3.3229,3.3229,3.3203,3.3176,0.0,0.0,0.0,0.0,0.0,0.0,0.0,0.0,0.0,2.6745,0.0,0.0,0.0,0.0,0.0,2.9879,3.018,2.9772,2.8537,2.8643,2.814,2.6728,0.0,0.0,0.0,2.6538,2.7046,2.793,2.7728,2.8682,3.0674,2.9872,3.0088,3.1102,3.1403,3.1526,3.154,0.0,3.2275,3.2976,0.0,3.2372,3.2132,0.0,0.0,0.0,3.1111,3.1254,0.0,0.0,0.0,0.0,0.0,2.7233,2.6518,2.5615,2.6293,0.0,0.0,0.0,0.0,0.0,0.0,0.0,0.0,0.0,0.0,0.0,0.0,0.0,0.0,0.0,0.0,0.0,0.0,0.0,0.0,0.0,0.0,0.0,0.0,0.0,0.0,0.0,0.0,0.0,0.0,4.0097,3.9256,3.9162,3.8753,3.7921,3.7905,3.7905,3.7905,3.8078,3.8209,3.8209,3.8351,3.8391,3.8391,3.8391,3.763,3.6303,3.6303,3.5944,3.5293,3.4593,3.4151,3.3873,3.3745,3.3633,3.3508,3.3261,3.325,3.3372,0.0,0.0,0.0,0.0,0.0,0.0,0.0,0.0,2.6607,0.0,0.0,0.0,2.9665,2.9541,2.9467,2.9824,3.0069,3.0143,2.993,3.0211,2.9686,2.8183,2.8217,2.7861,2.7049,2.7262,2.7799,2.8605,2.8467,2.9188,3.0674,2.9989,3.0184,3.1102,3.1524,3.1926,3.2251,3.2441,0.0,3.302,3.3168,3.3366,0.0,0.0,0.0,0.0,0.0,3.2097,0.0,0.0,3.0133,2.8796,0.0,0.0,2.6628,2.6327,2.6479,0.0,2.7378,0.0,0.0,0.0,0.0,0.0,0.0,0.0,0.0,0.0,0.0,0.0,0.0,0.0,0.0,0.0,0.0,0.0,0.0,0.0,0.0,0.0,0.0,0.0,0.0,0.0,0.0,0.0,3.9922,3.9446,3.9224,3.8507,3.795,3.7628,3.7612,3.7642,3.7759,3.7905,3.8049,3.8209,3.8351,3.8391,3.8391,3.8391,3.763,3.6303,3.6303,3.56,3.4426,3.4232,3.405,3.3899,3.3848,3.4092,3.4425,3.4372,3.4649,3.509,0.0,0.0,0.0,0.0,0.0,0.0,0.0,0.0,2.7615,0.0,0.0,0.0,3.0906,3.1496,3.176,3.1707,3.1951,3.1887,3.1453,3.1661,3.1149,2.9676,2.9642,2.9334,2.8645,2.8555,2.8779,2.9313,2.9186,2.9667,3.0674,3.0289,3.0494,3.1235,3.197,3.2463,3.2764,0.0,0.0,0.0,3.3789,0.0,0.0,3.4178,3.3975,0.0,0.0,0.0,3.2148,3.1779,3.0765,0.0,0.0,0.0,0.0,0.0,0.0,0.0,0.0,0.0,0.0,0.0,0.0,0.0,0.0,3.1859,0.0,0.0,0.0,0.0,0.0,0.0,0.0,0.0,0.0,0.0,0.0,0.0,0.0,0.0,0.0,0.0,0.0,0.0,0.0,0.0,3.9147,3.8818,3.8672,3.8011,3.7599,3.751,3.751,3.7539,3.7628,3.7817,3.7963,3.8078,3.8294,3.8391,3.8391,3.8391,3.7776,3.6724,3.6724,3.6076,3.5024,3.5024,3.4778,3.4468,3.4681,3.4999,3.5289,3.5236,3.5465,3.5801,0.0,0.0,0.0,0.0,0.0,0.0,0.0,0.0,0.0,0.0,3.0374,3.087,3.207,3.3496,3.4368,3.4368,3.4558,3.4181,3.2993,3.3051,3.2552,3.1265,3.1024,3.0799,3.0566,3.0043,2.985,2.9977,2.984,3.0154,3.0814,3.0757,3.0968,3.147,0.0,0.0,0.0,0.0,0.0,3.4909,3.4513,3.4656,0.0,0.0,3.4485,0.0,3.4262,3.4105,3.3677,3.1904,3.1029,0.0,0.0,0.0,0.0,0.0,2.6788,0.0,0.0,0.0,0.0,0.0,0.0,0.0,2.9621,3.0732,3.1563,0.0,0.0,0.0,0.0,0.0,0.0,0.0,0.0,0.0,0.0,0.0,0.0,0.0,0.0,0.0,0.0,0.0,3.8278,3.8278,3.8331,3.8193,3.7905,3.7642,3.751,3.751,3.751,3.751,3.751,3.7759,3.7905,3.7889,3.825,3.8391,3.8391,3.8391,3.8003,3.7295,3.7323,3.6934,3.6329,3.6427,3.6032,3.539,3.5856,3.612,3.6185,3.6066,3.6071,3.6135,0.0,0.0,0.0,0.0,0.0,0.0,0.0,0.0,2.9798,3.0866,3.22,3.3149,3.334,3.3886,3.4214,3.4083,3.437,3.4437,3.4233,3.4412,3.411,3.3187,3.2613,3.1878,3.0934,3.0526,3.035,3.0368,3.0418,3.0824,3.1566,3.1136,3.1407,3.2288,0.0,0.0,0.0,0.0,0.0,3.5133,3.521,0.0,3.5747,3.5232,3.5333,3.5713,3.5537,3.4872,3.3849,0.0,3.1561,3.1557,0.0,0.0,0.0,0.0,0.0,0.0,0.0,0.0,0.0,0.0,0.0,0.0,2.9283,3.0006,3.052,0.0,0.0,0.0,0.0,0.0,0.0,0.0,0.0,0.0,0.0,0.0,0.0,0.0,0.0,0.0,0.0,0.0,3.7643,3.7533,3.7814,3.7934,3.7759,3.7599,3.751,3.751,3.751,3.751,3.751,3.7759,3.7905,3.7889,3.825,3.8391,3.8391,3.8391,3.8003,3.7323,3.74,3.7091,3.6531,3.7224,3.7002,3.6244,3.6348,3.6824,3.7437,3.741,3.7742,3.8199,0.0,0.0,0.0,0.0,0.0,0.0,0.0,0.0,3.0178,3.1532,3.3268,3.4445,3.4549,3.5389,3.5963,3.5985,3.5897,3.572,3.5404,3.5196,3.4769,3.4018,3.3579,3.3049,3.2409,3.1998,3.1688,3.1495,3.1519,3.1641,3.1794,3.1603,3.1885,0.0,0.0,0.0,0.0,0.0,3.5553,3.5821,3.5606,0.0,3.5975,3.5797,3.5829,3.6023,3.6068,3.5369,3.43,3.3549,3.294,0.0,0.0,3.0606,3.0022,0.0,2.8463,2.7862,0.0,0.0,0.0,2.7032,0.0,0.0,0.0,2.8596,2.933,0.0,0.0,0.0,0.0,0.0,0.0,0.0,0.0,0.0,0.0,0.0,0.0,0.0,0.0,0.0,0.0,0.0,3.6923,3.6821,3.7247,3.7434,3.7291,3.7496,3.7569,3.751,3.751,3.7539,3.7599,3.7788,3.7963,3.8049,3.8379,3.8504,3.8504,3.8572,3.8404,3.8046,3.8128,3.7959,3.7692,3.8187,3.8218,3.789,3.7713,3.7969,3.8405,3.8405,3.8656,3.9007,0.0,0.0,0.0,0.0,0.0,0.0,0.0,0.0,3.0923,3.257,3.4201,3.5287,3.5502,3.6729,3.7595,3.779,3.7426,3.6956,0.0,0.0,0.0,3.4754,3.4421,3.412,3.3826,3.3253,3.2835,3.261,3.249,3.2291,0.0,0.0,0.0,0.0,0.0,0.0,0.0,0.0,0.0,3.6626,0.0,3.6092,3.64,3.6513,3.6538,3.6514,3.6618,3.6006,3.5161,3.5171,0.0,3.322,3.2564,3.1721,0.0,0.0,0.0,0.0,0.0,0.0,0.0,0.0,0.0,2.6562,0.0,0.0,0.0,2.7816,0.0,0.0,0.0,0.0,0.0,0.0,0.0,0.0,0.0,0.0,0.0,0.0,0.0,0.0,0.0,0.0,3.6094,3.6297,3.6669,3.6901,3.6934,3.7278,3.7499,3.7524,3.751,3.7553,3.77,3.7847,3.7992,3.8209,3.8476,3.8588,3.8588,3.8738,3.8805,3.8805,3.886,3.8887,3.8914,3.9077,3.9228,3.9352,3.9067,3.9023,3.9131,3.9158,3.9249,3.9339,2.6095,2.624,0.0,0.0,0.0,0.0,0.0,0.0,3.2893,3.4624,3.5514,3.5983,3.6009,0.0,0.0,0.0,0.0,0.0,3.7343,0.0,0.0,0.0,0.0,0.0,3.3918,3.2955,3.2636,3.2951,0.0,0.0,0.0,0.0,0.0,0.0,3.4317,0.0,0.0,0.0,3.6731,0.0,3.7225,3.7413,0.0,3.778,3.8133,3.856,3.781,3.7387,3.6926,0.0,3.4918,3.4813,0.0,3.2057,0.0,0.0,0.0,0.0,0.0,0.0,0.0,0.0,2.7305,0.0,0.0,0.0,2.6702,2.6609,0.0,0.0,0.0,0.0,0.0,0.0,0.0,0.0,0.0,0.0,0.0,0.0,0.0,0.0,0.0,0.0,0.0,3.6289,3.6239,3.6398,3.7042,3.6857,3.702,3.7655,3.7569,3.7553,3.77,3.7847,3.7992,3.8209,3.8476,3.8588,3.8588,3.8738,3.8805,3.8805,3.9121,3.9245,3.9272,3.952,3.9625,3.9625,3.9484,3.9494,3.9635,3.9755,3.9824,3.9833,2.7239,2.7248,0.0,0.0,0.0,0.0,0.0,0.0,3.3842,3.4729,3.5752,3.6485,0.0,0.0,0.0,0.0,0.0,3.7687,0.0,0.0,0.0,0.0,0.0,0.0,0.0,3.4439,3.3933,3.3523,3.3134,0.0,0.0,0.0,0.0,0.0,3.5073,0.0,3.6507,0.0,0.0,0.0,0.0,0.0,0.0,3.8311,3.8424,3.8919,3.8367,3.8035,3.77,0.0,3.5787,0.0,0.0,0.0,0.0,0.0,0.0,0.0,0.0,0.0,0.0,0.0,0.0,0.0,0.0,0.0,2.6669,0.0,0.0,0.0,0.0,0.0,0.0,0.0,0.0,0.0,0.0,0.0,0.0,0.0,0.0,0.0,0.0,0.0,0.0,0.0,0.0,3.5279,3.5894,3.614,3.6546,3.7208,3.7183,3.7403,3.7992,3.8049,3.8193,3.842,3.8628,3.8766,3.8849,3.9013,3.9121,3.9202,3.9352,3.9458,3.9547,3.9746,3.9824,3.9807,3.9833,3.9884,3.9935,3.9986,4.0163,4.0362,2.9018,0.0,0.0,0.0,0.0,0.0,0.0,0.0,0.0,0.0,0.0,0.0,3.7421,3.8451,0.0,0.0,0.0,3.8282,0.0,0.0,3.6912,0.0,0.0,0.0,0.0,0.0,0.0,3.4426,3.4154,3.4076,0.0,0.0,0.0,0.0,0.0,3.6333,3.6776,0.0,0.0,3.8691,3.8871,3.96,4.0405,3.9226,3.8987,3.9262,3.9062,3.8801,3.8483,3.7866,3.6891,0.0,3.5786,0.0,0.0,0.0,0.0,0.0,3.083,0.0,0.0,0.0,0.0,0.0,0.0,0.0,0.0,0.0,0.0,0.0,0.0,0.0,0.0,0.0,0.0,0.0,0.0,0.0,0.0,0.0,0.0,0.0,0.0,0.0,0.0,0.0,3.3777,3.4324,3.4845,3.5427,3.6028,3.6641,3.6618,3.693,3.7585,3.7806,3.8044,3.8307,3.864,3.8887,3.8996,3.9202,3.9352,3.9448,3.9484,3.9563,3.9668,3.9781,3.9849,3.9875,3.9986,4.0087,4.0096,4.0171,4.0387,4.0673,3.185,3.1139,0.0,0.0,0.0,0.0,0.0,0.0,0.0,0.0,0.0,0.0,0.0,0.0,0.0,0.0,0.0,3.8805,3.9141,0.0,3.8109,0.0,0.0,0.0,0.0,0.0,3.5889,3.5742,3.5455,3.5175,0.0,0.0,0.0,0.0,0.0,3.7092,3.7419,3.8078,3.8751,3.9403,4.0083,4.1001,4.186,0.0,4.0419,3.9994,4.0175,0.0,0.0,3.8453,3.8222,0.0,0.0,0.0,0.0,0.0,0.0,0.0,0.0,0.0,0.0,2.9906,0.0,0.0,0.0,0.0,2.6401,0.0,0.0,0.0,0.0,0.0,0.0,0.0,0.0,0.0,0.0,0.0,0.0,0.0,0.0,0.0,0.0,0.0,0.0,3.2624,3.3281,3.3833,3.4283,3.4855,3.5394,3.6012,3.5892,3.5909,3.6077,3.6796,3.7256,3.7541,3.8379,3.8887,3.8996,3.9202,3.9299,3.9299,3.9432,3.9501,3.9528,3.9651,3.9703,3.9729,3.9833,3.9986,4.0121,4.0395,4.051,4.0558,0.0,0.0,0.0,0.0,0.0,0.0,0.0,3.5322,0.0,0.0,0.0,0.0,0.0,0.0,3.9143,0.0,0.0,3.9051,3.9369,3.8914,0.0,0.0,0.0,3.8107,0.0,0.0,3.6626,3.612,3.5822,0.0,0.0,0.0,0.0,0.0,0.0,3.7756,0.0,0.0,0.0,0.0,0.0,4.1579,4.1975,0.0,0.0,4.1165,4.0932,4.0587,0.0,3.9463,3.8833,3.8286,3.7812,3.7217,3.6477,3.5487,3.4985,0.0,0.0,0.0,3.1643,3.1031,0.0,0.0,0.0,0.0,0.0,0.0,0.0,0.0,0.0,0.0,0.0,0.0,0.0,0.0,0.0,0.0,0.0,0.0,0.0,0.0,0.0,0.0,0.0,3.1504,3.2016,3.276,0.0,3.3973,3.4471,3.5571,3.5568,3.5758,3.619,3.6449,3.6951,3.7703,3.8002,3.8498,3.9202,3.9272,3.9352,3.9432,3.9475,3.9537,3.9642,3.9677,3.9703,3.9703,3.9755,3.9807,3.9884,4.0337,4.0607,4.0892,3.3927,0.0,0.0,0.0,0.0,0.0,0.0,0.0,0.0,0.0,3.76,0.0,3.8229,0.0,3.9337,0.0,3.9284,3.9273,3.9639,3.918,0.0,3.9643,3.9436,0.0,0.0,0.0,0.0,3.7042,0.0,3.66,0.0,0.0,0.0,0.0,0.0,0.0,0.0,0.0,4.0531,0.0,0.0,4.2387,0.0,0.0,4.2834,4.2085,0.0,4.1333,4.1064,4.0388,3.9714,3.9165,3.8893,3.8292,3.7463,3.6505,3.5944,3.5377,3.4106,3.3225,0.0,3.2056,3.1534,0.0,3.0399,0.0,0.0,0.0,0.0,0.0,0.0,0.0,0.0,0.0,0.0,0.0,0.0,2.4314,0.0,0.0,0.0,0.0,0.0,0.0,2.9761,3.0566,3.1119,3.1898,0.0,0.0,3.3889,3.4652,3.4945,3.5254,3.5656,3.5916,3.6519,3.7475,3.7765,3.8364,3.9299,3.9299,3.9352,3.9448,3.9448,3.9484,3.9547,3.9547,3.9547,3.9547,3.9599,3.9642,3.9694,4.0188,4.0737,4.1408,0.0,0.0,0.0,0.0,3.468,0.0,0.0,0.0,3.7317,0.0,3.8002,3.8478,3.8478,3.8878,3.9112,3.9112,3.9339,0.0,4.0066,3.9634,0.0,0.0,3.9977,3.973,3.931,0.0,0.0,0.0,0.0,0.0,0.0,0.0,0.0,0.0,3.8432,0.0,3.9514,4.0172,4.0846,4.1572,4.2622,4.3426,4.405,4.4435,4.3883,4.2844,4.2373,4.2266,4.2236,4.1244,4.0833,4.0642,3.9755,3.9048,3.8469,3.8023,3.6588,3.5174,3.5325,3.4442,3.3417,3.31,0.0,0.0,0.0,0.0,2.9248,0.0,0.0,0.0,0.0,0.0,0.0,0.0,0.0,0.0,0.0,0.0,0.0,0.0,0.0,0.0,0.0,2.8402,2.8819,2.9839,3.0627,3.1187,0.0,0.0,3.3624,3.3423,3.4111,3.4488,3.4497,3.5185,3.5982,3.6849,3.759,3.8395,3.9249,3.9282,3.9299,3.9299,3.9299,3.9299,3.9299,3.9299,3.9299,3.9299,3.9448,3.9518,3.9604,4.0011,4.0948,4.2109,3.6555,3.6573,3.6845,0.0,3.7243,3.7044,0.0,0.0,0.0,0.0,3.8153,3.8277,3.8277,3.909,3.9623,3.9623,4.0405,0.0,0.0,0.0,0.0,4.1345,4.1299,4.1119,4.0757,4.0437,0.0,4.0109,0.0,0.0,3.8904,0.0,0.0,0.0,0.0,0.0,4.0187,4.0846,4.1788,4.2851,4.332,4.3719,0.0,0.0,4.4356,4.4291,4.379,4.2993,4.2191,4.2185,4.1577,4.0753,4.0498,3.9859,3.9019,3.8379,3.7703,3.7041,3.6547,3.5516,3.4599,3.4671,3.3829,3.2761,0.0,0.0,0.0,0.0,0.0,0.0,0.0,0.0,0.0,0.0,0.0,0.0,0.0,0.0,0.0,0.0,0.0,0.0,0.0,2.8203,2.8508,2.8785,2.9713,3.0552,0.0,0.0,0.0,3.3674,3.3888,3.414,3.4497,3.4693,3.5227,3.6091,3.6832,3.7635,3.8493,3.905,3.9299,3.9299,3.9299,3.9299,3.9299,3.9299,3.9299,3.9299,3.9325,3.9818,4.0514,4.0813,4.1707,4.2923,3.7577,0.0,0.0,3.947,0.0,0.0,3.8273,0.0,0.0,3.8551,3.8638,0.0,3.9144,3.98,4.0265,4.0356,4.0986,0.0,0.0,0.0,0.0,4.2093,4.2354,4.2197,4.1518,4.1383,0.0,4.048,0.0,0.0,3.9409,0.0,0.0,0.0,0.0,4.0236,0.0,4.1833,4.271,4.3518,4.3714,0.0,0.0,4.4358,4.461,4.4865,4.4678,4.3742,4.2664,4.2672,4.2018,4.1102,4.0865,4.0448,3.9845,3.895,3.8355,3.7845,3.7261,3.6359,3.5597,3.5533,3.4724,3.3728,3.2927,3.2071,3.1306,0.0,0.0,0.0,0.0,0.0,0.0,0.0,0.0,0.0,0.0,0.0,0.0,0.0,0.0,0.0,0.0,2.7956,2.8153,2.8385,2.9264,3.0037,0.0,0.0,0.0,3.2979,3.3644,3.4107,3.4365,3.4686,3.5263,3.6058,3.6813,3.7559,3.8306,3.9046,3.9369,3.9299,3.9352,3.9395,3.9379,3.9458,3.9468,3.9468,3.9468,4.0251,4.1402,4.1598,4.244,4.3546,0.0,0.0,0.0,0.0,0.0,0.0,0.0,3.875,0.0,3.9247,0.0,3.9615,4.0417,4.0729,4.1006,4.1228,0.0,4.185,4.2017,4.2244,4.2445,4.2707,4.3178,4.2994,4.2069,4.2365,0.0,0.0,0.0,0.0,0.0,0.0,0.0,0.0,0.0,0.0,0.0,4.2821,4.3503,0.0,4.3949,4.4127,4.432,4.4534,4.4761,4.4964,4.5167,4.4507,4.3462,4.2974,4.2347,4.1653,4.1102,4.0896,4.0657,3.9638,3.8827,3.8205,3.773,3.707,3.645,3.6113,3.5449,3.4745,3.4272,3.2718,3.1415,3.1523,3.0675,2.9536,0.0,0.0,0.0,0.0,0.0,0.0,0.0,0.0,0.0,0.0,0.0,0.0,0.0,0.0,2.779,2.8245,2.8954,0.0,0.0,0.0,0.0,3.2039,3.3393,0.0,3.4197,0.0,3.5626,3.6262,3.6999,3.7686,3.832,3.9044,3.9375,3.9352,3.9484,3.9528,3.9554,3.9651,3.9729,3.9755,3.9781,4.0766,4.2169,4.2286,4.3085,4.4101,0.0,0.0,0.0,0.0,0.0,4.0887,4.073,4.0173,3.9813,3.9929,3.9944,4.008,4.0461,4.1126,4.1647,4.1896,4.3061,0.0,0.0,0.0,0.0,4.3907,4.3791,4.3633,4.3374,4.3516,4.332,0.0,0.0,0.0,0.0,0.0,0.0,0.0,0.0,0.0,4.2276,4.3226,0.0,4.3729,4.4104,4.4281,4.4358,4.4685,4.4964,4.5167,4.5368,4.4929,4.4134,4.37,4.3074,4.2412,4.1881,4.1422,4.091,4.0293,3.9702,3.9107,3.8436,3.7707,3.7151,3.7183,3.6251,3.5151,3.4634,3.3876,3.3029,3.2031,3.1413,3.0835,3.0213,0.0,0.0,0.0,0.0,0.0,0.0,0.0,0.0,0.0,0.0,0.0,0.0,0.0,0.0,0.0,0.0,0.0,0.0,0.0,0.0,0.0,3.3107,0.0,0.0,0.0,3.5358,3.5492,3.6245,3.6982,3.7677,3.843,3.9074,3.9625,3.9651,3.9651,3.9677,3.9824,3.9935,4.0037,4.0138,4.1112,4.2445,4.2576,4.3621,4.5014,0.0,0.0,0.0,0.0,0.0,0.0,0.0,4.2596,0.0,4.1061,4.0929,4.1272,4.2202,4.2636,4.3123,4.3707,4.4426,4.4825,4.4825,4.5152,4.5258,4.5139,4.4972,0.0,4.4309,4.4118,4.3724,4.3166,0.0,0.0,0.0,0.0,0.0,0.0,0.0,4.2463,0.0,0.0,0.0,4.4026,4.4205,4.4419,4.461,4.4836,4.5077,4.5368,4.5589,4.5514,4.5128,4.419,4.3384,4.2704,4.217,4.1837,4.1517,4.0968,4.0397,3.9793,3.9153,3.8424,3.7792,3.7475,3.6886,3.6127,3.5224,3.4513,3.3829,3.3039,3.2211,3.1393,3.0708,2.9325,0.0,0.0,0.0,0.0,0.0,0.0,0.0,0.0,0.0,0.0,0.0,0.0,0.0,0.0,0.0,0.0,0.0,0.0,0.0,0.0,0.0,0.0,0.0,0.0,0.0,3.5661,3.64,3.7074,3.7679,3.8494,3.9202,3.9807,3.9935,4.0011,4.0037,4.0213,4.0387,4.0568,4.1011,4.1858,4.2894,4.3434,4.4397,4.5415,0.0,4.3065,0.0,0.0,4.3916,0.0,4.4573,4.4825,4.4353,4.2555,4.2349,4.2828,4.4068,4.4255,4.4586,4.5342,4.5548,4.5665,4.5665,4.601,4.6229,4.627,4.6078,4.5789,4.5316,4.4753,4.4164,0.0,0.0,0.0,0.0,0.0,0.0,0.0,0.0,0.0,0.0,0.0,4.4166,4.432,4.4396,4.4625,4.4911,4.4986,4.5241,4.5589,4.5771,4.5988,4.5941,4.4753,4.3829,4.3078,4.2573,4.227,4.2077,4.1512,4.0881,4.0234,3.9641,3.8958,3.8262,3.7695,3.7409,3.7059,3.6029,3.5154,3.4464,3.4039,3.2896,3.1685,3.0891,2.9799,0.0,0.0,0.0,0.0,0.0,0.0,0.0,0.0,0.0,0.0,0.0,0.0,0.0,0.0,0.0,0.0,0.0,0.0,0.0,0.0,0.0,3.2989,3.3683,0.0,3.5262,0.0,3.659,3.7229,3.7902,3.8615,3.9306,4.0054,4.0238,4.0362,4.0453,4.0697,4.0864,4.1034,4.1795,4.2555,4.3299,4.4202,4.512,4.5892,0.0,0.0,0.0,0.0,0.0,0.0,0.0,4.5849,4.5548,4.4539,4.444,4.4554,4.4882,4.509,4.5312,4.5608,4.6358,4.683,4.683,4.6872,4.6995,4.716,4.6584,4.6386,4.6718,4.609,4.5483,0.0,0.0,0.0,0.0,0.0,0.0,0.0,0.0,0.0,0.0,4.4205,4.4281,4.432,4.4685,4.4874,4.4949,4.5315,4.5589,4.5807,4.5988,4.6152,4.6186,4.5642,4.482,4.4013,4.3506,4.2896,4.2268,4.1714,4.1063,4.0351,3.97,3.8958,3.8375,3.8311,3.7792,3.7263,3.7145,3.6271,3.5283,3.457,3.3184,3.1911,3.1342,3.0772,3.0214,0.0,0.0,0.0,0.0,0.0,0.0,0.0,0.0,0.0,0.0,0.0,0.0,0.0,0.0,0.0,0.0,0.0,0.0,3.173,0.0,3.3085,3.3704,3.4489,0.0,3.5997,3.6066,3.683,3.8167,3.8235,3.9078,4.0461,4.0485,4.0607,4.0864,4.1,4.1123,4.1233,4.2056,4.2797,4.3562,4.4376,4.5594,4.6891,0.0,0.0,0.0,0.0,0.0,0.0,0.0,4.7272,4.7395,4.7452,4.6304,4.5676,4.615,4.6279,4.6528,4.7061,4.7418,4.7612,4.7612,4.7806,4.8013,4.8096,4.771,4.7594,4.7753,4.7068,4.664,0.0,0.0,0.0,0.0,0.0,0.0,0.0,0.0,4.4212,4.4358,4.4435,4.4549,4.4685,4.4836,4.5024,4.5278,4.5442,4.5698,4.5988,4.6152,4.6333,4.6416,4.6033,4.522,4.4311,4.3929,4.3296,4.2679,4.2525,4.2015,4.1298,4.058,3.9862,3.9165,3.8646,3.8293,3.7952,3.7525,3.7069,3.645,3.5481,3.4263,3.3093,3.2184,3.1549,3.093,0.0,0.0,0.0,0.0,0.0,0.0,0.0,0.0,0.0,0.0,0.0,0.0,0.0,0.0,0.0,0.0,0.0,0.0,3.1931,0.0,3.3319,3.3985,3.4737,3.5452,3.6174,3.6174,3.6938,3.8322,3.8397,3.933,4.0864,4.0864,4.1006,4.1221,4.1335,4.1751,4.2354,4.3212,4.4009,4.4835,4.6108,4.6952,4.7621,4.8146,0.0,4.8065,0.0,4.8402,4.8677,4.8596,4.8955,4.9404,4.9839,4.8572,4.766,4.784,4.8012,4.8294,4.8752,4.894,4.889,4.8691,4.8954,4.9027,4.8826,4.8677,0.0,4.8589,4.7934,4.7575,4.7575,4.6873,0.0,0.0,0.0,0.0,0.0,4.5608,4.5532,4.5364,4.5147,4.5131,4.5266,4.5117,4.5241,4.5515,4.5625,4.588,4.6187,4.6333,4.658,4.671,4.6269,4.5487,4.4642,4.4202,4.3532,4.2976,4.3082,4.2621,4.1947,4.1196,4.0459,3.9694,3.8879,3.8672,3.8525,3.8014,3.7763,3.7314,3.6141,3.5157,3.4203,3.3262,3.2579,3.1948,3.1347,0.0,0.0,0.0,0.0,0.0,0.0,0.0,2.9035,2.8456,0.0,0.0,0.0,0.0,0.0,0.0,0.0,0.0,0.0,0.0,0.0,0.0,3.4941,3.5679,3.6423,3.663,3.74,3.8589,3.911,4.0014,4.1123,4.1169,4.1261,4.1426,4.1582,4.219,4.3089,4.3956,4.4802,4.5687,4.7227,4.7935,4.8307,4.9341,4.9333,4.9326,4.9773,5.0268,5.052,5.0315,5.0897,5.1365,5.1365,5.135,5.0979,5.0054,5.0404,5.0648,5.0663,5.108,5.1053,5.0336,5.0289,4.9977,0.0,0.0,4.93,4.93,4.862,4.8292,4.8292,0.0,0.0,4.7302,0.0,4.7286,4.7263,4.7263,4.7263,4.7216,4.6483,4.6187,4.6124,4.5671,4.5478,4.5552,4.5952,4.6187,4.6333,4.6528,4.6842,4.7069,4.6336,4.5751,4.516,4.4423,4.3686,4.3113,4.3113,4.2621,4.1947,4.1196,4.0459,3.9722,3.8985,3.8805,3.8805,3.8788,3.8372,3.7652,3.643,3.5642,3.5036,3.4553,3.4049,3.3467,3.2867,0.0,0.0,0.0,0.0,0.0,0.0,3.0088,3.0088,3.0055,0.0,0.0,0.0,0.0,0.0,0.0,0.0,0.0,3.2144,3.2858,0.0,3.4387,3.5136,3.5901,3.6702,3.7436,3.822,3.9038,4.0495,4.1192,4.1209,4.134,4.1403,4.1426,4.1692,4.2256,4.3089,4.3956,4.4802,4.5687,4.7227,4.8254,4.8997,5.0189,5.0566,5.0872,5.1017,5.1598,5.202,5.1955,5.2039,5.2191,5.2466,5.2376,5.2309,5.2327,5.1654,5.1196,0.0,5.1296,5.1287,0.0,5.1314,5.1149,5.0513,5.0707,5.0644,5.0184,4.9961,4.9866,4.9866,0.0,0.0,0.0,4.8141,4.805,4.7899,4.7785,4.7633,4.7432,4.6575,4.6262,4.6366,4.5745,4.5662,4.5916,4.606,4.6259,4.6528,4.6738,4.6961,4.7055,4.6012,4.5584,4.5284,4.4296,4.369,4.3312,4.3402,4.3284,4.2967,4.2224,4.1498,4.0727,3.989,3.932,3.8942,3.8942,3.8523,3.8079,3.7878,3.6867,3.5857,3.5352,3.4848,3.4288,3.3522,3.3409,0.0,0.0,0.0,0.0,0.0,3.0843,3.065,0.0,3.0136,0.0,0.0,0.0,0.0,0.0,0.0,0.0,0.0,3.3473,0.0,3.4466,3.5697,3.6441,3.6702,3.7453,3.8481,3.9787,4.0756,4.1255,4.134,4.138,4.1448,4.1595,4.2366,4.3165,4.3983,4.4965,4.5815,4.6705,4.8253,4.8959,4.935,5.1607,5.1945,5.2234,5.2155,5.2693,5.3174,5.3093,5.3211,5.3382,5.3629,5.3566,5.3613,5.3868,5.3159,0.0,5.2332,5.2428,5.2403,5.2151,5.2454,5.2327,5.1669,5.1877,5.17,5.0973,0.0,0.0,5.0589,5.0163,4.9715,4.9299,4.9299,4.9223,4.911,4.8958,4.8828,4.8665,4.7785,4.7381,4.7172,4.6492,4.621,4.6187,4.6259,4.6404,4.6633,4.6911,4.7149,4.7173,4.624,4.5791,4.5518,4.4557,4.3992,4.3671,4.3776,4.3776,4.3639,4.2891,4.2359,4.1732,4.0652,4.0028,3.9613,3.9332,3.896,3.87,3.8673,3.7944,3.7119,3.6574,3.6055,3.5463,3.4694,3.4538,3.4291,3.3668,0.0,0.0,0.0,0.0,0.0,0.0,3.1174,0.0,0.0,0.0,0.0,0.0,0.0,0.0,3.2792,3.3966,0.0,3.4998,3.6199,3.6946,3.7242,3.8311,3.9464,4.0665,4.1136,4.1386,4.1471,4.1471,4.1515,4.1679,4.2697,4.3563,4.4404,4.541,4.6284,4.7176,4.8722,4.9293,4.9525,5.3281,5.333,0.0,0.0,5.3649,0.0,5.3855,5.4406,5.4854,5.4813,5.4813,5.4813,5.4813,5.4813,5.456,5.3919,0.0,0.0,0.0,5.3706,5.351,5.2829,5.2813,5.2477,5.1756,5.1692,5.1339,5.0705,5.0705,5.0705,5.0705,5.0705,5.0666,5.0666,5.0666,5.0628,5.0579,4.9827,4.9122,4.845,4.7693,4.6973,4.6333,4.6528,4.6617,4.6652,4.7064,4.7335,4.7389,4.6832,4.6329,4.5879,4.5163,4.4536,4.4097,4.4097,4.4097,4.3946,4.3243,4.3054,4.2669,4.1218,4.0799,4.0531,3.9871,3.9616,3.938,3.895,3.8832,3.863,3.8084,3.7534,3.6949,3.6215,3.5671,3.51,3.4369,0.0,0.0,0.0,0.0,0.0,0.0,3.2967,3.2598,0.0,0.0,0.0,0.0,0.0,3.209,3.3459,3.4337,3.5109,3.5792,3.6636,3.7479,3.8286,3.9782,4.0906,4.1604,4.1604,4.1604,4.1604,4.1604,4.1604,4.1679,4.275,4.3616,4.4404,4.5463,4.6337,4.7176,4.8722,4.9293,4.9525,0.0,0.0,5.4107,5.4067,5.4632,5.5044,5.5004,5.5149,5.518,5.5031,5.5047,5.4964,5.4813,5.4813,5.4729,5.456,5.4629,5.4649,5.4489,5.4665,5.4452,5.3745,5.389,5.3711,5.3139,5.2572,5.2015,5.152,5.152,5.152,5.152,5.152,5.1445,5.1275,5.1124,5.0972,5.0771,4.9865,4.9122,4.845,4.7693,4.7045,4.6528,4.6582,4.6703,4.6876,4.7285,4.747,4.7439,4.6978,4.6441,4.591,4.53,4.4729,4.4224,4.4126,4.4097,4.4064,4.3879,4.3411,4.2775,4.1871,4.0782,3.9921,3.9737,3.9677,3.9653,3.9656,3.9194,3.8806,3.8882,3.837,3.7724,3.71,3.6956,3.6498,3.5218,3.5164,0.0,0.0,3.4457,3.4425,3.4424,3.4304,3.4252,0.0,0.0,0.0,0.0,3.4004,3.3775,3.3512,3.4828,3.5617,3.5792,3.7163,3.8532,3.994,4.0327,4.0906,4.1604,4.1604,4.1604,4.1604,4.1604,4.1604,4.1732,4.335,4.4134,4.4458,4.6069,4.6819,4.7176,4.8722,4.9293,4.9525,5.4451,5.468,5.4875,5.4875,5.5166,5.5409,5.5409,5.5507,5.5564,5.5442,5.5401,5.5376,5.5253,5.5171,5.5072,5.5072,5.5005,5.4922,5.4922,5.5113,5.506,5.4656,5.4915,5.4751,5.4121,5.3791,5.3204,5.2323,5.1958,5.1778,5.1778,5.1778,5.1741,5.1647,5.152,5.1408,5.128,5.0783,5.0126,4.943,4.8702,4.8045,4.7434,4.7109,4.7064,4.7217,4.7487,4.7588,4.7572,4.744,4.7067,4.6586,4.631,4.5618,4.4935,4.4848,4.4584,4.4344,4.4344,4.4041,4.3468,4.2347,4.1177,4.021,3.9951,3.9833,3.9833,3.9961,3.9665,3.9462,3.9661,3.9177,3.8653,3.834,3.8148,3.762,3.6516,3.6464,0.0,3.5638,3.5349,3.5197,3.5197,3.4936,3.478,3.4799,0.0,0.0,3.4799,3.5059,3.5004,3.4565,3.5372,3.6126,3.6827,3.8409,3.9642,4.0502,4.0854,4.12,4.1604,4.1604,4.1626,4.171,4.2079,4.226,4.2414,4.4205,4.4928,4.5075,4.6448,4.6998,4.7176,4.8722,4.9293,4.9525,5.5823,5.5604,5.5466,5.5409,5.5409,5.5409,5.545,5.5645,5.5823,5.5823,5.5863,5.5863,5.5863,5.5629,5.5507,5.5507,5.5344,5.5237,5.5155,5.5303,5.5409,5.5409,5.5645,5.5529,5.491,5.49,5.4301,5.2988,5.2249,5.1888,5.1888,5.1888,5.1851,5.1868,5.1868,5.1815,5.1778,5.1778,5.1352,5.0631,4.9894,4.9157,4.8436,4.7748,4.752,4.7504,4.7654,4.7704,4.7737,4.7951,4.7729,4.7412,4.7426,4.6716,4.5872,4.5901,4.5359,4.4778,4.466,4.4558,4.4152,4.2848,4.1844,4.1023,4.0426,4.0206,4.0121,4.013,4.0163,4.0213,4.0355,3.9924,3.9583,3.9547,3.9095,3.8535,3.7867,0.0,3.7767,3.7207,3.6663,3.6266,3.6161,3.5583,3.5181,3.5151,3.5077,3.5058,0.0,3.5674,3.602,3.6126,3.6143,3.688,3.8444,3.9835,4.0555,4.0678,4.1306,4.1604,4.1604,4.1749,4.1868,4.2031,4.2842,4.3226,4.3426,4.5026,4.5693,4.5787,4.6649,4.6998,4.7176,4.8722,4.9293,4.9525,5.5863,5.5782,5.5645,5.5466,5.5409,5.5466,5.5685,5.5782,5.5863,5.6046,5.6046,5.6046,5.6046,5.6006,5.6006,5.6006,5.5966,5.579,5.5385,5.5369,5.5409,5.5409,5.5645,5.5854,5.5883,5.5018,5.4167,5.3307,5.2649,5.2302,5.2302,5.2302,5.2211,5.2066,5.2066,5.1941,5.1778,5.1778,5.1352,5.0631,4.9894,4.9157,4.8436,4.7748,4.752,4.7504,4.7654,4.7704,4.7737,4.8065,4.7825,4.7412,4.7533,4.7143,4.6646,4.6746,4.6294,4.5563,4.4935,4.4306,4.378,4.3542,4.2773,4.1905,4.1187,4.1095,4.1002,4.0399,4.0362,4.0485,4.0624,4.0546,4.0326,3.9755,3.9595,3.9312,3.8698,0.0,3.8802,3.8748,3.8748,3.8477,3.7812,3.7637,3.7303,3.671,3.6638,3.6656,3.6658,3.6761,3.7093,3.7725,3.7742,3.8515,4.0116,4.0379,4.0818,4.1429,4.1552,4.1604,4.1622,4.2418,4.278,4.2877,4.3731,4.4094,4.4187,4.5257,4.5693,4.5787,4.6649,4.6998,4.7176,4.8722,4.9293,4.9525,5.6165,5.5943,5.5782,5.5645,5.5507,5.5507,5.5782,5.5903,5.6046,5.6244,5.6267,5.6267,5.6267,5.6149,5.6086,5.6086,5.6086,5.6006,5.579,5.5685,5.5604,5.5604,5.5846,5.6126,5.6424,5.5159,5.4345,5.3976,5.2904,5.2409,5.2409,5.2409,5.2338,5.2283,5.2283,5.2266,5.2233,5.2233,5.2123,5.1812,5.1101,5.0286,4.9456,4.8795,4.8216,4.777,4.782,4.7919,4.8,4.8163,4.8171,4.8171,4.8217,4.7909,4.7509,4.7568,4.6839,4.5868,4.5118,4.4657,4.4299,4.3907,4.3479,4.2966,4.2235,4.2116,4.2066,4.1725,4.1348,4.1116,4.1273,4.0971,4.0625,4.0364,4.0423,0.0,0.0,3.9613,3.9586,3.9234,3.9263,3.9143,3.8796,3.876,3.862,3.8251,3.8234,3.8234,3.8234,3.8234,3.8392,3.8743,3.9164,3.9765,4.0485,4.0906,4.1253,4.1604,4.1604,4.1832,4.2271,4.2775,4.327,4.3739,4.4653,4.5062,4.5165,4.6051,4.6412,4.6448,4.6832,4.6998,4.7122,4.8282,4.896,4.9454,5.6672,5.6428,5.6099,5.5855,5.5645,5.5588,5.5806,5.6006,5.6205,5.6424,5.6463,5.6463,5.6463,5.6346,5.6244,5.6244,5.6244,5.6244,5.6165,5.6006,5.5943,5.5863,5.6046,5.6346,5.668,5.5256,5.449,5.449,5.3086,5.2409,5.2409,5.2445,5.2445,5.2445,5.248,5.257,5.2659,5.2659,5.2764,5.2836,5.21,5.1279,5.0409,4.9692,4.8893,4.8131,4.8131,4.8179,4.8292,4.8324,4.8532,4.8818,4.8863,4.8657,4.8362,4.8452,4.7643,4.6525,4.5617,4.5333,4.5145,4.4382,4.4194,4.3962,4.3201,4.3074,4.3048,4.2877,4.2381,4.2003,4.212,4.1656,4.1257,4.1205,0.0,0.0,0.0,4.0503,4.0386,3.9898,3.9828,3.9779,3.9603,3.9585,3.9498,3.9301,3.9284,3.9284,3.9284,3.9284,3.9371,3.9568,4.0165,4.0573,4.0766,4.1323,4.1604,4.1604,4.1797,4.2201,4.2816,4.3344,4.3951,4.4625,4.5582,4.6015,4.6123,4.6748,4.6998,4.6998,4.6998,4.6998,4.7127,4.8133,4.8865,4.9508,5.7446,5.7406,5.7033,5.5977,5.5782,5.5863,5.6046,5.6086,5.6244,5.6619,5.6697,5.6697,5.6697,5.6641,5.6658,5.6658,5.6658,5.658,5.6385,5.6346,5.6267,5.6086,5.6284,5.6463,5.6697,5.5256,5.449,5.449,5.3086,5.2409,5.2409,5.2535,5.2605,5.2589,5.2764,5.2868,5.2868,5.2868,5.2868,5.2836,5.21,5.1363,5.0593,4.9857,4.9136,4.8452,4.8452,4.8483,4.8515,4.8707,4.8786,4.8832,4.9094,4.9165,4.9175,4.9504,4.9114,4.8282,4.6852,4.634,4.6035,4.5297,4.5001,4.4732,4.3997,4.3931,4.3803,4.3134,4.3029,4.3078,4.3095,4.3044,4.2817,4.2189,0.0,0.0,4.1375,4.1316,4.1343,4.1424,4.1429,4.1165,4.0485,4.0414,4.0116,3.9375,3.9284,3.9284,3.9284,3.9284,3.9638,4.0397,4.0467,4.0836,4.1516,4.1569,4.1604,4.1604,4.2359,4.2745,4.2868,4.4546,4.5351,4.548,4.6456,4.6908,4.6908,4.6962,4.6998,4.6998,4.6998,4.6998,4.7199,4.8816,4.9453,4.9704,5.8405,5.7922,5.735,5.6927,5.6397,5.6046,5.6284,5.6284,5.6385,5.6641,5.668,5.668,5.668,5.668,5.668,5.668,5.668,5.668,5.658,5.658,5.6502,5.6267,5.6463,5.6603,5.668,5.5719,5.4936,5.449,5.3516,5.2859,5.2535,5.257,5.2659,5.2799,5.2868,5.2972,5.3076,5.3076,5.3161,5.3264,5.2977,5.2337,5.148,5.0741,4.992,4.912,4.8683,4.8595,4.8707,4.8769,4.8925,4.9063,4.9168,4.935,4.956,4.9801,4.9711,4.9321,4.8241,4.7231,4.6429,4.6136,4.5652,4.5152,4.4903,4.4861,4.4854,4.4656,4.4284,4.4031,4.4106,4.3749,4.3357,4.311,0.0,4.2899,4.2224,4.2228,4.2098,4.1657,4.1604,4.1499,4.12,4.1165,4.106,4.0762,4.0744,4.0744,4.0744,4.0744,4.0867,4.1165,4.1165,4.1323,4.1604,4.1604,4.185,4.2359,4.2658,4.3307,4.4255,4.5111,4.574,4.6206,4.6763,4.6998,4.6998,4.6998,4.6998,4.6998,4.6998,4.7043,4.7277,4.8414,4.9141,4.9785,5.9247,5.8531,5.7833,5.7562,5.676,5.6244,5.6385,5.6385,5.6463,5.668,5.668,5.668,5.668,5.668,5.6735,5.6796,5.6796,5.6834,5.6872,5.6872,5.6757,5.6502,5.6619,5.668,5.668,5.6001,5.5218,5.449,5.3801,5.3197,5.2589,5.2729,5.2868,5.3007,5.3058,5.3161,5.3298,5.3298,5.3416,5.3551,5.3551,5.3094,5.2283,5.1792,5.0899,4.9843,4.9352,4.9094,4.9018,4.9018,4.9155,4.929,4.935,4.956,4.9813,4.9964,5.0011,4.989,4.9338,4.8297,4.7254,4.6734,4.6199,4.5734,4.5501,4.5476,4.5502,4.5632,4.5251,4.4937,4.5037,4.4627,4.4234,4.4032,4.4052,4.3844,4.3121,4.2893,4.2605,4.2043,4.1762,4.1604,4.1604,4.1604,4.1604,4.1604,4.1604,4.1604,4.1604,4.1604,4.1604,4.1604,4.1604,4.1604,4.1604,4.1604,4.2008,4.2816,4.3044,4.3834,4.5115,4.5605,4.6112,4.6613,4.6888,4.6998,4.6998,4.6998,4.6998,4.7002,4.7043,4.7111,4.7344,4.8474,4.9243,4.9924,6.0009,5.9413,5.8587,5.7661,5.6879,5.6385,5.6385,5.6385,5.6463,5.668,5.668,5.668,5.668,5.668,5.6796,5.6987,5.6987,5.7101,5.7289,5.7289,5.7139,5.6719,5.668,5.668,5.668,5.6001,5.5234,5.4527,5.3964,5.334,5.264,5.3007,5.3179,5.3213,5.3416,5.3501,5.3501,5.3501,5.3584,5.37,5.37,5.3374,5.2904,5.2887,5.193,5.0629,5.0611,5.0133,4.9518,4.9518,4.9518,4.9518,4.9649,4.986,4.9993,4.9993,4.9993,4.9993,4.9993,4.9556,4.8716,4.702,4.6613,4.6433,4.5754,4.5607,4.5658,4.577,4.5795,4.5795,4.5795,4.5795,4.562,4.5019,4.4921,4.469,4.3986,4.3289,4.2793,4.2816,4.2113,4.1604,4.1604,4.1604,4.1604,4.1604,4.1604,4.1604,4.1604,4.1604,4.1604,4.1604,4.1604,4.1604,4.1604,4.1604,4.2026,4.2833,4.3553,4.4325,4.5133,4.6159,4.659,4.6613,4.6888,4.6998,4.6998,4.6998,4.6998,4.7002,4.7133,4.7196,4.742,4.923,4.9897,5.0155,6.0771,5.9761,5.8833,5.8521,5.7446,5.6619,5.6619,5.6619,5.6641,5.668,5.668,5.668,5.668,5.6834,5.6949,5.6987,5.7139,5.7252,5.7289,5.7289,5.7252,5.7139,5.7139,5.7139,5.7139,5.6901,5.6417,5.5699,5.5021,5.4393,5.3779,5.3397,5.3264,5.3416,5.3467,5.3501,5.3501,5.3601,5.3651,5.37,5.3849,5.3811,5.3604,5.3092,5.2597,5.205,5.1005,5.0475,5.0201,4.9658,4.9619,4.9825,5.0114,5.0246,5.0274,5.0274,5.0274,5.0274,5.0274,5.0146,4.9608,4.7917,4.7192,4.6691,4.5892,4.5744,4.577,4.5922,4.5947,4.5972,4.6073,4.6073,4.6027,4.5849,4.5814,4.5576,4.4852,4.4553,4.4009,4.2938,4.2605,4.2219,4.1657,4.1604,4.1604,4.1604,4.1604,4.1604,4.1604,4.1604,4.1604,4.1604,4.1604,4.1885,4.2447,4.2447,4.2833,4.3588,4.4378,4.5181,4.6015,4.6412,4.6637,4.6731,4.6911,4.6998,4.6998,4.6998,4.7066,4.7133,4.7178,4.729,4.7623,4.9298,5.0027,5.0413,6.1102,5.991,5.8899,5.8899,5.7674,5.668,5.668,5.668,5.668,5.668,5.668,5.668,5.668,5.6872,5.7025,5.7101,5.7364,5.7551,5.7551,5.7551,5.7551,5.7551,5.7551,5.7476,5.7289,5.7289,5.6938,5.6218,5.5822,5.5192,5.4289,5.3921,5.3652,5.3501,5.3501,5.3534,5.3568,5.3651,5.3766,5.3915,5.4045,5.411,5.4141,5.371,5.3381,5.3066,5.2121,5.1447,5.0922,5.0474,5.0229,5.0143,5.0359,5.0415,5.0415,5.0415,5.0415,5.0415,5.0415,5.0425,5.0185,4.8938,4.8023,4.7256,4.6516,4.6098,4.5922,4.6122,4.6154,4.6204,4.6326,4.6368,4.6368,4.6368,4.6368,4.6192,4.5751,4.5434,4.4906,4.3973,4.3303,4.2722,4.2229,4.193,4.1754,4.1754,4.1754,4.1732,4.167,4.167,4.1648,4.1604,4.192,4.2324,4.2816,4.3458,4.3986,4.4378,4.4917,4.5604,4.6423,4.659,4.6708,4.6819,4.6934,4.6998,4.6998,4.6998,4.7088,4.7219,4.7245,4.7338,4.7655,4.9021,4.984,5.0482,6.1003,5.981,5.88,5.88,5.7624,5.668,5.668,5.668,5.668,5.668,5.668,5.6735,5.6719,5.6911,5.7101,5.7327,5.7662,5.7881,5.7881,5.7881,5.7881,5.7881,5.7881,5.7735,5.7364,5.7364,5.7029,5.6339,5.6471,5.5856,5.4526,5.4582,5.4228,5.3602,5.3534,5.3584,5.37,5.3733,5.3931,5.419,5.4239,5.4335,5.4512,5.4512,5.4188,5.3719,5.3649,5.2803,5.1685,5.1575,5.1035,5.0425,5.0471,5.0499,5.0499,5.0499,5.0499,5.0499,5.0499,5.0564,5.0537,4.9987,4.9004,4.7998,4.7377,4.6632,4.6122,4.6374,4.6405,4.6471,4.659,4.659,4.659,4.659,4.659,4.659,4.659,4.6006,4.5563,4.551,4.42,4.3262,4.312,4.243,4.2005,4.2005,4.2005,4.1945,4.1823,4.1872,4.1864,4.1754,4.2505,4.2961,4.3031,4.4554,4.5241,4.5122,4.5311,4.577,4.6429,4.6684,4.6819,4.6819,4.6952,4.6998,4.6998,4.7002,4.7088,4.7223,4.7276,4.7407,4.7623,4.8562,4.9506,5.0431,6.0241,5.9049,5.8038,5.8038,5.7293,5.668,5.668,5.668,5.668,5.668,5.668,5.6757,5.6911,5.7101,5.7327,5.7514,5.7772,5.7881,5.7881,5.7881,5.7881,5.7881,5.7881,5.7845,5.7772,5.7772,5.7687,5.7535,5.7014,5.6558,5.622,5.5124,5.4499,5.4329,5.3855,5.3684,5.3717,5.3963,5.4126,5.419,5.4367,5.4543,5.4717,5.4717,5.472,5.4631,5.4039,5.3239,5.2323,5.1312,5.0852,5.0766,5.0999,5.1097,5.1097,5.1097,5.1097,5.1097,5.1097,5.1123,5.1114,5.099,4.9825,4.8521,4.7848,4.7053,4.6495,4.6542,4.6566,4.6566,4.659,4.659,4.659,4.659,4.659,4.659,4.659,4.6448,4.613,4.5563,4.5191,4.4483,4.3227,4.243,4.2005,4.2005,4.2005,4.1984,4.1945,4.2493,4.2811,4.2789,4.3549,4.4274,4.491,4.5287,4.5399,4.5258,4.5982,4.6454,4.6725,4.6754,4.6865,4.6957,4.6998,4.6998,4.702,4.7111,4.7205,4.7298,4.7407,4.7533,4.7787,4.8711,4.9616,5.0617,5.9707,5.879,5.8103,5.8103,5.7486,5.6949,5.6872,5.6834,5.6796,5.6719,5.6796,5.6872,5.6987,5.7252,5.7514,5.7735,5.7845,5.7881,5.7881,5.7881,5.7918,5.8044,5.8027,5.808,5.8188,5.8188,5.808,5.7881,5.7509,5.7137,5.6782,5.6004,5.5329,5.4669,5.438,5.414,5.3931,5.4126,5.4271,5.4367,5.4543,5.4717,5.4828,5.4855,5.4992,5.5026,5.4643,5.3876,5.2831,5.15,5.1052,5.1079,5.1228,5.1298,5.1298,5.1298,5.1298,5.1307,5.1376,5.1402,5.1428,5.1538,5.0681,4.951,4.8551,4.7422,4.6613,4.6684,4.6749,4.6819,4.6865,4.6916,4.6939,4.6888,4.6888,4.6865,4.6795,4.6795,4.6653,4.6262,4.5889,4.516,4.393,4.3148,4.2704,4.2704,4.2704,4.2683,4.2622,4.335,4.3735,4.3674,4.4453,4.5067,4.5492,4.5916,4.6093,4.6023,4.6483,4.6731,4.6795,4.6865,4.6934,4.7002,4.7066,4.7088,4.7111,4.7223,4.7316,4.7407,4.7472,4.7593,4.7808,4.8732,4.9937,5.1274,5.9175,5.8613,5.821,5.821,5.7708,5.7252,5.7063,5.7063,5.6987,5.6834,5.6949,5.7063,5.7101,5.7439,5.7735,5.7881,5.7881,5.7881,5.7881,5.7918,5.8044,5.8188,5.8224,5.8331,5.849,5.849,5.8331,5.7991,5.7991,5.7686,5.7092,5.6974,5.623,5.5026,5.4924,5.4631,5.419,5.4239,5.4367,5.4575,5.4717,5.4811,5.4886,5.4992,5.5126,5.5289,5.5289,5.4501,5.3223,5.1838,5.1376,5.1376,5.141,5.1436,5.1436,5.1436,5.1436,5.1462,5.1582,5.1607,5.1658,5.1882,5.1322,5.0462,4.9468,4.8045,4.6914,4.6906,4.698,4.7088,4.7201,4.7254,4.7276,4.7223,4.7223,4.7178,4.707,4.7048,4.7048,4.7048,4.6329,4.5557,4.4852,4.4121,4.3675,4.3675,4.3675,4.3654,4.3533,4.428,4.4663,4.4573,4.5331,4.5756,4.5756,4.6516,4.6865,4.6865,4.6888,4.6888,4.6865,4.698,4.7043,4.7048,4.7178,4.7223,4.7223,4.7298,4.7407,4.7511,4.7533,4.7615,4.7868,4.8959,5.0404,5.1988,5.8502,5.7959,5.744,5.744,5.7356,5.7289,5.7252,5.7252,5.7252,5.7214,5.7252,5.7327,5.7514,5.7735,5.7881,5.7881,5.7881,5.7881,5.7881,5.808,5.8188,5.8188,5.8384,5.849,5.849,5.849,5.849,5.8419,5.8419,5.8368,5.8249,5.7617,5.685,5.5996,5.5515,5.4895,5.419,5.4367,5.4575,5.4749,5.4797,5.4948,5.5139,5.5169,5.5366,5.5648,5.5648,5.473,5.3369,5.2098,5.164,5.169,5.1914,5.1987,5.1987,5.1987,5.1987,5.2005,5.2011,5.2029,5.2029,5.2078,5.1467,5.0838,5.0659,4.9403,4.8057,4.7357,4.7254,4.7258,4.7298,4.728,4.7298,4.7298,4.7298,4.7276,4.7258,4.7276,4.7276,4.7276,4.6506,4.5877,4.5659,4.4906,4.4442,4.4442,4.4442,4.4442,4.4421,4.5191,4.5619,4.5597,4.6381,4.6791,4.6791,4.7035,4.7151,4.7151,4.7209,4.7187,4.7151,4.7156,4.7205,4.7276,4.7276,4.7298,4.7298,4.7407,4.749,4.7511,4.7636,4.7759,4.8084,4.9766,5.109,5.2193,5.801,5.7769,5.7625,5.7625,5.7625,5.7588,5.7476,5.7476,5.7439,5.7327,5.7402,5.7514,5.7588,5.7772,5.7881,5.7881,5.7881,5.7881,5.7881,5.808,5.826,5.8367,5.8561,5.8701,5.8788,5.8788,5.8788,5.8788,5.8579,5.849,5.8473,5.8165,5.7449,5.6354,5.6128,5.5388,5.4367,5.4463,5.4623,5.4828,5.4886,5.5022,5.5229,5.5306,5.5502,5.5601,5.4889,5.3982,5.3007,5.209,5.1864,5.1938,5.206,5.2102,5.2102,5.2102,5.2132,5.2246,5.2293,5.2345,5.2397,5.2467,5.2218,5.1837,5.1384,5.0732,4.9814,4.8281,4.8029,4.7969,4.7601,4.7575,4.7615,4.7533,4.7533,4.7468,4.7302,4.7302,4.7302,4.7302,4.697,4.6689,4.6645,4.5946,4.5498,4.5498,4.5498,4.5498,4.5498,4.6233,4.6645,4.6645,4.6986,4.7165,4.7165,4.7227,4.7249,4.7249,4.7298,4.7298,4.7249,4.7249,4.7276,4.7302,4.7385,4.7407,4.7407,4.7572,4.7615,4.7636,4.7759,4.8489,4.951,5.0325,5.1516,5.2841]}]]